GFSWCAN_850_spd_000.txt.gz
Wind_Speed
31 31 30 29 27 26 24 22 21 18 16 15 14 14 14 12 12 15 19 18 20 10 26 28 26 24 15 14 7 8 7 4 4 5 8 10 10 11 15 18 23 18 15 11 7 9 15 10 2 1 15 17 8 13
32 31 32 29 27 26 22 19 16 14 13 14 13 13 13 12 14 14 12 11 15 20 17 23 25 23 24 29 24 10 8 7 3 4 3 5 4 3 12 12 3 14 14 8 11 8 5 7 1 3 7 4 9 15
32 30 29 28 24 20 18 17 13 12 14 13 9 11 12 11 14 11 13 9 10 13 26 27 21 13 25 31 20 17 9 6 4 5 5 3 6 4 6 4 14 4 7 7 9 5 9 10 8 8 5 9 19 18
25 24 25 26 21 15 13 10 9 10 12 10 10 10 9 9 7 7 10 9 9 8 7 5 3 5 7 15 28 32 21 5 7 12 4 3 4 7 1 3 4 6 4 9 5 6 14 16 12 9 6 9 16 19
23 23 22 23 17 13 11 8 8 10 10 12 6 5 5 6 7 6 8 11 12 8 9 20 25 3 7 20 18 23 23 22 16 7 4 2 5 4 2 3 4 10 6 3 6 11 12 14 12 4 13 16 16 20
23 21 18 18 16 13 12 11 11 10 11 5 4 6 5 8 4 5 3 3 7 10 8 4 10 2 1 11 19 18 18 14 14 8 2 5 10 6 3 2 7 8 6 3 5 8 19 21 12 8 15 17 18 22
21 18 16 16 17 16 14 12 10 10 7 4 4 6 6 7 7 5 4 7 2 6 4 5 4 1 3 9 9 11 14 9 11 10 4 3 5 1 2 3 10 8 12 16 19 24 17 17 16 13 11 15 17 17
20 18 18 18 18 16 14 13 10 10 7 7 7 7 8 10 8 4 4 7 7 5 5 3 4 4 7 8 8 9 10 9 7 4 4 3 1 4 4 8 11 15 18 26 24 25 20 19 21 9 9 11 15 11
20 18 17 17 18 17 15 14 13 12 12 9 7 7 3 1 2 4 11 4 7 6 5 3 3 2 3 3 6 9 9 5 3 1 2 4 3 4 6 14 16 17 13 16 16 17 17 18 14 10 11 11 10 8
19 20 19 18 18 14 15 17 15 15 11 9 6 3 0 1 5 6 1 4 4 4 5 4 5 5 7 3 7 8 7 5 2 2 7 3 5 15 16 17 19 20 18 14 20 17 20 12 13 12 15 11 8 7
20 19 18 19 15 17 17 18 21 17 11 7 6 4 6 6 2 3 2 3 3 3 5 5 6 7 3 3 1 3 2 7 3 3 2 3 2 4 12 16 18 24 23 18 14 13 15 8 7 8 7 5 4 6
19 18 18 17 17 17 19 21 22 16 10 8 9 8 6 3 3 4 3 4 3 3 3 5 10 7 5 4 5 3 1 2 5 3 3 3 4 7 11 9 12 12 11 12 12 8 5 5 6 4 3 3 4 4
16 16 16 18 20 22 23 21 18 16 11 4 3 3 5 3 2 5 8 4 3 8 7 11 6 4 5 5 4 2 2 4 6 3 3 4 14 16 12 10 13 13 12 10 9 7 6 6 7 5 4 5 4 3
13 16 21 24 26 24 20 16 15 12 5 4 6 5 5 4 4 2 6 6 9 12 16 11 8 4 5 3 3 3 4 1 4 4 4 6 13 14 12 10 11 10 10 9 8 7 8 10 11 8 7 5 6 6
17 18 26 28 27 23 20 15 14 11 5 4 4 4 4 8 7 7 8 7 8 12 10 4 5 6 5 3 4 4 4 5 6 3 4 13 12 13 13 14 12 10 8 6 6 6 7 7 8 9 8 7 7 8
20 21 27 30 27 19 19 12 13 8 4 4 5 2 12 8 15 19 18 15 15 13 5 2 2 3 6 4 7 7 4 5 3 3 9 11 9 9 10 10 11 9 8 7 7 7 9 11 8 6 7 9 9 7
20 15 26 30 26 14 17 11 6 6 5 6 6 15 14 13 14 17 18 19 16 7 4 3 5 6 4 5 4 4 2 3 3 6 7 9 7 7 8 8 9 8 8 7 6 5 5 6 8 5 7 9 10 9
18 23 25 27 27 14 11 9 4 5 5 8 7 15 13 12 16 18 18 19 12 9 10 4 5 7 4 3 3 3 2 6 7 7 8 8 6 8 8 8 8 9 10 10 9 7 8 8 9 10 9 10 6 8
22 23 23 24 22 10 6 6 6 5 7 9 13 14 12 12 15 15 15 13 9 8 3 5 6 5 4 5 8 8 8 7 5 8 7 8 10 9 7 5 7 9 9 10 11 11 10 10 9 9 9 9 10 9
16 14 18 15 14 5 4 5 6 4 7 8 12 14 9 15 15 15 16 17 15 13 10 5 6 9 9 9 8 8 8 8 5 4 6 8 10 10 11 10 9 10 12 12 14 14 12 11 11 11 10 10 10 10
12 16 12 11 6 9 5 6 4 5 6 5 14 10 9 12 16 18 18 14 17 14 10 10 9 8 7 6 6 5 6 7 7 5 5 10 13 13 12 12 12 13 13 13 13 13 14 13 13 13 12 11 11 12
14 11 8 9 7 5 4 9 4 7 5 7 8 9 7 10 13 16 14 13 8 9 7 9 9 9 10 10 8 10 11 11 8 8 8 10 7 7 10 11 10 11 13 13 13 14 14 14 15 14 13 14 13 13
9 9 5 6 4 6 3 8 4 6 4 7 8 5 6 7 12 12 5 7 8 12 17 15 14 14 15 16 19 18 17 18 15 10 7 4 3 4 4 6 8 8 9 11 12 13 14 14 13 13 13 14 13 11
8 5 4 4 6 4 5 5 3 4 3 3 2 3 3 5 8 4 4 5 7 10 10 11 14 18 17 20 20 20 19 16 14 12 10 6 3 3 3 3 4 6 8 10 12 14 15 14 14 13 14 13 11 11
4 5 4 5 4 5 3 3 3 2 3 3 3 2 3 3 3 5 7 11 16 17 17 16 18 19 19 18 19 20 21 19 16 13 10 8 6 5 5 5 5 7 10 14 15 17 17 16 14 13 14 13 13 13
3 3 3 6 4 4 5 6 6 5 2 1 1 2 2 2 5 5 5 12 15 16 16 17 17 17 19 19 20 21 20 18 15 11 11 10 8 8 8 9 10 10 14 15 17 18 18 16 15 14 14 14 15 16
4 6 2 4 3 3 3 2 3 3 3 4 2 3 2 3 5 5 10 11 12 12 13 13 14 16 16 17 18 18 17 16 14 10 8 8 9 11 11 11 12 13 15 14 15 14 14 14 14 14 15 15 16 16
3 3 5 7 3 2 4 3 2 3 3 2 2 4 3 6 5 8 9 9 8 10 12 14 15 16 17 17 17 18 17 15 12 10 7 5 9 11 14 12 12 15 12 15 14 13 13 13 14 15 16 17 17 16
3 5 5 5 2 1 2 4 7 6 7 5 2 3 6 10 9 9 12 12 10 12 16 17 15 15 16 16 17 16 15 16 17 16 14 13 13 13 14 13 14 14 14 14 16 17 17 17 14 15 14 14 14 14
7 7 4 4 4 4 5 6 8 8 11 13 19 27 25 21 18 18 21 23 23 14 11 10 13 17 19 20 18 16 13 14 14 13 14 13 13 13 15 16 16 15 15 15 15 15 16 16 12 12 13 13 13 14
8 8 7 5 6 6 7 11 15 18 19 21 18 15 7 5 11 11 11 11 10 10 12 14 16 17 19 18 17 15 12 12 11 12 12 11 13 14 16 16 15 15 15 14 14 14 15 14 13 13 13 14 14 14
7 9 11 7 7 6 8 4 6 13 8 5 2 2 3 4 4 3 9 10 12 14 14 15 16 17 16 13 11 10 9 9 11 13 14 14 14 14 13 13 13 13 13 13 13 13 14 14 14 14 14 15 15 15
6 10 10 9 8 8 6 3 3 5 4 4 2 2 1 3 5 5 7 9 10 11 13 13 13 13 12 12 11 10 11 11 16 20 20 17 15 13 12 12 12 14 13 13 14 13 14 14 15 15 15 16 16 16

GFSWCAN_850_spd_003.txt.gz
Wind_Speed
32 32 31 30 29 28 25 23 20 18 15 15 14 14 13 12 12 13 13 13 19 9 20 30 28 29 26 18 8 10 6 4 3 8 11 14 15 19 21 23 25 22 20 19 18 22 23 7 7 6 8 16 17 17
29 27 25 25 28 26 21 18 17 14 13 13 14 14 10 10 10 11 17 16 12 21 19 23 26 26 21 25 24 18 11 3 4 4 3 6 5 8 18 15 25 23 20 16 18 14 9 11 12 7 8 9 9 6
24 25 23 24 26 21 17 15 13 12 12 13 13 9 12 11 10 13 14 12 14 12 27 28 24 19 21 31 27 19 18 6 4 10 4 3 6 4 7 10 18 6 19 17 11 12 9 13 12 11 10 5 8 12
22 24 21 21 22 20 17 14 11 12 11 10 11 11 9 9 8 9 11 11 11 8 7 13 4 3 8 13 25 26 20 5 7 12 8 3 5 7 3 4 3 5 10 9 16 15 18 16 15 12 10 10 15 17
22 21 18 19 20 19 17 15 12 15 12 12 8 7 7 9 8 10 11 10 12 9 8 21 23 13 13 18 15 22 23 17 13 6 3 3 4 3 6 2 5 7 6 1 8 19 21 18 17 16 18 15 15 16
22 20 20 19 22 20 19 17 14 12 13 8 8 8 7 7 6 8 3 1 5 11 10 5 11 4 3 13 14 16 17 14 8 1 5 7 6 6 4 4 7 8 16 8 12 24 29 24 22 18 17 15 15 15
20 19 20 20 21 20 18 17 14 14 13 11 10 10 8 6 7 8 5 7 10 4 3 5 4 7 7 13 15 13 13 9 6 2 7 4 4 12 2 3 6 8 17 19 20 24 18 12 12 19 18 15 12 13
20 21 20 20 19 18 18 19 18 16 16 14 12 11 10 12 9 6 5 9 5 5 5 3 5 4 17 16 11 15 12 11 10 9 5 1 3 5 1 5 12 13 23 25 22 21 21 18 15 17 20 22 16 16
21 21 21 21 20 20 19 18 19 18 15 12 10 9 6 3 4 3 9 8 6 6 3 3 2 3 13 5 5 16 16 8 8 2 3 2 2 3 6 10 13 10 12 18 23 26 25 24 20 15 18 13 15 13
20 19 19 18 18 19 22 24 24 19 10 9 8 4 4 3 8 9 4 4 4 5 6 4 11 4 11 7 9 9 10 2 2 4 2 3 3 8 9 12 18 19 14 10 15 16 23 28 20 14 16 15 3 11
17 17 19 22 25 28 28 26 23 18 11 7 5 4 10 11 5 4 3 4 6 4 7 4 8 6 10 4 2 5 2 3 1 4 0 2 2 3 16 19 17 19 19 20 20 19 19 22 12 4 4 2 3 4
17 19 22 25 30 31 28 24 21 13 10 9 8 8 8 4 4 3 4 4 3 2 5 2 4 7 3 4 3 3 2 1 4 4 3 2 3 11 12 20 20 17 18 18 15 13 8 6 6 4 5 4 0 3
20 23 23 26 34 33 25 20 18 15 6 3 4 5 6 4 3 5 6 0 4 9 9 7 5 5 4 6 5 5 5 3 8 3 3 2 6 7 11 13 11 12 11 11 11 8 5 6 8 9 7 4 6 5
22 23 21 29 35 31 22 18 16 8 5 3 5 4 4 4 4 4 9 7 8 8 9 3 5 4 10 1 3 7 5 4 3 3 2 4 9 7 9 12 14 11 8 10 10 10 8 8 10 9 9 9 8 7
23 21 23 31 31 25 20 14 14 10 5 5 5 5 4 9 16 17 13 16 16 15 12 5 5 8 6 5 3 4 5 5 5 2 4 12 12 6 8 10 10 9 8 9 9 9 8 8 9 10 10 8 7 7
24 13 19 28 28 19 19 10 11 6 2 2 2 4 8 11 16 21 22 21 19 15 8 2 5 4 8 5 7 8 4 4 4 2 12 12 14 10 7 8 12 11 12 10 9 11 11 10 8 9 9 8 10 9
19 14 25 26 26 13 19 10 6 5 7 5 5 17 15 15 15 20 21 21 20 19 8 5 7 6 3 4 5 5 3 2 9 10 10 9 11 8 7 8 9 9 10 9 8 7 5 5 9 9 8 6 4 6
18 21 22 24 24 13 9 10 5 6 7 12 12 15 14 15 17 18 18 18 14 16 15 6 7 9 5 4 3 3 4 4 4 5 7 9 10 8 8 8 8 9 9 9 6 7 7 10 8 6 3 5 5 1
20 19 19 18 17 8 6 6 6 5 10 13 15 13 13 15 15 15 15 14 13 13 12 9 7 4 4 6 10 12 14 11 8 9 10 10 11 10 10 9 11 12 12 12 13 15 13 11 11 13 14 13 12 10
14 11 14 11 14 4 4 4 5 4 7 9 14 12 13 15 16 17 19 20 19 20 14 7 9 12 13 13 13 14 13 11 9 10 10 12 12 12 14 12 11 11 12 12 13 14 11 11 11 12 11 11 12 13
8 10 7 10 5 7 4 6 5 5 5 7 11 8 13 17 20 19 23 19 21 23 14 15 15 15 14 14 16 16 15 14 12 12 11 13 12 12 12 11 11 11 11 11 11 11 11 11 13 13 12 11 11 12
10 10 6 7 6 4 6 7 4 5 5 6 13 14 9 12 13 17 15 16 8 11 12 16 18 20 21 21 21 20 19 18 13 11 9 8 8 7 8 9 10 10 10 11 11 11 11 12 12 13 12 12 12 11
11 9 5 5 4 5 4 6 3 5 4 4 7 4 4 7 6 7 5 8 14 17 16 16 16 17 17 19 22 22 23 15 14 13 10 8 7 6 6 5 6 8 9 10 10 11 12 13 14 14 13 13 12 11
7 5 3 3 5 3 3 4 4 3 3 3 3 3 3 4 5 9 8 11 9 13 18 20 21 18 19 20 22 23 22 18 15 11 11 12 7 5 6 6 5 7 9 11 13 14 15 16 16 14 13 14 13 13
5 5 4 3 1 3 2 2 3 2 3 2 2 2 4 2 3 5 8 13 18 20 18 17 17 18 19 19 20 21 21 20 17 15 14 13 13 12 9 9 10 7 10 13 16 17 18 18 16 15 15 15 14 14
3 2 4 8 5 5 5 4 3 3 3 3 3 3 1 0 6 5 5 13 13 14 15 16 17 17 18 18 19 20 19 17 15 12 12 12 12 12 12 12 14 14 17 16 17 18 16 16 16 15 15 15 15 15
4 5 3 3 4 5 4 2 3 3 2 3 3 3 4 4 5 4 10 10 12 13 13 14 16 17 17 17 17 18 17 15 14 12 9 8 8 11 13 14 14 14 14 14 15 15 15 15 16 15 16 16 16 17
5 7 7 7 4 5 6 7 5 5 7 7 5 4 3 4 4 7 9 10 10 12 13 14 15 15 16 17 17 17 15 15 14 13 9 4 9 12 13 12 13 16 14 14 16 14 14 16 17 14 15 15 15 15
4 10 7 9 8 5 8 8 9 10 14 14 3 4 4 5 11 10 10 9 12 16 12 10 12 14 16 16 15 15 14 15 16 15 14 12 13 15 15 15 15 14 14 13 16 14 16 17 13 11 12 14 14 14
12 11 5 8 12 6 11 11 13 12 15 13 12 16 17 11 4 4 7 8 8 10 13 14 15 16 17 17 16 14 12 13 14 14 14 14 15 15 15 15 15 14 14 13 13 13 16 15 12 13 14 14 15 15
9 13 9 8 8 6 9 9 10 12 11 12 10 10 7 6 5 8 8 10 12 14 14 15 15 16 16 16 14 12 11 11 12 13 14 11 11 12 12 12 13 13 13 13 13 13 15 15 14 14 15 15 16 16
6 6 7 3 6 6 8 4 3 5 4 4 5 4 5 4 1 3 11 13 13 14 15 14 14 14 14 12 11 11 12 10 10 14 17 13 11 10 11 12 12 13 13 13 13 13 14 14 15 15 15 16 17 17
5 10 9 8 4 3 6 6 4 4 3 3 3 1 2 5 5 7 8 13 13 14 14 14 13 12 12 11 12 11 10 10 14 15 19 16 15 12 12 12 12 14 15 13 13 13 14 14 15 15 15 16 17 17

GFSWCAN_850_spd_006.txt.gz
Wind_Speed
26 27 27 26 26 28 25 23 19 18 16 13 12 14 14 15 11 12 15 10 18 10 23 26 28 27 24 18 8 9 10 9 8 12 10 7 10 9 12 17 10 8 9 11 11 11 15 15 18 18 4 3 6 10
25 23 25 24 24 24 21 20 17 15 14 13 12 15 12 9 11 11 15 10 13 21 20 25 23 29 30 26 24 17 8 9 6 4 1 4 7 5 12 12 17 13 14 11 12 11 9 8 11 8 8 8 15 16
23 23 21 21 23 24 21 19 17 15 16 14 13 11 12 12 10 12 15 15 15 16 26 24 24 25 26 30 28 24 15 12 7 7 3 2 5 4 5 10 17 16 12 15 15 13 4 14 11 10 14 22 22 25
22 22 22 22 23 23 22 20 18 16 16 15 14 10 10 10 10 12 13 11 11 10 6 18 12 21 14 16 23 24 24 11 6 4 5 3 3 3 4 7 8 6 10 12 14 15 15 14 12 13 21 21 22 25
22 22 22 21 23 22 21 21 18 17 18 16 13 12 12 10 10 12 15 15 13 13 6 21 26 23 16 16 13 17 20 19 17 5 1 2 3 3 3 3 3 5 4 4 1 13 17 15 14 17 23 24 23 25
22 22 21 21 22 21 20 20 19 18 18 16 15 14 13 11 10 10 5 2 4 9 6 6 18 16 13 18 16 16 18 17 12 4 1 4 10 7 3 2 4 11 6 9 5 6 36 30 25 24 27 25 24 23
21 20 20 21 20 20 21 21 21 21 20 19 18 16 14 12 11 10 6 6 14 10 5 5 6 8 6 13 16 15 16 16 9 4 4 4 7 6 1 2 6 7 9 20 28 21 18 22 18 22 25 25 24 23
19 19 20 20 21 23 25 25 24 23 21 17 14 13 12 13 12 8 7 9 7 6 4 3 5 7 13 17 10 15 13 7 4 4 3 5 2 3 2 1 5 13 21 15 17 22 20 21 21 25 26 23 26 23
17 18 19 22 24 28 29 27 24 21 16 13 11 10 9 5 5 5 8 16 7 6 3 3 3 5 14 6 8 8 6 4 9 4 3 1 0 2 6 5 7 10 11 25 23 22 17 19 19 19 16 16 20 21
18 20 22 24 27 31 32 28 23 21 14 12 9 3 4 2 10 14 6 3 4 6 7 4 10 3 3 9 6 8 14 5 3 2 1 2 2 7 16 11 10 11 10 18 24 21 19 19 16 14 14 15 18 14
21 24 26 26 27 32 33 26 23 21 12 8 6 4 13 9 5 5 4 5 5 4 6 7 12 7 6 4 5 3 2 2 3 2 1 2 2 3 8 14 16 20 18 20 18 17 20 19 16 14 14 16 17 10
24 26 28 25 29 35 30 26 22 14 9 8 9 9 9 4 2 3 5 6 3 3 5 5 6 13 2 5 8 5 3 2 4 1 3 2 2 6 10 13 18 22 22 20 17 11 8 6 9 8 7 5 7 6
25 27 27 25 33 36 32 21 18 12 5 4 5 6 8 3 4 4 5 4 3 4 4 6 9 7 10 11 1 2 4 3 8 3 2 2 3 9 8 16 21 19 15 14 9 7 8 12 9 9 9 6 6 7
25 26 23 27 35 33 23 17 17 12 6 4 6 5 4 3 3 4 10 7 12 6 20 7 2 5 5 2 1 5 4 5 3 3 4 2 8 10 12 5 9 9 7 8 9 12 15 20 17 11 11 10 10 12
24 23 19 28 32 26 19 10 16 12 4 5 5 4 5 9 14 17 21 10 18 20 17 11 7 12 4 1 2 3 4 5 5 4 2 3 2 5 6 8 9 10 12 13 14 16 16 13 17 17 16 14 11 8
25 20 14 27 25 16 12 10 11 6 4 4 3 11 17 17 20 26 27 23 36 9 8 4 8 5 7 5 7 8 3 5 3 2 3 4 7 9 11 11 11 13 11 14 14 11 14 16 12 13 12 11 11 10
21 9 25 24 21 7 18 10 5 3 5 7 11 17 18 18 16 22 23 27 26 26 11 6 8 8 6 5 5 4 3 4 10 12 12 11 13 6 10 12 18 11 10 9 9 13 8 12 12 12 13 8 9 10
18 20 19 20 18 8 8 8 7 6 9 14 12 15 17 17 23 24 19 19 21 20 20 9 9 7 5 5 3 2 4 3 5 8 11 10 8 8 8 5 10 16 23 15 8 16 19 20 15 16 18 19 14 19
19 15 15 15 11 7 5 7 7 6 12 17 18 20 18 20 24 25 19 20 24 21 20 14 6 5 9 10 15 17 17 13 11 11 12 13 14 11 11 13 14 13 16 18 13 20 17 19 17 15 14 15 13 12
14 12 15 12 13 5 4 3 5 5 7 11 14 15 18 25 22 24 27 30 25 24 14 8 9 19 20 21 19 18 18 17 18 17 15 15 15 16 17 16 13 12 14 15 15 16 14 14 14 14 14 14 15 14
12 11 9 11 6 8 6 6 6 6 7 8 15 15 16 19 24 26 27 23 27 12 14 19 22 22 24 24 24 24 20 18 18 17 16 13 16 17 17 14 17 16 15 15 15 14 14 14 15 15 13 13 11 10
10 10 7 7 6 4 5 7 5 6 6 8 12 12 9 16 19 17 18 25 15 12 14 16 18 21 24 27 26 25 16 14 16 14 12 12 12 10 8 7 9 10 9 11 12 12 13 14 14 14 13 13 12 11
11 10 5 5 4 3 2 2 3 4 1 2 6 4 5 8 7 9 7 12 11 13 19 14 14 22 22 21 26 26 26 22 13 14 15 9 8 8 8 8 7 7 9 11 13 13 14 15 16 14 13 12 12 11
6 4 3 4 5 2 0 1 1 2 3 3 2 2 2 4 8 8 7 15 19 19 21 21 20 20 20 23 24 24 26 21 17 15 15 15 16 17 13 16 14 15 14 12 13 14 15 15 15 14 14 14 13 11
3 3 2 3 3 3 1 3 6 4 4 3 1 1 4 4 3 4 7 18 23 24 21 19 20 20 20 19 19 20 19 19 17 14 14 13 12 12 16 14 13 15 16 15 15 15 15 15 15 15 14 15 14 12
1 2 2 7 6 4 7 6 5 4 4 2 6 7 7 4 4 4 3 10 12 17 16 17 18 19 18 18 19 19 18 18 17 15 16 11 10 12 14 14 16 16 16 14 14 16 16 15 16 16 15 15 17 16
3 2 3 3 4 2 3 1 6 7 5 3 7 7 2 5 5 3 9 16 14 13 13 16 15 15 17 18 18 17 17 16 17 15 13 8 11 12 13 15 15 16 14 12 14 15 14 16 17 15 14 13 13 14
8 3 10 1 1 16 1 8 6 6 8 10 4 4 4 4 1 1 3 9 13 14 12 9 10 13 15 17 17 16 15 14 15 13 9 11 12 13 13 13 13 14 12 12 14 12 15 16 13 13 12 13 13 13
5 14 8 10 14 8 10 10 13 12 15 13 3 5 3 1 2 3 5 5 7 10 14 16 16 16 16 15 14 15 13 14 16 16 15 15 16 16 15 14 13 13 12 12 14 11 17 12 11 10 13 13 14 14
10 9 8 4 10 6 13 8 11 12 14 15 11 9 5 3 2 1 6 11 14 14 15 15 15 15 15 16 15 13 13 12 13 14 14 14 15 14 13 13 13 13 12 12 12 11 15 13 12 12 13 14 14 15
7 9 5 7 7 8 6 5 8 10 11 12 10 8 7 3 2 4 10 13 13 14 15 15 14 14 13 14 14 12 12 11 10 13 16 10 10 9 12 12 12 13 12 12 12 12 14 13 13 14 14 15 16 16
4 8 11 2 7 5 5 3 3 1 4 4 3 4 4 2 2 1 8 13 15 15 14 15 15 13 11 11 11 10 9 7 9 15 16 11 9 8 10 11 10 13 13 12 12 12 13 13 14 14 15 16 17 17
8 8 6 7 3 1 11 4 2 3 2 5 1 2 1 5 5 7 7 12 12 12 13 13 13 11 10 10 11 10 8 7 13 12 21 19 15 13 11 12 12 13 13 13 12 12 12 13 14 15 15 16 17 18

GFSWCAN_850_spd_009.txt.gz
Wind_Speed
23 24 24 24 25 25 25 24 22 20 19 18 16 14 16 14 11 10 13 12 15 13 26 28 30 25 22 18 5 9 8 6 4 4 5 4 5 6 5 9 10 4 9 7 4 4 3 8 8 6 3 11 15 17
23 23 24 24 25 26 25 23 22 20 19 21 18 17 14 12 12 14 17 10 12 19 24 33 28 33 32 30 27 4 7 2 5 4 4 3 2 2 0 3 2 3 7 4 8 5 3 14 10 1 14 20 19 19
23 23 24 24 25 26 24 23 22 21 20 20 20 16 14 13 12 12 16 16 15 18 26 22 21 18 21 26 23 24 18 15 8 8 3 2 4 2 3 3 6 6 7 5 8 8 3 8 11 21 19 19 17 19
22 24 24 24 25 24 23 23 22 22 21 20 18 16 15 15 13 14 16 14 15 10 6 14 16 28 20 22 25 32 31 24 11 12 5 1 3 5 1 3 1 1 7 4 6 5 9 25 17 29 30 24 24 27
24 24 23 25 25 25 25 25 24 23 22 22 20 18 16 16 16 16 16 15 17 13 4 19 38 8 15 16 20 29 29 24 15 3 1 2 4 3 3 3 3 2 3 2 2 11 8 6 25 27 31 27 28 30
23 23 23 23 24 26 27 29 28 26 25 24 21 20 17 15 14 13 6 1 6 6 7 4 17 16 18 13 15 20 21 16 18 5 2 2 5 3 3 2 2 10 18 7 3 21 27 27 32 29 34 31 30 30
22 23 24 26 27 29 31 33 32 28 25 23 20 17 15 13 13 7 6 5 13 12 5 5 5 9 21 13 12 10 13 17 12 3 1 2 4 11 3 3 6 16 6 16 13 24 25 28 21 24 30 31 34 33
22 24 26 28 30 32 33 34 32 28 25 22 18 17 16 15 15 11 8 8 3 6 5 3 4 7 15 8 5 13 12 11 4 1 2 1 4 4 3 6 12 11 11 14 17 21 26 13 27 25 25 26 32 32
23 27 29 31 32 32 36 36 33 29 25 16 15 13 10 5 3 7 10 12 13 7 3 3 3 3 8 5 2 6 4 1 1 2 2 4 0 2 5 15 10 18 11 25 19 23 23 18 15 5 13 20 27 28
24 27 31 33 32 34 37 37 33 29 17 13 10 4 4 8 13 16 5 2 2 4 5 4 7 4 5 2 1 5 5 3 3 4 6 1 1 10 18 4 8 16 19 18 19 17 15 14 10 13 17 18 24 17
25 27 30 33 29 35 37 35 32 27 15 11 7 4 12 13 6 1 2 3 2 2 6 8 9 6 6 3 3 5 1 5 1 1 1 2 3 6 16 8 8 12 18 14 16 16 14 13 14 16 12 12 15 17
26 27 29 31 28 34 35 30 27 21 11 11 14 12 10 5 3 2 3 3 3 3 5 5 5 3 5 9 4 4 2 3 2 1 3 3 3 8 12 13 16 14 15 11 8 5 3 4 7 9 12 13 14 13
25 26 28 29 27 33 32 23 19 19 14 8 7 5 5 5 4 5 3 4 3 4 7 10 3 5 7 9 3 1 2 3 2 3 3 3 2 8 11 15 12 10 7 12 16 11 10 6 10 16 12 16 14 15
26 25 26 24 27 31 22 15 17 17 8 4 5 8 4 4 3 6 8 5 14 13 24 13 4 2 1 2 1 3 4 2 4 4 4 2 9 9 8 5 14 14 10 7 14 25 17 21 18 19 18 17 18 18
26 24 23 18 28 21 14 11 15 14 5 4 5 3 5 16 22 23 27 19 18 16 16 7 5 2 2 3 5 6 5 5 5 3 1 3 5 2 5 7 5 9 12 23 25 22 20 21 25 27 25 16 12 15
25 21 13 24 21 8 10 10 11 7 5 6 3 9 20 18 18 27 27 27 33 29 12 13 6 5 7 4 6 7 4 5 3 3 11 17 19 23 19 17 18 19 21 24 23 19 19 21 21 18 14 18 14 12
20 11 20 19 14 4 13 16 7 3 3 5 12 20 13 17 20 27 23 29 25 31 10 5 7 8 3 5 5 4 3 4 10 13 11 12 10 12 14 28 11 19 26 23 20 21 23 25 28 27 25 23 18 16
20 15 14 15 10 9 12 12 8 6 7 6 6 17 24 30 26 27 29 32 24 23 14 8 7 7 5 5 4 3 5 5 10 16 15 18 19 15 15 18 20 22 28 24 18 27 26 28 28 23 22 19 19 19
14 14 12 13 13 8 5 7 6 6 11 18 21 23 23 27 31 32 31 32 32 26 24 9 7 6 5 8 14 22 25 22 15 12 12 15 23 18 18 21 20 22 22 24 24 27 25 23 26 26 21 17 21 18
11 11 13 14 14 7 4 4 8 5 7 11 15 19 21 24 25 31 34 32 24 24 17 7 7 15 19 26 25 21 15 16 18 24 26 24 22 17 19 22 21 19 21 23 23 21 22 24 22 26 21 18 18 16
14 10 11 10 8 8 4 6 5 4 6 6 11 13 11 19 23 27 28 23 27 20 13 18 23 27 27 31 31 24 19 20 21 19 17 17 16 14 13 13 11 19 22 22 24 24 23 22 18 21 19 16 20 14
10 7 8 7 5 3 3 3 3 6 3 1 5 5 5 8 11 16 17 20 17 16 20 23 24 21 28 31 30 31 29 11 16 23 20 15 25 24 14 11 18 16 19 22 22 22 22 20 15 17 18 13 13 13
9 7 5 3 2 2 2 2 3 3 2 2 2 2 4 5 8 11 8 18 20 24 25 24 23 24 23 23 28 25 29 24 21 20 24 20 18 19 24 25 25 28 26 24 19 20 20 16 14 17 20 17 14 17
4 2 1 2 3 3 4 4 4 4 3 2 1 2 3 3 5 5 6 15 19 22 24 25 24 23 21 19 20 23 23 24 24 18 17 19 20 22 16 15 16 21 22 17 16 17 18 15 13 11 22 19 11 14
3 3 3 5 4 2 2 2 2 4 4 3 5 4 5 2 2 3 3 12 19 20 21 22 20 19 17 18 20 20 19 18 21 22 15 12 14 16 18 20 17 18 20 16 18 17 18 16 16 14 17 18 16 13
4 6 6 11 14 8 2 3 4 3 5 5 5 7 4 2 3 4 3 10 13 16 19 20 18 17 15 20 19 18 18 16 14 23 14 13 15 17 18 18 17 18 17 14 16 16 15 17 15 14 14 14 15 13
3 6 6 6 6 6 3 6 6 11 6 5 4 4 3 4 4 4 7 8 12 15 15 14 13 16 17 19 18 17 14 14 11 19 11 12 13 14 16 16 14 14 11 12 12 13 15 13 13 13 13 14 15 14
10 7 4 5 6 4 8 13 8 7 8 12 5 5 3 3 2 4 4 9 11 12 14 16 13 16 17 18 16 14 13 12 11 8 8 18 19 16 13 13 13 13 14 14 11 10 14 11 12 12 14 14 14 13
8 12 11 5 5 9 7 5 10 7 10 9 3 3 3 2 1 5 7 12 15 13 14 17 16 15 15 15 16 16 12 13 15 18 19 16 18 17 14 13 13 13 11 13 13 11 14 13 10 11 12 13 13 13
9 9 8 8 6 3 5 6 7 7 9 11 10 9 6 4 2 4 10 14 16 17 16 15 15 13 13 14 14 13 12 12 13 14 14 10 12 11 12 12 12 13 11 12 12 11 12 10 12 12 13 13 15 15
3 8 3 5 2 8 11 9 8 7 7 8 6 6 5 2 1 1 8 11 12 12 13 14 15 12 11 11 11 10 8 9 12 20 17 7 7 7 9 10 10 12 10 13 12 12 12 11 12 12 12 13 14 14
5 7 8 2 6 8 7 8 9 6 6 2 4 3 2 0 1 2 4 9 9 10 11 12 13 11 10 8 9 9 6 7 16 16 22 14 8 7 10 10 9 11 10 12 10 10 10 10 11 12 13 13 14 15
5 5 4 6 2 9 8 6 3 2 3 7 2 7 3 3 2 2 3 9 6 6 9 10 10 9 10 10 9 7 5 9 11 12 16 17 14 13 9 12 12 12 11 10 10 10 11 11 12 13 12 13 14 14

GFSWCAN_850_spd_012.txt.gz
Wind_Speed
23 25 25 25 26 27 27 26 25 22 22 21 21 21 18 15 13 13 14 11 14 15 27 28 27 21 16 13 6 9 8 1 3 2 3 4 5 5 3 6 5 5 2 3 4 4 6 21 15 4 6 5 16 13
23 24 24 24 26 27 26 26 26 25 23 22 22 20 16 15 14 14 18 10 13 17 26 34 39 42 40 37 21 10 9 2 2 2 4 4 3 1 4 3 5 6 6 3 5 5 14 17 5 12 9 18 10 15
22 23 24 25 27 27 27 27 27 26 24 23 22 20 18 17 15 14 20 18 18 18 25 15 18 18 14 18 24 20 14 13 7 6 3 3 5 0 3 5 4 6 4 3 2 1 13 23 13 14 19 23 20 18
22 23 24 26 27 29 30 30 30 30 28 25 23 21 18 18 17 17 20 17 16 12 5 13 20 33 21 26 25 27 35 19 21 17 6 3 4 2 4 2 1 2 4 5 2 5 21 21 18 13 20 22 22 22
20 23 25 27 29 31 33 34 34 34 31 27 24 21 20 18 17 19 20 16 11 13 5 19 35 6 11 5 18 32 31 32 16 6 5 4 5 4 4 3 3 1 2 1 1 10 6 10 5 21 23 20 22 24
19 22 25 29 31 33 34 35 36 36 32 28 24 21 17 15 15 15 6 3 1 1 6 4 11 13 14 6 7 16 25 30 21 9 5 4 5 7 3 2 1 3 9 11 3 26 8 20 23 20 28 26 19 26
20 23 26 29 32 34 35 37 39 39 34 28 25 21 16 14 15 12 7 6 10 12 6 4 4 7 17 12 4 6 14 18 15 16 6 4 3 8 3 2 4 13 11 5 20 21 19 22 17 20 27 26 28 30
21 24 28 31 33 36 35 39 42 40 34 26 19 16 15 14 18 18 10 11 13 16 6 3 4 5 11 7 5 5 7 10 3 1 1 2 4 6 3 6 19 16 9 12 11 20 31 27 26 20 23 21 26 33
23 26 28 32 34 35 34 39 42 39 30 17 15 15 10 5 5 8 13 14 9 6 3 3 2 3 10 5 3 4 7 3 4 1 2 3 2 1 7 18 13 14 8 23 20 16 21 22 18 18 22 24 25 23
27 27 29 31 33 34 35 38 39 36 27 17 9 5 4 3 16 17 3 0 2 4 6 3 4 3 4 3 1 1 6 2 2 2 3 2 2 12 16 8 11 22 22 23 24 16 19 14 14 13 13 15 13 18
29 28 29 30 32 31 34 36 35 34 27 17 9 4 13 16 6 3 3 3 3 3 5 7 12 5 5 3 1 1 2 2 1 1 1 3 4 6 20 14 24 22 26 24 20 15 11 16 18 18 18 11 10 10
28 28 29 30 30 26 32 32 30 29 24 18 15 14 9 5 3 3 2 5 3 3 3 3 6 6 5 6 3 3 0 2 2 2 3 3 6 22 23 18 21 14 12 15 15 8 11 15 13 12 10 10 7 7
28 27 27 27 25 26 27 25 25 28 25 10 6 5 6 5 5 5 5 4 4 3 5 7 3 1 3 4 3 0 3 4 2 4 3 3 13 22 26 21 18 16 20 20 20 18 15 13 14 18 18 16 18 18
26 25 24 22 20 22 19 19 24 27 11 7 7 8 4 6 4 5 11 8 13 8 17 11 3 1 1 1 2 4 4 4 3 4 3 3 14 20 10 11 19 19 21 20 20 20 23 23 25 24 22 19 20 20
24 22 16 17 17 13 14 18 21 19 7 5 7 6 5 13 22 26 27 26 31 27 7 1 5 6 4 4 5 5 4 5 5 4 2 17 23 23 10 15 14 22 31 27 20 22 28 27 26 25 23 23 21 21
23 16 17 18 14 8 14 16 13 10 6 6 4 3 17 12 16 27 29 31 38 30 5 10 4 5 9 4 6 7 4 5 4 5 14 20 24 26 29 27 31 34 34 30 32 30 31 32 32 28 28 25 28 30
16 13 16 16 8 10 14 14 8 5 8 8 8 18 20 17 15 24 28 27 24 29 11 5 7 8 3 5 5 5 4 5 12 17 15 21 19 20 26 30 29 22 31 32 33 34 36 30 28 30 26 23 24 24
16 13 13 14 9 11 18 14 7 6 5 12 9 23 24 27 27 28 33 40 24 24 18 6 6 6 5 5 7 4 12 20 23 23 26 22 23 28 25 26 26 29 27 30 33 33 32 32 32 30 26 23 21 19
12 10 13 15 13 9 6 8 8 4 12 12 22 29 28 29 32 34 33 34 34 28 14 8 7 5 5 6 9 15 15 16 16 22 23 20 19 24 20 19 24 24 23 24 26 27 31 30 27 26 24 19 22 20
10 11 11 13 12 6 5 5 8 6 5 8 13 18 23 25 27 31 34 32 25 24 17 6 6 11 17 26 22 20 23 21 21 24 21 19 20 18 20 26 26 27 27 27 26 24 22 25 25 23 25 19 18 21
8 7 11 11 9 8 3 4 3 3 2 2 5 9 12 19 28 28 29 24 28 26 14 21 28 30 28 33 31 26 25 24 27 23 23 22 14 17 25 23 21 28 28 27 25 23 22 22 20 20 20 16 16 17
7 7 6 8 5 4 2 2 3 5 2 3 2 4 5 8 10 18 26 24 26 21 29 28 26 23 29 26 28 27 24 25 24 22 21 19 24 27 28 25 25 27 26 24 22 22 22 20 16 16 22 19 18 19
4 3 3 3 2 2 3 3 3 3 2 3 4 2 3 3 6 11 6 15 20 27 25 22 21 23 16 20 22 25 24 22 24 22 21 21 21 20 20 20 18 18 20 20 16 14 14 13 15 11 11 16 18 15
3 2 2 1 2 3 3 3 4 4 2 5 4 5 3 4 4 4 2 7 18 22 23 20 19 24 19 17 20 20 21 18 19 19 17 18 18 19 19 19 18 17 15 13 14 13 11 13 14 17 13 13 17 17
1 3 4 4 4 5 4 7 3 3 1 4 4 2 1 1 2 3 2 8 17 21 22 22 21 19 19 16 13 17 16 15 13 15 15 15 15 13 16 18 18 17 16 17 16 16 15 13 14 16 15 12 15 19
4 5 5 5 5 2 4 4 3 3 1 2 3 6 3 2 3 3 4 13 13 16 18 19 15 13 16 11 10 14 17 15 11 15 14 12 15 16 16 16 16 15 16 16 16 17 12 13 15 16 16 14 12 12
3 3 3 3 3 5 6 6 6 6 5 4 2 3 3 3 3 4 8 7 11 15 16 15 11 12 10 9 9 10 11 16 16 16 10 9 10 14 15 15 13 12 12 14 14 13 11 10 12 13 13 14 14 13
1 4 3 2 4 4 2 4 4 4 4 9 4 5 3 2 3 0 6 12 13 12 13 8 9 12 10 8 9 10 12 13 12 7 8 11 8 7 8 8 9 10 10 14 9 9 8 8 8 9 10 11 12 11
5 5 6 4 3 1 2 2 2 3 6 3 3 2 4 6 6 1 6 7 10 8 9 11 6 6 9 8 10 12 13 15 18 21 14 10 11 11 8 8 8 7 8 12 6 7 10 9 7 8 9 11 12 9
5 14 5 6 3 3 3 4 5 6 7 8 9 10 8 7 4 1 3 4 3 7 8 10 6 7 7 8 8 9 11 15 19 22 12 7 7 5 4 7 6 5 7 12 9 9 9 8 9 8 9 9 10 10
10 10 9 5 4 9 12 11 9 8 7 8 9 11 9 7 6 4 1 4 5 7 9 8 6 7 4 4 5 7 7 10 16 18 18 5 5 3 5 7 6 3 5 9 11 12 10 9 8 8 9 10 12 13
4 2 2 2 4 15 17 15 13 13 13 10 8 8 7 5 4 6 3 5 9 8 6 4 7 6 5 6 9 8 7 9 11 14 18 15 13 11 13 12 5 4 8 7 7 7 7 7 8 9 10 11 12 10
6 2 1 2 6 8 10 11 11 9 10 7 5 8 5 5 3 5 3 5 7 5 4 3 6 8 8 10 9 6 7 7 9 9 13 14 11 13 11 12 13 4 5 7 4 7 9 9 10 12 10 10 11 12

GFSWCAN_850_spd_015.txt.gz
Wind_Speed
19 20 21 23 24 25 26 27 27 27 27 26 23 21 18 15 13 14 16 12 14 12 26 28 28 22 16 11 5 6 10 1 3 2 2 3 4 6 5 6 5 9 10 6 8 8 8 16 12 9 10 24 5 16
18 19 21 22 24 26 27 28 30 31 31 30 27 23 20 17 15 14 19 12 14 18 26 32 36 41 36 37 22 11 9 6 3 1 1 2 3 4 5 4 4 6 7 8 6 6 2 8 12 24 20 14 18 11
18 19 21 22 25 27 29 30 31 30 31 31 29 25 19 19 17 15 21 19 18 18 27 19 18 13 12 16 21 13 12 12 9 12 3 2 5 4 3 5 5 6 5 8 3 6 3 15 22 24 23 16 10 10
18 20 22 24 26 28 31 33 33 32 33 33 30 26 21 16 17 17 22 22 18 11 6 12 13 24 23 17 22 30 29 13 14 11 6 3 3 5 3 4 3 6 6 13 5 5 2 14 14 23 15 11 15 17
20 22 24 27 29 31 33 35 35 35 37 36 31 25 22 19 15 18 22 25 22 15 5 15 34 1 5 8 13 24 29 29 21 6 4 3 5 4 4 2 4 8 7 7 7 6 3 8 8 10 14 17 17 24
23 25 27 29 32 34 35 37 37 39 39 35 30 23 19 16 13 14 7 5 7 10 6 4 12 7 5 10 13 17 30 25 17 9 3 7 12 5 3 3 4 8 13 11 3 12 18 23 11 9 23 23 25 26
25 28 31 32 34 35 36 38 39 43 38 35 29 19 13 9 10 12 8 7 10 9 4 5 5 7 14 10 2 7 16 13 14 7 7 10 7 2 3 4 8 17 19 11 20 19 16 27 21 13 22 27 31 31
28 30 31 33 35 36 36 37 40 41 38 36 23 18 15 13 13 17 14 15 16 12 6 3 4 6 8 6 2 4 10 9 4 5 2 2 2 3 5 10 20 24 17 20 29 10 32 37 26 23 23 28 33 32
30 31 32 32 33 35 35 35 40 38 41 33 20 14 4 1 4 9 17 10 10 8 3 3 2 3 8 4 3 2 3 2 4 3 2 1 2 5 9 17 28 23 9 14 22 23 29 38 22 21 24 27 31 27
31 32 32 32 32 33 32 33 37 37 40 27 11 5 3 7 18 13 2 2 4 4 5 3 3 3 4 3 2 2 1 2 2 3 3 2 3 22 20 13 17 4 26 25 22 14 22 27 25 24 25 22 25 26
30 31 30 30 30 30 27 32 33 37 38 24 13 5 14 12 6 3 4 4 3 2 4 6 11 4 5 3 1 2 1 0 2 1 2 2 3 6 12 2 14 26 25 22 20 18 20 26 24 21 19 18 20 21
30 29 27 27 26 24 26 26 29 33 30 19 13 12 8 4 2 2 3 3 2 3 4 4 6 9 4 5 2 1 1 3 3 2 2 5 6 25 22 27 33 26 27 28 23 23 21 20 19 16 13 11 16 19
28 27 25 23 19 21 20 22 27 29 22 10 8 7 7 6 5 5 5 3 4 3 5 9 3 2 3 1 2 2 2 4 3 3 2 3 14 19 19 26 35 36 27 25 25 21 18 16 15 19 19 18 17 19
25 24 19 16 17 14 15 23 27 26 10 7 9 7 5 5 5 4 12 8 21 18 19 10 4 4 5 3 3 5 5 4 5 5 5 5 21 32 33 33 38 34 32 31 28 26 29 31 28 27 26 24 23 24
24 17 16 16 11 13 16 19 19 20 8 6 7 6 5 13 19 25 21 20 30 26 10 2 5 7 4 4 4 4 5 5 6 5 5 18 27 35 38 37 33 35 35 38 38 38 34 39 37 35 32 31 25 20
21 15 18 14 11 12 14 14 15 12 6 6 10 7 19 11 20 30 35 28 38 32 5 9 4 5 7 4 7 8 4 4 4 4 17 22 23 29 34 29 40 39 38 39 38 36 35 33 35 35 33 31 30 27
16 13 15 10 11 16 13 15 10 11 9 8 8 22 20 19 15 22 29 29 25 27 7 5 7 7 3 5 5 4 5 7 14 20 29 30 33 32 38 37 35 34 39 37 36 36 34 30 26 28 27 25 27 29
12 11 14 10 8 16 20 20 9 9 8 10 9 23 26 27 27 29 30 37 21 21 13 5 7 7 5 5 5 6 15 25 25 32 29 24 26 28 26 27 29 34 33 30 29 28 28 28 27 25 21 20 20 19
11 9 9 9 9 7 6 10 8 5 8 11 22 29 27 28 33 34 34 36 36 28 14 7 6 4 4 6 8 18 20 10 11 20 22 25 28 27 28 29 29 28 28 28 29 30 27 26 24 23 21 17 20 20
7 10 10 11 8 4 3 5 5 4 3 7 11 17 27 27 27 29 32 32 26 25 17 5 7 14 12 20 26 23 18 14 14 20 24 24 21 19 24 23 24 24 24 24 23 22 22 22 22 22 20 19 18 19
3 3 6 8 7 7 4 3 3 3 2 1 3 6 9 19 27 27 28 26 21 16 11 17 22 23 26 25 26 23 20 20 22 20 20 23 22 25 23 22 23 25 26 25 24 25 26 23 18 17 17 17 16 15
2 1 2 5 5 4 1 3 1 1 3 4 5 4 3 6 7 8 14 16 13 12 21 25 16 20 24 26 25 21 18 17 18 19 18 17 19 19 21 22 21 23 22 21 19 18 17 15 13 10 8 12 12 14
2 1 2 3 3 3 2 4 1 3 5 4 8 4 3 5 6 6 5 8 9 19 22 23 13 15 15 16 17 17 14 12 12 12 12 13 13 13 12 11 11 13 15 18 17 17 15 10 8 10 9 10 10 13
3 2 2 3 4 3 5 2 1 3 5 3 1 2 2 1 5 3 2 5 14 19 21 21 10 9 11 13 14 14 11 10 9 9 8 9 13 14 13 14 15 17 17 16 15 14 12 13 11 12 13 13 14 13
2 4 3 5 4 4 4 7 5 4 2 2 2 1 2 2 2 3 1 9 12 19 19 15 10 6 9 13 11 9 6 5 6 7 7 6 7 8 10 11 12 15 16 16 15 12 14 13 14 15 16 15 14 13
3 3 1 2 2 1 2 3 3 3 0 2 2 3 1 3 3 2 2 9 10 13 17 14 4 2 4 8 11 10 7 5 6 6 8 5 5 6 8 9 9 10 12 12 12 9 11 11 12 11 11 12 12 11
2 1 0 1 2 3 3 2 1 4 3 3 2 2 2 2 1 3 4 9 14 15 7 1 7 5 3 4 6 7 8 7 7 5 4 5 7 8 7 7 8 7 7 6 6 6 5 5 8 8 9 10 11 10
1 2 2 2 2 2 1 2 2 1 1 2 2 2 3 6 5 3 3 6 5 5 2 4 3 3 1 2 3 4 5 8 10 8 5 2 3 4 5 5 5 6 6 4 3 4 3 3 5 6 8 9 7 7
3 4 5 2 2 3 3 3 3 1 1 2 4 3 4 5 8 5 2 4 2 7 9 5 2 4 4 3 4 6 8 11 16 16 3 3 4 5 5 5 6 7 6 3 5 6 6 6 5 4 5 6 7 9
6 11 5 4 4 4 6 6 10 7 5 5 5 6 5 8 9 6 6 6 6 8 7 4 5 6 8 7 8 8 9 11 17 17 9 3 4 6 9 9 7 5 3 3 8 6 2 3 4 5 7 10 11 11
5 11 6 6 6 8 11 12 12 10 8 8 7 5 7 7 9 8 8 7 5 6 7 9 8 10 8 7 8 9 6 7 13 17 14 9 7 9 11 8 5 4 3 3 4 3 5 4 8 10 10 10 9 9
8 6 6 4 2 6 14 13 10 10 9 10 10 10 8 7 7 9 10 5 8 10 9 7 7 8 6 6 9 5 3 5 8 11 13 10 11 11 12 11 5 5 5 5 4 4 7 9 10 10 9 8 9 10
2 1 1 5 6 7 8 9 8 5 9 11 11 17 14 8 5 8 9 8 10 12 7 5 6 7 7 9 10 2 3 2 5 7 8 8 8 10 8 8 10 9 7 5 5 6 8 9 9 11 13 14 13 12

GFSWCAN_850_spd_021.txt.gz
Wind_Speed
22 23 24 24 25 27 28 30 32 35 34 34 33 30 27 23 18 15 21 18 14 12 22 23 21 19 19 12 5 6 9 3 2 4 3 3 3 2 5 9 6 7 6 7 12 11 19 13 12 9 5 9 15 19
23 24 26 27 28 29 31 33 35 36 35 35 34 30 29 26 20 17 21 20 17 19 25 30 34 32 30 29 20 9 6 2 2 2 2 1 3 3 4 5 5 9 11 4 9 9 14 18 18 19 12 16 19 20
24 26 27 28 31 32 33 36 36 37 36 35 32 32 32 24 19 17 21 18 16 18 24 17 13 11 11 13 24 14 10 13 9 7 3 3 6 2 4 6 10 7 9 8 10 15 20 26 25 22 17 17 20 18
27 29 31 31 33 35 35 35 35 36 36 35 33 36 32 22 16 16 18 20 17 9 5 8 9 18 16 13 17 28 23 7 8 13 8 3 3 8 4 8 8 8 8 8 12 16 23 27 24 21 18 18 15 11
29 30 32 33 33 35 37 36 35 35 35 32 37 37 28 16 12 14 17 19 20 15 4 15 30 2 10 7 17 19 24 25 10 5 4 3 4 4 6 8 10 14 11 7 9 8 13 21 17 17 18 16 9 5
31 32 32 33 33 34 37 36 34 34 33 34 36 35 20 9 7 8 4 2 1 11 4 3 7 7 5 3 8 18 23 20 15 7 6 7 19 6 4 5 8 17 22 23 18 16 24 26 24 24 19 11 8 6
31 31 32 32 32 34 34 33 31 32 32 35 37 25 13 5 4 4 4 7 7 4 3 4 5 4 9 6 5 11 16 10 12 5 7 10 16 11 3 13 21 25 23 26 25 21 25 25 21 15 17 14 14 8
32 32 33 32 32 32 31 29 29 31 34 36 26 14 6 5 4 4 9 13 15 7 3 3 4 6 3 3 3 9 10 12 11 6 6 5 6 7 7 15 22 22 25 27 27 27 31 25 21 22 16 16 16 13
31 32 32 30 29 29 26 26 29 33 34 25 13 6 4 6 5 9 6 3 10 4 2 2 2 3 7 4 5 6 8 3 6 4 3 4 2 5 13 17 23 24 18 17 15 14 18 23 17 16 18 24 21 18
30 31 30 28 25 23 24 26 31 33 28 14 8 4 5 9 7 3 4 2 4 2 3 3 3 3 4 3 3 2 1 2 2 2 6 3 4 25 37 43 42 39 32 25 19 16 12 8 16 17 16 19 25 21
30 28 28 24 22 21 23 28 30 34 18 10 6 4 8 5 3 3 2 2 2 3 4 5 6 3 4 2 2 4 1 2 2 2 2 3 3 19 37 29 26 12 9 10 16 20 22 8 18 19 17 22 18 21
28 26 22 21 19 21 24 27 29 29 16 11 10 7 9 8 6 5 4 3 1 3 5 4 7 6 5 5 2 1 1 1 4 8 4 6 10 36 38 50 50 49 44 31 23 23 23 10 24 24 21 23 24 27
25 21 17 18 20 21 22 24 27 25 16 10 8 5 8 10 7 6 8 4 6 11 6 20 7 6 5 4 3 2 6 5 7 5 4 6 27 42 44 48 51 53 51 48 41 33 31 33 35 34 33 30 28 34
21 14 15 17 18 18 20 21 24 22 10 7 7 8 6 5 5 3 8 7 12 15 24 18 6 5 5 5 4 7 6 4 6 6 6 11 35 36 39 45 49 46 45 48 44 43 44 45 41 35 28 30 32 37
16 10 12 14 17 16 14 14 18 20 8 8 9 6 5 9 12 14 16 11 14 17 13 6 2 4 5 4 4 4 7 6 6 5 6 23 26 32 36 37 38 40 42 41 39 38 40 42 36 31 29 31 31 33
12 7 10 12 15 14 11 12 15 11 8 8 9 6 14 9 18 24 24 22 27 15 4 7 6 6 8 4 7 7 4 7 4 4 14 21 25 28 29 31 32 31 32 33 34 37 36 33 33 32 32 33 33 33
12 9 7 8 11 16 13 11 9 10 8 5 5 13 10 9 11 18 21 27 23 19 5 5 7 6 4 5 6 5 5 4 8 14 14 16 21 24 28 30 32 33 33 32 31 31 32 30 30 31 32 30 29 29
13 11 9 6 7 9 13 15 6 7 5 4 5 10 12 18 17 17 23 31 17 10 9 6 6 6 5 5 4 5 5 7 9 12 15 18 22 25 27 27 26 27 28 28 28 26 26 26 27 25 25 26 27 27
10 10 11 9 7 7 4 5 5 4 3 3 6 10 13 13 23 22 23 21 23 19 6 5 5 4 3 4 6 11 8 7 7 11 16 20 22 24 26 26 26 24 23 22 21 21 20 19 19 18 17 17 20 20
8 8 9 12 11 4 3 3 3 3 3 3 1 4 4 9 18 19 22 21 16 11 11 5 4 4 2 5 10 14 16 13 7 7 10 11 13 16 18 19 19 16 16 15 14 12 12 12 14 14 13 13 15 18
8 6 7 9 5 6 3 2 2 2 2 2 3 3 3 5 7 15 18 16 13 6 6 5 4 7 9 9 10 13 15 16 12 8 7 8 13 14 15 18 19 17 17 15 13 13 11 10 9 11 13 15 17 18
8 5 4 4 2 3 3 4 2 1 1 1 1 4 2 2 4 5 8 12 7 6 4 5 6 7 6 8 10 12 12 11 10 9 10 9 9 10 13 14 15 16 17 17 15 13 11 8 8 11 13 14 14 14
4 2 2 3 2 3 1 3 1 1 1 2 2 2 2 2 4 4 3 4 4 10 9 7 7 6 5 6 8 10 12 12 9 10 9 8 9 8 9 11 12 12 13 13 12 10 9 9 10 11 11 11 11 12
3 2 2 2 4 2 2 2 2 1 1 1 1 1 1 2 3 3 1 2 4 8 13 15 14 8 6 8 8 8 10 10 10 12 14 8 6 7 8 8 10 12 14 11 10 10 9 9 9 9 9 9 10 10
1 3 3 3 3 3 3 2 2 0 1 0 1 1 1 2 1 1 1 2 4 9 13 13 15 13 8 7 6 6 7 10 12 12 14 10 7 7 6 4 5 7 7 6 7 7 7 8 7 7 7 6 6 7
3 2 2 2 2 2 2 2 2 2 1 1 1 0 1 1 1 2 1 2 4 9 10 12 12 11 9 7 5 5 7 9 11 12 13 12 10 8 6 5 7 7 7 5 3 3 3 4 5 6 7 6 4 5
1 1 1 1 1 1 1 2 2 3 2 2 1 2 1 1 2 2 2 2 3 5 8 9 10 9 8 8 7 6 8 10 13 13 10 6 5 4 4 4 6 7 8 5 4 3 2 3 5 7 7 6 5 6
2 4 2 3 2 3 2 2 2 2 2 3 3 3 2 3 3 5 7 4 1 4 6 6 7 9 8 8 7 6 8 11 13 13 6 3 4 4 4 5 5 5 5 3 3 3 4 5 5 4 5 5 6 7
3 4 5 3 3 4 5 5 4 4 5 7 3 3 3 4 5 6 8 7 6 6 6 5 6 10 8 8 7 8 9 9 11 12 9 6 7 8 11 8 5 3 3 2 6 7 5 4 3 3 5 5 5 5
3 7 3 3 3 4 4 8 6 8 9 9 5 4 5 6 8 8 7 9 9 7 6 4 6 7 8 8 7 8 8 6 10 9 7 7 7 11 12 11 11 5 2 1 3 2 3 3 6 6 5 5 5 4
3 4 4 5 5 5 7 9 11 10 10 8 10 9 9 7 10 9 9 11 13 9 5 4 5 5 7 8 8 7 5 4 5 9 8 8 9 10 11 12 10 8 6 3 2 2 4 6 6 5 5 6 6 6
4 6 3 3 3 6 5 3 3 4 4 7 8 10 9 6 4 3 3 6 9 7 3 4 3 4 8 8 9 10 6 4 3 5 7 8 9 11 13 12 11 9 7 5 4 4 5 4 4 5 6 7 8 8
4 5 5 3 2 2 4 4 3 2 3 3 3 4 5 4 2 2 3 2 4 4 3 2 1 5 7 8 10 10 6 4 5 5 7 9 11 12 12 13 11 9 7 5 5 5 6 6 6 7 8 8 9 10

GFSWCAN_850_spd_024.txt.gz
Wind_Speed
23 24 25 26 27 28 30 31 32 33 32 31 31 29 27 24 22 17 22 17 18 10 23 23 18 16 16 15 9 6 8 2 4 4 4 3 6 3 6 10 6 10 12 12 13 16 21 7 9 12 11 12 13 13
25 26 28 29 30 32 34 34 32 33 32 31 31 29 25 28 21 16 20 19 17 22 16 25 26 27 26 23 21 7 10 5 3 3 2 3 4 4 6 9 9 13 12 11 9 11 13 7 12 14 19 19 18 22
27 29 30 31 32 32 35 35 33 32 31 31 30 29 29 26 18 13 17 18 19 19 23 16 8 8 16 20 20 16 11 14 13 12 3 3 5 5 6 8 12 14 15 13 17 21 22 19 24 22 17 23 22 23
28 30 30 32 33 33 34 34 30 31 30 29 28 30 31 22 14 11 13 15 15 6 5 7 7 10 13 13 19 24 21 7 9 5 6 4 4 5 8 11 11 10 7 12 19 21 24 25 25 25 24 20 20 22
28 30 32 33 33 33 32 31 30 29 28 27 30 33 28 14 9 6 10 11 12 11 4 13 26 4 6 11 18 20 23 24 9 5 5 3 5 6 13 11 15 21 21 15 15 16 20 24 22 14 18 19 20 21
29 31 33 33 32 31 30 30 28 27 27 32 34 29 12 5 4 1 1 2 3 1 4 3 6 5 4 4 11 17 20 21 20 7 7 8 19 7 4 7 17 25 24 29 23 24 18 20 20 23 24 25 24 22
30 31 32 31 30 28 27 25 23 26 31 33 28 13 6 9 6 1 1 6 6 4 3 4 4 2 6 8 7 12 15 13 11 6 6 10 16 9 4 15 27 27 25 22 23 23 25 28 26 22 21 22 21 22
30 31 31 29 27 25 23 23 26 29 30 25 14 6 7 10 6 5 6 5 2 4 2 2 3 5 3 5 3 8 4 10 6 5 5 5 6 8 7 21 33 29 30 34 33 31 32 30 26 25 21 19 17 20
30 30 28 26 23 22 22 26 28 27 27 13 8 4 6 6 4 5 3 5 2 2 2 1 2 3 6 4 4 5 5 2 4 3 3 5 1 5 15 27 34 31 22 21 23 29 29 26 26 24 22 18 18 17
29 28 25 21 21 21 25 27 26 27 17 9 6 3 3 4 4 1 5 3 2 2 2 2 3 3 4 2 3 2 3 2 2 1 7 2 3 19 36 36 22 23 39 28 22 20 17 16 19 19 16 19 15 18
28 24 19 18 20 23 25 25 26 23 10 6 2 3 4 5 4 2 3 3 3 3 3 4 6 4 3 2 2 3 1 2 3 2 3 4 9 27 49 46 45 17 11 20 19 14 10 9 8 11 7 12 19 17
24 18 16 19 20 22 24 27 26 18 9 12 4 6 8 6 5 5 5 6 4 5 7 6 7 6 6 3 3 1 2 1 5 10 5 7 11 42 50 48 47 48 38 26 22 21 28 28 25 25 28 28 28 29
19 12 15 18 20 22 25 26 27 15 9 13 9 5 7 9 8 6 6 4 7 11 9 19 10 7 4 4 4 3 6 5 3 6 4 6 30 40 46 51 50 52 52 48 44 39 47 39 40 39 39 36 34 32
15 10 14 17 20 20 21 23 28 17 13 5 6 7 6 5 4 3 7 11 14 15 24 19 9 5 5 4 4 5 5 5 6 6 6 9 32 36 37 40 46 47 45 43 42 45 43 39 38 41 39 37 35 35
11 8 12 16 17 15 14 19 19 18 8 7 7 6 6 9 9 12 14 14 16 16 11 9 6 14 7 4 5 6 5 5 6 5 6 22 26 29 32 34 36 36 39 40 39 37 36 32 32 32 30 30 32 32
12 6 10 10 15 18 14 13 11 11 7 7 9 8 13 11 18 21 23 22 22 16 2 5 6 6 8 5 7 7 5 5 4 7 17 19 22 25 27 31 30 32 31 29 30 30 29 28 30 31 30 28 29 31
12 10 10 7 8 14 19 7 7 8 7 5 7 13 15 14 16 20 22 24 18 20 5 5 6 5 5 5 5 4 3 3 10 12 13 16 18 21 23 25 26 26 26 27 25 23 22 21 22 25 25 22 23 24
10 12 13 10 8 7 15 11 5 6 4 3 7 11 13 15 18 19 20 22 14 14 16 7 7 6 3 4 5 7 10 7 5 7 10 12 15 19 19 21 21 21 22 21 20 19 20 20 20 18 17 17 17 19
7 7 10 14 10 5 3 5 5 3 4 3 3 7 10 14 16 16 16 16 15 13 6 6 5 5 5 6 11 14 14 13 10 5 5 10 15 17 17 18 19 20 20 19 19 17 16 16 15 13 13 13 16 16
9 6 7 10 10 3 2 3 3 2 2 3 2 4 6 9 13 15 17 17 17 14 8 5 8 8 9 9 10 11 13 12 11 8 7 10 13 12 15 17 17 16 15 14 13 13 11 11 13 14 14 13 13 14
7 6 6 6 3 3 2 1 2 2 1 2 4 3 3 4 8 11 13 14 15 14 10 8 7 6 4 5 7 9 10 11 10 9 10 12 12 12 14 15 14 14 15 14 13 12 11 10 10 10 10 12 12 12
6 4 2 3 2 2 2 2 1 0 1 3 2 2 2 3 5 6 6 8 9 9 8 7 7 7 5 5 6 7 9 8 7 7 10 10 11 11 12 14 15 14 13 13 11 10 9 9 9 9 9 10 11 11
3 2 2 3 1 1 1 1 1 1 2 2 2 1 1 2 3 1 2 4 3 5 6 8 8 5 3 4 3 5 7 9 9 10 11 10 7 7 8 9 11 11 11 11 10 9 8 9 8 7 8 8 8 9
2 2 1 2 3 1 0 1 1 1 2 2 2 1 1 3 2 1 2 3 3 4 6 8 9 7 3 2 5 6 7 10 11 11 11 10 9 7 7 7 7 8 7 7 7 7 6 6 7 7 7 7 7 7
1 2 2 2 1 2 2 2 2 2 2 2 2 1 1 1 2 0 2 2 2 4 5 7 8 7 7 7 6 6 6 9 12 12 11 11 9 8 6 5 5 6 6 6 5 5 5 6 6 7 7 7 7 7
2 0 1 1 1 2 2 3 2 3 3 2 1 0 2 2 2 1 0 1 1 1 3 6 8 9 8 6 7 7 7 9 10 11 10 8 7 7 6 6 6 4 8 7 6 5 5 5 6 7 7 6 7 6
1 2 2 3 2 2 3 3 4 4 3 2 1 2 2 3 3 3 5 5 3 2 3 1 3 7 7 5 4 4 5 7 8 7 6 5 5 6 6 7 7 7 7 6 5 5 5 6 7 7 6 5 6 6
3 3 4 3 4 5 4 4 3 3 3 2 2 3 2 2 3 2 2 2 4 4 3 3 0 2 4 3 3 4 5 7 7 9 7 4 6 7 8 6 7 7 4 3 3 5 6 7 6 5 6 6 7 6
3 3 4 6 6 5 4 4 3 3 3 4 4 3 3 3 2 1 2 1 1 5 3 4 2 1 2 3 3 4 5 6 7 8 7 6 6 8 9 8 7 4 3 4 7 5 4 4 5 6 6 6 6 5
2 5 4 3 3 3 3 4 7 6 5 6 5 4 4 4 2 4 3 3 10 6 5 4 3 1 4 6 6 5 5 4 5 6 6 6 6 7 8 8 8 7 5 3 4 5 7 7 8 7 7 6 6 5
2 3 4 5 5 6 5 5 6 5 5 5 7 8 7 4 3 3 5 7 7 3 2 2 1 2 4 6 7 7 5 3 1 3 4 4 6 7 7 7 8 7 5 4 4 4 6 6 5 5 5 6 7 8
4 4 4 4 6 4 4 3 4 4 3 3 4 3 2 2 1 1 2 3 2 1 2 1 2 2 4 6 6 7 4 1 2 1 3 5 6 8 8 8 7 6 5 4 4 3 4 4 4 5 6 6 7 9
4 5 5 6 4 3 3 3 3 3 3 3 1 1 1 2 3 0 3 2 2 1 1 0 1 2 3 5 6 7 5 1 4 5 5 7 9 9 8 7 7 6 5 5 5 5 5 5 6 6 6 7 7 8

GFSWCAN_850_spd_027.txt.gz
Wind_Speed
25 26 28 30 30 31 32 32 30 30 31 29 29 29 26 24 18 18 21 17 18 12 27 30 25 22 17 14 9 11 11 5 6 3 5 3 7 2 9 12 8 12 15 13 14 16 17 5 7 5 8 11 16 13
25 28 29 30 31 31 31 32 31 30 30 28 28 27 25 21 20 16 20 17 17 21 15 19 24 29 28 21 16 9 13 16 5 4 3 5 9 4 9 9 9 9 9 10 13 15 4 11 14 5 4 9 9 12
26 27 29 31 32 33 33 32 31 29 28 27 27 26 24 25 17 14 17 16 17 17 22 23 8 8 11 16 16 11 10 13 15 14 8 5 5 10 6 11 12 12 16 12 14 17 14 18 14 12 13 15 14 16
25 28 30 32 33 33 32 31 28 27 26 26 25 27 28 20 15 10 13 12 12 4 4 8 7 8 6 9 14 18 20 11 9 8 9 5 5 11 10 11 14 13 13 15 19 19 23 25 22 20 24 20 22 20
26 28 31 33 33 32 30 27 24 23 24 26 29 27 15 8 6 1 7 8 8 9 4 11 18 6 3 7 17 15 18 18 15 4 4 7 10 10 13 14 16 20 18 14 14 17 17 22 26 27 26 23 22 21
27 29 31 33 32 29 25 22 22 24 28 29 26 10 4 6 4 1 1 3 4 2 4 3 8 4 6 2 3 8 15 18 18 6 7 9 19 8 5 10 20 24 26 29 24 32 32 26 22 21 28 19 22 25
28 30 32 31 28 23 21 21 24 27 27 26 11 5 8 6 5 2 3 5 8 4 3 4 6 4 7 8 6 8 11 7 5 3 4 4 4 5 4 14 34 35 38 36 27 18 27 28 19 23 21 20 24 29
28 30 30 27 21 20 21 25 25 26 26 13 5 7 8 7 6 6 6 5 1 0 2 2 3 6 7 5 0 4 2 4 4 4 4 4 4 7 5 19 38 44 41 40 35 31 30 25 25 24 24 25 22 22
28 28 25 19 19 22 24 25 25 25 14 8 6 6 3 5 3 4 4 7 4 2 1 1 3 3 8 4 3 2 2 2 3 2 2 3 1 3 16 39 51 53 46 40 31 25 19 24 26 31 30 30 26 26
27 24 17 17 21 23 23 24 25 18 11 10 7 1 3 5 8 3 4 3 5 3 2 2 2 3 3 2 3 1 4 1 2 2 2 2 3 19 40 43 28 21 9 21 20 14 15 18 24 26 28 27 23 23
24 16 13 18 21 21 21 25 23 10 11 8 4 6 2 8 5 2 2 6 5 2 2 4 5 3 3 2 2 1 0 0 3 4 5 5 10 28 51 49 46 25 11 7 12 15 16 21 21 23 20 18 16 10
19 11 14 18 20 19 22 24 20 8 4 6 4 1 1 5 4 4 6 6 5 5 11 11 11 3 3 3 4 5 2 3 6 4 6 7 13 45 46 47 52 51 42 34 11 6 14 27 23 26 23 32 30 28
14 9 13 17 16 17 22 26 21 9 2 9 5 4 5 6 7 5 5 4 6 11 12 24 8 4 1 3 5 4 7 5 3 5 4 7 29 39 42 40 45 45 44 48 46 43 45 39 39 43 36 43 42 36
13 8 11 14 16 19 20 21 18 16 10 4 5 6 5 5 5 3 6 9 14 13 19 18 16 1 4 3 5 5 5 5 7 6 5 11 30 32 34 36 38 39 46 43 41 42 46 45 43 38 38 44 47 44
13 8 10 10 13 20 16 13 16 14 7 5 6 4 4 6 6 11 14 17 20 18 13 9 8 11 6 4 5 6 5 5 6 6 7 21 24 26 30 32 34 35 35 34 35 37 39 39 39 38 37 38 37 34
13 8 11 11 12 18 19 7 10 6 6 5 6 9 11 14 15 17 17 20 22 23 6 8 5 5 6 4 6 6 2 2 2 7 14 18 22 24 26 27 29 28 29 29 30 29 28 30 30 31 33 33 32 31
12 7 13 12 11 9 16 8 6 7 5 4 8 11 13 15 15 18 19 21 17 19 7 5 5 4 3 4 4 2 2 2 5 4 8 13 19 23 24 23 24 24 25 24 23 23 22 21 23 26 26 26 26 27
9 9 12 16 11 5 8 10 6 4 4 5 8 10 13 15 16 17 18 18 17 13 13 7 9 9 4 4 4 6 9 4 2 3 4 8 14 17 19 21 21 21 20 20 19 18 18 18 18 18 17 17 18 19
11 9 8 13 12 6 4 5 4 3 5 4 4 8 11 13 15 15 17 17 12 12 10 8 5 4 5 5 7 11 13 15 12 3 5 5 9 13 16 18 18 19 19 18 18 15 14 16 16 15 14 14 16 15
11 9 7 8 7 3 2 3 2 1 5 5 3 6 8 8 11 12 14 16 14 15 11 6 7 9 11 10 10 12 12 13 14 14 11 12 14 13 15 16 17 16 15 14 12 14 12 11 13 13 13 13 13 13
9 6 4 4 2 3 3 3 2 4 4 4 6 5 3 5 7 10 9 11 10 10 9 9 10 9 6 7 8 10 11 12 11 11 11 15 13 13 13 14 14 13 13 14 13 12 12 11 11 10 10 11 11 12
5 3 1 2 1 1 1 3 5 4 4 4 3 5 5 6 7 8 6 5 5 7 8 9 11 9 8 6 9 9 10 12 9 10 9 13 12 11 12 11 12 13 12 11 10 10 10 9 8 9 9 10 10 10
1 1 1 1 2 1 1 2 3 3 3 6 4 3 4 4 4 5 1 4 3 4 5 8 9 5 5 5 7 5 8 11 12 12 11 12 12 7 9 10 10 10 10 10 9 9 8 8 10 10 9 9 9 9
1 1 2 1 2 2 2 2 2 3 2 3 2 4 4 6 4 2 2 2 3 3 4 6 7 8 5 4 8 8 8 11 12 12 10 11 12 10 9 7 7 8 8 7 7 8 8 9 9 9 9 9 9 8
2 0 2 3 3 3 2 3 2 3 3 3 2 3 2 1 3 2 3 1 0 2 3 4 7 8 7 8 10 8 6 11 12 12 10 11 10 9 8 6 6 4 7 8 8 7 7 8 9 10 9 10 9 8
1 2 2 1 0 3 4 4 3 4 5 4 2 3 3 5 3 3 1 3 2 3 4 4 5 8 9 8 9 10 10 9 10 10 9 9 8 8 8 8 7 6 8 8 8 7 7 6 7 8 8 7 10 9
2 2 3 2 4 4 6 4 2 5 3 3 5 2 3 3 3 4 2 3 3 4 5 7 6 8 8 9 9 7 7 7 7 8 6 6 6 7 7 7 8 8 5 7 6 7 7 8 8 7 6 6 7 8
4 2 6 3 5 8 4 8 4 3 2 2 6 3 3 1 3 5 6 1 3 7 9 6 11 4 5 5 8 7 8 8 5 8 6 2 5 7 9 7 7 8 1 3 4 7 7 7 6 6 7 7 7 6
6 6 3 8 9 7 5 5 3 4 5 9 6 5 7 6 6 4 2 3 5 7 3 5 1 3 5 7 5 6 8 8 7 6 5 5 6 8 8 8 8 7 5 1 4 4 6 3 6 4 5 6 5 4
6 2 6 11 7 7 3 8 11 15 11 8 8 7 8 5 2 2 1 3 2 4 3 3 3 4 6 9 9 9 8 4 5 6 7 6 6 6 7 7 7 7 6 4 4 4 7 7 6 5 5 5 5 5
3 6 7 10 11 11 7 12 12 7 6 7 6 5 7 4 4 4 0 2 3 4 3 3 5 5 7 10 10 10 8 3 2 2 4 3 5 6 7 7 7 7 6 5 5 5 6 5 4 4 4 5 6 8
7 9 9 9 11 9 8 7 10 11 6 5 7 2 3 2 3 2 3 4 5 3 3 5 7 7 6 7 7 6 7 3 3 1 1 3 6 7 8 7 7 6 6 5 4 4 5 5 5 5 6 6 6 8
4 7 6 7 9 6 7 8 9 6 8 3 4 5 5 7 6 3 4 5 4 7 6 4 4 4 5 6 7 7 6 3 6 9 9 10 10 9 6 7 7 7 5 5 5 5 5 6 6 6 6 7 7 7

GFSWCAN_850_spd_030.txt.gz
Wind_Speed
22 24 27 28 29 30 31 32 31 30 29 27 27 26 24 21 18 14 21 17 20 11 24 28 23 22 19 13 7 15 10 6 3 4 4 6 6 7 7 4 7 11 11 10 11 9 2 25 12 8 9 17 21 22
22 24 26 28 30 32 32 32 31 29 27 26 26 26 24 22 17 16 20 17 12 23 17 22 26 26 28 25 24 9 11 16 4 4 5 5 12 7 13 7 9 6 4 7 12 11 5 13 8 8 12 13 15 17
21 24 27 30 32 32 32 31 29 26 25 24 25 25 25 21 15 13 15 15 11 18 22 21 15 15 10 15 11 7 8 7 7 10 8 6 7 9 6 9 15 10 18 8 9 16 11 11 13 11 11 10 13 11
22 25 28 31 32 31 30 26 24 23 23 26 28 27 21 14 11 8 9 10 8 3 3 7 10 13 7 3 7 13 14 14 11 10 10 3 4 13 11 16 13 12 14 12 15 15 19 18 17 16 16 16 17 13
24 27 30 31 31 28 24 22 22 24 27 28 25 17 10 11 5 5 3 6 4 4 3 10 12 13 11 6 12 12 12 10 10 7 5 6 10 9 10 12 14 16 14 11 13 21 19 20 21 19 22 20 19 19
25 28 30 30 28 22 20 21 25 28 27 25 15 7 12 9 9 6 1 5 7 4 3 3 10 9 12 6 6 6 3 8 7 1 2 5 9 3 5 9 19 25 26 26 14 25 28 27 26 24 19 20 19 20
26 28 29 26 20 18 21 24 26 26 25 13 6 9 11 8 9 3 2 5 10 3 1 4 6 6 13 7 2 4 5 2 0 2 3 3 3 4 3 13 36 38 41 43 40 32 32 25 23 21 18 20 20 16
26 27 26 19 18 20 23 23 25 22 12 6 8 6 11 8 8 6 8 7 4 3 3 2 3 6 10 5 3 3 3 3 0 2 3 3 3 3 4 20 34 42 48 47 46 39 35 29 26 24 20 19 18 20
25 25 18 15 19 21 21 22 23 13 9 8 5 3 4 6 4 5 5 7 6 3 2 1 1 3 7 4 1 1 2 1 1 2 2 2 2 2 16 33 37 20 19 25 29 36 32 29 29 27 23 22 23 21
25 20 12 15 18 17 20 23 19 10 6 6 6 2 1 5 8 3 3 4 5 1 2 2 2 2 1 1 2 2 2 1 1 1 6 0 2 23 38 41 45 40 21 21 14 16 20 18 16 21 25 23 25 27
22 14 12 16 18 18 20 20 14 5 7 6 2 5 9 10 4 2 3 3 5 3 3 3 7 4 4 2 1 3 1 2 2 3 2 4 7 26 42 44 51 45 38 18 12 5 3 8 14 16 19 22 23 21
20 12 12 15 17 19 20 19 12 7 3 4 2 3 5 4 4 3 4 5 4 4 11 10 9 7 3 5 3 7 2 3 4 4 4 4 9 31 42 43 43 52 51 49 39 21 15 17 5 13 14 11 14 13
18 12 11 12 15 19 19 15 13 8 4 2 3 3 3 2 6 4 3 4 5 6 19 18 11 2 6 8 5 3 5 5 3 4 4 4 22 29 33 38 40 42 49 45 47 46 45 43 39 29 29 36 39 36
18 12 10 11 12 18 18 11 11 10 4 2 3 4 3 3 4 2 6 7 12 15 18 14 8 6 9 3 4 4 4 5 4 5 5 8 22 28 29 32 33 34 35 39 39 37 37 37 35 37 35 40 46 42
17 13 10 13 15 18 16 7 10 10 6 3 2 1 4 13 11 13 13 15 18 21 11 6 3 9 5 4 4 6 5 4 4 5 4 17 22 26 26 29 29 30 27 29 28 33 37 37 37 36 35 38 38 33
16 8 17 19 15 12 9 5 6 5 5 3 4 7 11 12 14 17 16 16 19 20 9 10 6 4 6 4 5 6 4 3 4 5 7 14 20 22 23 21 24 24 26 24 23 20 25 25 31 31 34 33 31 30
11 8 16 18 15 6 12 6 4 4 3 3 5 10 12 12 13 16 17 18 18 15 8 4 5 6 4 4 3 2 2 4 7 14 11 11 14 16 18 20 19 19 21 21 19 18 17 16 21 22 21 22 22 24
8 13 14 16 17 5 4 6 2 1 2 5 6 10 10 12 14 16 17 18 14 16 14 8 7 7 3 3 3 5 9 8 7 9 9 8 10 13 15 18 17 17 15 16 17 12 16 17 17 16 18 16 16 17
11 13 13 13 12 4 5 5 4 1 2 4 8 8 9 9 12 11 14 15 15 13 11 6 2 5 3 1 8 12 16 14 16 19 5 6 7 15 14 17 16 15 14 12 13 12 11 14 14 14 14 13 14 16
10 12 10 8 7 3 2 2 3 5 3 5 8 5 9 7 6 10 11 13 12 10 8 6 8 10 10 10 11 10 13 13 14 14 14 14 16 15 15 15 16 15 14 12 11 13 12 12 12 12 12 12 14 14
9 9 8 5 3 4 4 6 2 3 5 4 7 7 7 9 6 11 8 7 11 9 8 10 11 11 6 5 6 8 10 12 11 13 14 15 14 14 13 14 14 14 14 13 13 12 11 11 14 11 12 12 11 14
6 7 2 4 3 1 4 4 5 4 2 7 5 6 8 5 7 10 6 6 4 7 7 8 10 7 6 6 6 4 5 10 12 13 8 13 14 14 10 11 12 12 12 11 12 12 11 12 12 13 12 10 10 12
4 3 2 2 2 1 4 4 4 4 2 6 8 3 5 3 3 4 3 2 3 4 2 6 6 5 4 7 7 5 3 10 13 13 13 11 12 12 12 9 9 9 9 10 9 9 10 11 10 10 11 11 11 10
5 2 4 4 2 3 4 4 2 3 4 4 2 4 6 8 7 5 4 3 5 4 3 7 9 11 9 5 10 6 8 11 13 12 12 11 13 12 10 10 7 6 7 9 10 8 8 9 10 11 11 11 9 10
3 2 4 5 5 5 4 4 3 4 4 7 1 3 6 2 2 4 3 3 6 7 10 8 7 12 14 11 9 8 10 12 12 12 11 11 11 10 10 9 8 8 8 8 10 9 8 7 8 10 9 11 7 11
1 5 4 3 4 3 4 4 5 6 4 2 1 3 9 5 2 1 3 3 5 3 2 6 6 5 9 13 11 11 10 10 9 11 9 9 10 9 10 10 10 9 9 9 10 9 8 8 8 8 8 6 10 10
3 6 7 3 7 9 8 11 12 6 6 9 6 5 4 2 3 4 2 3 2 1 1 6 5 4 6 11 11 10 9 9 3 9 5 5 6 7 10 9 10 12 8 7 8 9 10 10 8 7 7 8 8 8
9 5 8 6 12 15 4 9 10 1 4 7 9 5 3 4 3 5 10 6 4 2 3 4 7 2 4 8 7 7 8 9 7 8 10 1 4 7 9 8 7 11 4 3 6 8 6 7 7 8 7 7 6 6
8 19 21 24 5 12 2 4 4 10 7 7 6 7 7 4 8 9 10 7 3 8 7 6 7 2 9 10 6 6 6 6 7 8 8 7 7 8 9 9 9 9 9 3 5 5 9 4 5 3 5 6 6 5
5 10 13 9 7 6 8 8 7 13 8 8 7 7 11 12 9 5 6 5 7 7 3 7 5 8 9 10 12 13 11 4 4 5 8 8 6 6 8 9 9 8 7 7 5 4 8 6 5 5 5 6 6 7
5 11 7 11 15 5 6 10 12 10 1 3 7 6 2 10 10 5 6 7 7 7 6 10 8 7 8 12 10 9 8 8 5 4 5 4 7 7 8 9 7 7 6 6 6 6 6 6 5 5 6 6 6 7
8 10 11 10 11 11 12 6 8 15 9 6 3 3 11 8 4 4 7 9 10 10 5 7 9 9 9 7 8 8 6 5 7 5 5 5 9 9 7 7 8 7 5 5 4 4 5 5 5 5 5 5 6 7
6 9 6 6 7 8 10 6 8 11 8 10 5 9 6 6 6 4 5 8 8 8 8 6 6 7 7 7 8 8 5 2 8 6 5 9 11 8 5 5 5 7 6 5 4 4 5 5 6 6 5 6 6 6

GFSWCAN_850_spd_033.txt.gz
Wind_Speed
19 22 23 25 27 29 31 32 32 30 28 25 23 22 21 17 12 10 17 16 16 10 22 23 12 15 10 10 4 16 11 8 3 7 4 3 3 4 3 3 7 0 3 2 1 4 4 34 22 14 6 19 22 27
19 20 23 27 29 30 32 32 30 26 24 23 23 24 24 18 10 9 16 14 10 20 10 24 29 14 15 19 22 8 8 17 2 4 4 3 5 3 10 6 12 5 3 2 6 2 14 13 19 22 23 20 25 24
19 22 25 28 30 31 30 28 25 24 24 25 26 25 20 12 7 6 9 11 8 13 17 12 8 18 5 10 6 6 5 6 9 14 7 4 3 6 5 1 6 8 9 3 7 12 15 11 8 22 22 19 20 22
21 24 27 29 30 29 25 23 23 26 27 26 23 17 10 9 3 2 3 4 4 3 2 5 11 15 5 4 4 7 13 10 11 12 6 2 3 13 4 7 9 7 12 10 9 9 17 16 24 28 30 22 13 15
23 25 27 29 27 23 21 23 26 27 26 23 13 9 11 8 9 8 4 5 5 2 2 9 6 11 13 10 10 5 8 9 11 7 2 2 6 5 6 5 4 10 10 7 7 23 9 21 29 29 28 26 21 25
24 25 26 26 20 20 23 25 27 26 21 11 8 11 10 10 8 4 2 4 8 4 1 2 6 11 16 5 9 10 7 9 4 4 5 9 9 8 3 3 4 28 34 36 29 30 33 30 29 25 21 20 19 19
24 25 25 19 18 22 24 24 27 22 11 7 9 11 11 11 9 3 2 7 7 2 2 1 3 5 9 8 9 10 8 5 3 3 3 4 5 4 3 4 24 44 43 42 34 32 31 27 17 17 21 17 20 16
24 24 20 15 19 22 22 24 25 13 8 7 6 11 12 10 8 8 8 8 5 3 3 1 2 1 7 5 3 6 3 4 3 2 1 1 3 1 3 14 35 39 35 32 33 33 40 34 22 20 18 17 19 16
23 22 14 15 18 20 22 24 20 7 6 6 2 3 4 5 4 9 7 5 5 2 2 2 1 2 3 2 2 2 3 1 2 0 2 0 1 1 13 25 32 37 21 22 25 20 26 28 20 17 18 19 20 18
22 19 12 15 17 19 22 22 13 6 7 7 5 5 2 6 13 7 2 2 2 0 2 3 3 1 3 2 2 3 1 1 1 1 4 0 2 20 33 30 39 40 33 29 17 9 8 9 13 16 15 15 16 17
21 18 12 14 15 18 19 17 11 8 8 6 4 2 8 11 5 3 2 3 2 3 6 2 5 4 4 2 2 6 2 2 1 2 1 3 4 15 29 32 46 45 46 47 38 26 18 11 8 12 13 12 16 15
21 18 12 12 13 16 18 14 13 8 6 6 3 3 7 4 2 2 3 7 1 3 4 7 5 7 5 5 4 7 3 4 4 4 4 4 6 25 27 30 31 40 47 44 47 42 43 39 15 7 10 9 2 4
20 18 13 12 13 16 16 11 10 11 6 6 3 2 2 3 3 3 2 5 3 5 12 8 4 4 6 8 7 3 2 3 5 3 4 2 19 24 25 26 27 28 36 45 43 39 43 46 38 31 25 20 16 19
19 18 11 13 15 15 13 5 7 12 4 3 3 5 1 3 3 4 6 5 15 19 22 11 4 2 1 3 3 4 3 5 4 4 2 4 18 23 22 24 28 28 21 30 33 38 36 35 38 36 35 31 36 35
16 13 10 17 18 11 6 6 8 12 4 3 1 1 4 12 15 17 17 17 20 24 19 12 5 10 3 4 4 5 4 4 3 3 4 12 18 21 23 21 23 26 24 16 21 27 28 31 30 31 30 30 33 31
15 13 13 18 19 8 2 6 4 6 7 3 1 5 10 11 13 15 15 17 23 25 17 9 4 3 4 3 4 4 3 2 3 1 8 7 12 15 18 20 19 18 22 20 10 17 18 22 24 24 25 30 31 30
13 10 17 18 17 4 5 5 2 2 3 4 4 9 8 9 10 14 15 18 19 19 7 5 5 5 4 3 2 1 1 3 9 8 3 13 11 9 13 16 19 16 18 18 14 13 11 13 17 21 23 21 22 22
12 13 15 15 13 5 3 4 3 4 2 3 6 6 8 9 7 10 12 15 15 14 12 3 4 4 2 3 3 2 12 14 16 19 6 6 6 10 11 15 16 17 10 15 10 15 16 18 12 12 17 17 15 10
11 10 11 10 10 6 3 2 2 4 1 4 6 9 8 2 7 4 10 13 10 12 8 2 3 3 3 5 11 13 15 14 16 19 9 12 10 13 8 12 14 18 9 11 13 9 13 15 13 15 14 17 14 17
11 9 7 6 6 4 4 2 5 5 4 3 5 8 5 7 2 4 6 9 10 13 6 4 6 10 10 8 9 9 10 12 10 14 15 13 17 13 8 9 12 14 13 7 10 13 14 18 15 11 9 12 14 13
7 7 9 4 2 3 4 4 3 0 4 4 9 13 6 5 5 6 4 1 8 3 3 7 6 6 3 2 4 5 4 13 8 11 16 11 12 15 11 8 9 10 12 13 11 13 14 8 17 12 12 13 13 10
5 6 2 2 3 2 4 1 5 8 4 7 10 5 5 7 1 3 5 2 6 5 4 4 2 2 2 4 6 4 5 7 10 14 11 13 11 14 16 11 7 7 10 10 11 10 10 10 10 12 11 10 10 13
5 4 3 3 3 2 5 5 4 4 3 3 4 4 3 2 2 1 3 2 5 7 7 1 4 5 6 6 10 8 3 6 11 13 13 12 12 13 13 13 8 9 8 11 12 9 10 9 9 9 7 6 14 8
7 2 4 4 4 4 5 7 10 6 4 4 3 4 2 1 4 2 1 7 5 6 3 2 2 5 5 4 4 8 5 8 10 12 13 13 12 12 14 12 14 10 10 11 11 10 8 8 9 10 9 8 16 16
3 2 3 5 6 8 7 8 3 10 5 5 9 5 5 5 3 4 3 4 7 5 3 3 3 5 2 7 10 10 10 9 10 10 12 10 10 9 12 14 9 13 10 15 13 13 11 10 8 7 10 10 12 13
1 4 7 5 3 3 5 6 8 2 3 3 5 2 5 4 2 4 10 12 6 4 4 4 7 5 1 5 6 6 6 6 4 5 3 6 6 7 7 10 11 11 7 8 9 12 10 10 9 12 10 9 10 10
2 6 11 10 8 8 8 9 3 2 2 4 4 1 2 1 3 5 6 3 5 4 6 6 3 3 1 4 4 5 5 6 1 6 2 4 4 7 7 6 8 11 9 7 7 8 9 10 10 11 9 8 9 8
6 5 5 13 9 8 4 3 3 3 5 5 5 2 2 3 2 7 3 1 3 1 4 5 5 2 5 4 6 5 3 4 4 6 6 7 4 6 7 8 10 8 4 4 6 5 5 5 5 8 8 8 7 7
5 6 4 8 10 12 2 6 7 10 14 15 4 4 5 9 13 7 4 2 1 5 5 5 2 5 9 10 2 9 9 3 6 7 9 8 7 9 7 7 8 10 8 6 5 8 7 4 4 6 8 8 8 8
7 8 4 11 14 9 10 10 15 18 10 8 18 27 17 14 8 7 5 3 3 5 6 6 6 6 9 12 12 12 12 8 7 7 8 9 7 6 7 7 6 5 4 5 6 3 6 5 5 7 5 5 6 7
9 13 9 10 13 19 9 9 3 6 12 13 14 19 11 6 8 10 6 9 9 4 7 11 10 11 13 13 9 8 12 10 8 7 8 7 5 5 6 7 4 3 3 3 3 5 5 6 5 4 5 5 5 5
8 8 11 9 8 9 8 14 8 9 0 8 7 11 12 5 6 5 8 9 10 12 12 10 11 13 11 9 9 6 4 5 4 3 5 7 11 8 3 6 5 4 4 3 3 3 4 5 5 4 3 4 4 4
9 12 11 2 6 16 8 4 4 5 6 13 13 8 4 4 7 4 5 6 8 7 8 8 8 7 9 10 8 3 3 6 7 8 11 15 11 5 3 2 8 9 7 7 6 5 4 4 4 4 4 5 5 5

GFSWCAN_850_spd_039.txt.gz
Wind_Speed
15 17 20 23 25 27 27 24 22 22 22 21 20 17 11 6 4 4 6 7 8 4 10 10 12 12 5 4 2 7 6 3 5 5 3 3 3 3 2 3 3 4 3 1 1 4 2 20 9 7 2 10 21 23
16 19 22 25 26 26 22 22 23 23 23 22 18 13 8 4 1 0 2 5 6 11 8 11 11 10 9 9 7 5 7 4 4 3 4 3 2 4 9 3 6 5 3 4 6 2 7 4 10 12 16 16 26 25
18 21 24 25 24 21 21 22 23 24 22 17 13 12 9 5 4 5 4 3 3 2 6 8 10 14 8 9 5 2 5 6 6 6 3 2 2 4 5 5 4 4 9 2 5 5 10 10 8 17 21 22 28 31
20 22 23 23 19 19 21 23 25 22 16 12 12 11 11 11 10 6 3 4 2 1 2 4 12 13 9 11 8 7 11 8 7 7 5 3 3 11 4 2 1 7 5 8 5 6 11 3 11 25 20 23 24 27
21 22 22 19 16 19 21 24 23 17 11 11 8 9 11 8 8 5 6 8 5 2 2 5 4 9 11 12 4 3 3 4 7 5 4 3 3 5 3 2 5 14 6 3 3 18 16 22 23 15 20 25 23 24
21 21 20 15 16 19 22 23 18 14 8 12 8 7 8 9 6 4 4 3 9 4 3 3 3 5 6 9 13 15 10 8 6 5 4 4 6 9 2 1 6 20 20 16 6 13 19 27 26 25 21 23 22 22
20 20 19 14 15 19 21 21 14 12 6 8 9 7 5 6 8 6 4 8 6 2 3 4 5 2 5 4 4 6 10 8 5 3 4 3 3 4 1 5 25 25 23 22 23 20 11 14 23 19 13 13 21 24
19 19 18 13 13 16 19 19 13 8 9 7 7 7 8 7 5 5 8 8 4 2 3 1 4 5 5 3 2 7 3 3 7 3 1 2 1 1 3 14 24 28 19 23 24 20 16 17 18 23 19 21 15 12
18 18 17 12 11 12 17 17 15 9 10 9 6 8 9 4 5 8 11 6 4 1 1 2 1 3 5 6 6 5 6 4 4 3 4 5 3 4 7 15 18 28 25 26 25 26 24 14 13 12 12 17 22 17
18 18 16 12 11 12 14 17 13 11 10 7 5 3 3 6 11 7 3 3 2 2 2 4 4 2 1 4 4 3 4 3 2 2 3 3 3 13 16 12 17 24 24 26 25 32 34 34 16 12 8 10 11 15
17 17 17 13 11 12 14 16 11 11 7 6 5 3 10 11 5 3 2 2 1 3 4 4 5 2 2 1 0 2 1 2 2 1 2 1 3 10 22 19 12 19 21 22 21 31 30 32 33 25 16 12 7 2
16 15 14 9 10 13 15 13 9 10 9 7 7 9 6 3 2 1 3 4 1 3 4 3 3 3 3 2 2 1 1 0 2 1 3 2 3 18 20 21 13 12 20 23 28 30 31 29 28 27 25 20 13 7
15 12 9 7 11 14 14 11 9 11 14 5 2 3 2 1 5 3 4 5 4 5 5 9 4 4 4 4 1 1 2 1 4 3 2 3 10 15 16 19 17 13 14 20 23 27 30 30 25 22 25 24 21 17
14 13 11 10 10 14 12 7 8 10 6 2 2 5 2 4 2 3 4 4 12 10 21 11 4 3 4 2 1 3 1 4 2 3 3 3 10 14 16 17 19 13 9 11 16 19 21 22 26 31 30 25 24 24
14 13 11 6 10 12 11 7 9 12 3 2 2 2 2 2 4 6 9 11 14 18 16 2 5 4 4 4 3 3 4 2 1 3 3 8 10 10 15 16 16 15 10 7 9 13 16 18 19 21 22 27 31 30
16 13 6 10 10 10 8 6 9 8 3 3 4 2 4 2 5 6 9 10 16 17 3 6 4 3 4 2 3 1 3 3 3 4 12 9 7 8 11 13 14 13 8 3 5 7 8 12 14 14 15 14 19 25
15 11 12 11 9 9 5 7 5 3 3 3 4 6 6 4 6 7 9 10 12 10 2 4 3 1 1 2 0 3 4 3 5 8 4 6 6 7 7 11 11 8 8 6 5 4 5 5 5 7 10 12 13 9
15 11 12 10 10 5 5 7 3 4 5 7 4 9 12 8 7 7 5 7 6 4 2 2 3 3 1 2 2 3 5 4 6 4 2 3 7 8 7 7 7 4 6 7 5 6 6 4 6 6 4 6 10 12
16 8 8 8 9 5 2 3 5 4 4 3 6 6 7 11 12 9 8 3 2 3 4 3 3 1 3 5 5 5 4 5 4 3 2 4 7 9 2 3 2 2 3 1 5 6 5 6 4 8 8 4 4 9
10 7 5 8 6 2 3 3 4 5 4 4 8 8 10 8 10 11 12 7 4 2 1 2 4 4 4 4 4 4 1 3 2 4 3 3 6 6 4 4 4 2 3 4 4 4 3 4 3 7 8 4 6 9
4 4 4 3 2 3 3 3 3 5 6 5 9 9 7 4 1 4 6 9 5 3 3 5 6 3 5 3 3 3 2 2 3 9 10 9 4 2 5 3 5 5 5 2 4 6 3 6 5 2 6 3 4 8
5 4 4 2 2 2 4 4 4 7 6 10 9 6 2 3 4 4 17 4 2 3 3 2 3 1 6 6 6 4 3 1 6 4 2 1 4 7 9 7 7 6 4 6 5 3 2 4 5 6 3 3 1 7
6 4 1 1 2 3 4 4 3 3 1 4 7 3 3 2 2 4 2 4 4 7 2 3 2 2 7 8 5 8 8 4 2 4 4 6 4 3 8 11 8 5 2 4 4 2 3 0 5 7 5 7 2 6
5 2 1 2 3 4 3 3 3 3 4 5 4 2 3 3 2 4 2 4 6 3 4 6 9 5 4 1 0 7 8 5 2 1 2 1 2 4 6 6 5 3 3 3 2 4 4 1 2 3 3 1 3 6
2 2 2 4 3 2 3 2 2 4 3 3 3 3 5 7 3 2 2 4 3 3 6 7 5 3 0 7 5 8 8 7 4 4 4 1 2 4 2 2 2 4 5 4 5 6 7 6 3 5 6 4 6 5
1 3 5 3 2 4 3 1 2 2 2 2 1 3 3 3 2 3 3 4 6 7 7 7 7 4 4 9 8 7 8 10 10 8 8 6 5 3 2 1 5 7 4 4 2 4 8 6 6 8 8 6 4 4
1 4 5 5 5 3 2 2 2 1 1 1 0 2 1 1 3 3 3 5 7 7 6 5 7 8 5 6 5 5 9 11 9 6 6 6 3 4 4 6 4 3 5 6 3 3 6 4 5 8 5 5 5 5
7 4 5 4 5 6 2 3 4 5 3 4 6 1 3 3 3 3 5 7 7 6 8 4 4 6 7 4 4 9 6 5 6 8 7 7 3 3 3 1 5 8 7 5 2 5 6 7 6 5 5 4 5 4
5 6 7 6 5 5 5 8 6 6 6 7 6 3 3 2 0 4 8 6 4 7 6 6 2 3 6 5 4 5 3 8 7 9 9 8 6 8 7 3 2 1 2 4 3 5 3 6 9 6 3 3 3 3
5 9 5 4 4 4 4 10 8 11 10 6 5 5 5 5 3 5 8 10 7 4 2 7 7 3 6 9 6 4 5 5 1 4 7 8 7 7 7 1 2 3 3 3 4 5 7 7 9 7 3 4 4 3
5 8 6 5 4 5 8 11 13 16 15 8 6 11 8 7 7 9 8 8 5 5 3 4 5 6 9 11 8 5 7 8 7 4 6 8 8 8 7 5 4 1 4 5 6 4 4 4 2 3 3 3 3 4
9 9 7 4 1 9 22 19 8 5 6 6 5 6 8 5 3 3 4 3 4 5 5 5 5 4 5 5 4 6 6 5 7 8 6 6 7 8 8 5 1 2 2 4 4 2 6 6 3 3 2 1 2 3
13 9 10 4 8 14 14 9 5 4 3 4 4 7 6 3 3 4 3 4 2 4 2 4 4 7 8 7 8 9 8 9 9 8 9 10 7 4 3 4 4 6 7 7 6 6 6 4 4 3 4 3 2 3

GFSWCAN_850_spd_042.txt.gz
Wind_Speed
16 19 22 24 26 23 21 22 24 25 25 21 15 9 6 3 2 2 3 4 5 4 10 8 14 9 9 3 2 8 7 3 4 3 3 3 2 5 3 3 1 1 3 1 3 4 4 24 5 7 2 9 14 23
18 21 24 25 23 20 20 23 25 25 20 14 13 10 5 4 5 4 4 3 3 9 6 10 9 13 7 10 5 4 4 5 3 3 3 3 3 4 7 2 6 3 3 2 4 4 11 13 17 13 11 7 19 23
18 21 23 24 20 19 22 25 25 21 13 13 14 10 9 9 8 6 4 3 1 3 6 9 13 10 10 12 6 3 4 6 7 8 4 3 3 4 4 5 4 5 12 3 4 7 11 8 7 19 13 14 19 24
19 21 23 22 18 19 22 25 21 16 11 11 12 9 8 12 7 5 5 5 3 2 2 4 12 13 15 11 7 8 8 8 11 7 4 2 3 9 4 4 4 5 9 7 3 4 13 5 27 25 23 17 16 18
19 21 22 20 17 19 21 23 17 13 12 10 10 9 5 5 5 4 5 9 9 2 2 4 7 12 13 15 10 9 10 6 8 6 4 4 4 5 4 3 2 11 3 2 1 13 7 14 25 24 26 21 17 16
19 21 21 19 16 17 19 20 14 11 8 11 10 8 7 5 4 2 3 3 10 7 2 2 1 0 4 8 9 12 12 13 7 4 4 5 6 8 3 3 21 26 25 22 10 22 18 19 19 20 22 21 18 15
18 19 19 17 14 14 17 18 15 9 8 8 6 7 8 8 6 3 3 7 6 4 2 4 6 4 2 2 2 4 11 8 7 3 5 3 3 6 2 3 20 27 24 23 24 21 12 10 14 22 21 22 21 18
18 19 19 17 13 12 14 17 15 10 10 8 8 7 6 10 8 4 8 7 4 2 2 2 3 0 1 1 1 2 2 4 8 4 5 5 5 5 3 13 19 22 21 25 30 25 21 18 15 14 14 13 15 18
18 19 18 17 13 11 13 15 14 12 11 8 8 8 7 4 5 9 11 7 6 3 2 1 2 2 1 1 2 2 2 3 2 3 5 5 3 4 7 14 16 21 21 23 25 29 27 28 17 16 13 9 7 13
17 18 18 17 13 11 13 14 12 11 11 9 5 3 3 6 14 10 4 3 2 2 3 4 2 2 1 1 2 2 2 2 2 1 2 3 3 8 16 13 12 15 17 20 21 25 26 26 26 24 25 14 7 6
17 17 16 14 12 12 14 13 10 9 10 7 4 3 9 11 5 3 3 2 1 3 4 4 4 2 2 1 1 2 2 2 2 1 1 2 3 6 15 13 7 12 15 20 20 19 19 19 20 21 21 17 16 14
17 15 14 12 10 12 14 12 9 10 10 8 7 8 5 4 2 2 3 4 0 3 3 2 2 3 2 1 1 1 1 2 2 2 3 1 3 11 14 13 2 6 10 14 19 22 22 20 20 21 22 20 18 14
17 15 14 13 12 11 14 11 9 12 13 5 2 2 2 2 5 3 4 5 3 5 5 5 3 2 2 2 3 1 2 1 4 3 1 4 7 10 12 13 7 1 5 10 12 15 19 24 26 29 32 25 20 17
17 16 15 13 10 9 13 10 7 9 7 2 2 5 2 4 2 4 4 4 9 10 17 12 2 0 1 1 1 3 0 3 2 2 3 3 7 8 11 12 11 5 1 5 9 13 15 17 19 25 27 29 31 26
16 16 15 8 5 12 12 8 5 8 3 2 2 2 4 4 6 8 10 10 11 14 10 1 3 1 3 3 3 2 3 2 2 4 3 4 5 7 10 11 12 9 2 1 4 8 12 15 16 16 16 19 23 27
16 13 6 8 10 11 10 3 5 6 3 3 4 2 5 3 7 6 8 11 11 13 3 4 3 3 3 1 2 0 2 3 3 4 7 13 5 5 9 11 13 7 5 1 2 3 6 8 10 12 14 12 8 15
15 10 14 12 7 8 6 3 4 3 3 4 6 9 11 9 7 9 9 10 9 5 2 3 3 1 0 2 2 3 4 3 4 8 10 5 5 9 9 7 9 4 6 2 3 5 7 8 10 12 10 9 12 6
18 15 13 9 7 7 3 4 3 4 5 8 5 7 10 13 11 11 8 7 5 1 1 2 5 2 1 2 3 3 5 6 9 8 4 3 6 8 9 7 5 2 4 2 5 5 10 8 6 8 8 6 9 10
17 9 8 7 6 4 2 3 5 4 6 5 8 10 9 11 13 15 10 7 5 1 4 3 2 2 3 6 5 4 3 6 6 1 3 7 8 9 10 6 3 2 3 1 2 7 9 5 6 9 9 7 8 11
9 7 4 5 5 2 2 3 4 5 4 4 8 9 6 6 9 7 10 9 8 3 2 1 2 2 2 7 5 4 2 1 1 5 8 8 10 11 10 9 5 5 6 3 2 5 4 2 4 7 8 7 9 13
4 4 4 2 2 3 3 2 4 5 6 5 8 8 3 2 3 2 4 10 3 3 4 2 4 6 11 14 6 5 5 2 1 6 9 12 11 10 9 9 7 7 8 5 3 5 1 1 3 7 7 6 8 13
5 5 3 2 2 2 4 5 4 7 5 6 6 6 3 3 6 6 10 4 3 5 3 4 4 7 16 10 10 7 5 4 5 6 9 9 11 12 13 13 5 3 5 2 1 1 2 4 6 8 3 5 9 12
5 3 1 2 2 3 3 3 3 3 2 4 6 2 1 1 4 5 2 2 3 8 5 6 5 6 10 12 8 6 9 7 6 6 7 7 7 6 8 7 8 6 7 8 7 3 3 2 5 7 2 4 8 10
5 1 2 2 3 3 3 2 3 3 3 4 3 3 3 4 7 5 1 2 3 2 3 6 6 7 9 8 4 2 4 7 6 5 4 2 2 3 4 4 5 5 4 2 3 2 1 5 1 2 2 3 6 10
2 2 2 3 3 2 2 1 2 2 2 2 3 2 3 3 3 3 2 2 3 4 5 7 8 9 8 6 5 5 6 8 7 7 5 5 6 3 1 4 7 8 9 9 8 7 4 5 3 4 4 5 5 8
1 4 5 3 2 3 1 1 2 1 0 1 1 2 2 1 1 3 2 4 5 7 7 8 9 9 10 8 9 6 5 8 13 13 7 6 6 1 7 10 8 6 8 8 7 2 2 4 4 3 4 4 4 6
1 4 5 6 3 2 1 2 2 3 1 1 2 1 2 2 2 2 3 7 7 6 7 8 7 8 11 9 9 5 13 12 11 9 6 4 2 7 10 5 6 8 9 8 5 3 1 1 4 5 5 5 4 6
6 4 5 3 5 5 3 3 3 5 4 4 4 1 2 2 2 3 5 10 10 7 7 8 8 7 8 7 7 10 12 8 6 5 5 4 4 5 2 6 6 7 9 8 5 3 1 2 5 4 3 3 4 3
5 5 5 5 5 4 6 7 5 7 8 10 7 4 3 3 1 5 7 10 11 11 9 7 3 6 11 12 11 10 6 3 4 6 6 8 4 2 4 4 2 2 4 6 5 5 4 6 7 6 4 3 3 4
5 9 5 3 4 4 4 8 5 8 12 9 6 4 4 3 3 5 7 10 12 11 7 4 4 6 9 13 12 9 8 6 5 4 2 3 6 4 5 7 4 4 2 3 5 7 8 7 8 6 5 6 5 5
3 7 5 5 4 4 6 8 8 11 9 7 6 6 6 5 4 4 5 8 9 9 5 3 3 7 10 11 10 9 7 5 5 7 7 4 3 6 6 2 4 1 2 3 3 3 2 3 1 4 4 3 3 5
7 10 7 4 2 2 10 6 6 5 6 5 4 7 7 5 3 3 3 2 1 3 4 4 5 6 7 8 8 8 8 9 8 8 9 9 10 10 9 5 4 4 2 4 2 3 4 3 3 3 2 2 3 3
6 6 6 6 6 8 9 8 6 5 4 5 5 8 8 5 5 5 5 8 4 3 1 2 4 5 7 7 8 10 9 9 9 10 9 7 5 5 5 5 5 4 3 3 3 4 3 3 2 2 2 3 4 4

GFSWCAN_850_spd_045.txt.gz
Wind_Speed
17 19 22 23 21 18 21 24 25 22 16 13 11 9 5 5 6 6 4 3 1 3 7 6 9 6 6 4 2 8 5 1 3 3 3 3 3 3 2 3 6 6 6 7 8 6 9 23 5 4 6 8 6 12
17 20 22 22 19 18 21 25 22 17 12 12 11 10 7 10 7 5 3 1 2 5 3 7 6 6 6 9 7 4 4 5 3 3 2 3 2 3 7 4 3 2 3 2 2 1 16 8 19 14 10 9 13 16
17 19 21 21 17 17 20 23 19 13 10 9 9 9 6 11 8 6 4 3 4 3 5 5 6 7 9 4 3 2 4 6 4 7 4 2 3 3 4 3 3 2 6 2 3 4 13 10 16 16 14 12 12 15
16 19 20 19 16 16 19 21 15 11 8 7 8 7 6 5 6 6 6 7 5 1 2 3 10 7 11 8 4 4 7 6 5 4 3 2 3 9 4 3 3 5 8 6 4 8 17 17 20 20 18 14 14 13
15 18 19 19 15 15 17 19 13 8 8 6 5 7 4 4 5 1 3 5 5 0 2 3 5 5 8 12 10 10 9 5 3 3 4 4 4 5 5 4 4 13 6 5 3 17 9 13 24 18 19 18 15 16
15 17 18 18 14 13 15 17 14 8 7 6 5 3 3 3 6 4 3 2 7 4 3 2 4 2 7 10 10 10 11 12 7 4 3 5 5 9 3 3 21 25 25 23 9 23 12 16 15 17 17 18 16 13
15 17 18 17 14 12 12 15 14 9 8 7 6 5 5 6 5 3 3 7 8 4 2 4 3 3 3 7 7 6 10 9 6 3 6 5 4 8 2 3 21 25 24 24 29 27 20 24 19 19 18 16 14 11
15 16 17 17 15 12 12 13 14 11 10 8 7 7 7 8 6 3 6 8 5 3 2 2 2 1 0 1 3 6 5 6 9 3 4 5 7 5 3 18 17 24 21 24 28 29 25 19 20 26 21 18 13 10
14 16 16 16 15 12 11 12 13 10 10 9 8 8 5 2 3 6 9 5 5 3 2 1 2 3 1 0 1 3 4 3 5 4 4 4 3 4 7 13 18 18 18 21 22 22 23 24 23 26 23 22 19 15
14 15 15 14 13 12 12 12 10 10 11 9 6 2 2 4 11 5 2 2 1 2 3 3 2 1 2 4 2 3 1 1 2 3 4 4 2 4 9 10 8 14 16 20 23 25 23 24 25 25 24 22 20 14
14 15 13 12 11 11 13 11 8 10 10 6 3 3 7 9 2 1 1 1 0 3 4 4 5 3 2 2 2 1 2 1 1 1 3 3 2 4 11 12 8 11 12 16 18 20 23 22 22 22 24 23 22 21
15 15 13 12 12 12 13 13 10 10 9 8 7 7 4 3 2 1 1 1 2 2 3 2 1 3 2 2 2 3 2 2 2 3 1 1 3 4 10 12 7 6 9 10 14 17 19 22 23 25 25 25 23 22
15 14 14 14 13 13 11 13 11 10 12 7 2 2 2 1 3 2 3 3 3 4 2 2 4 2 2 3 1 2 2 3 4 1 1 2 4 3 7 10 10 6 4 7 11 14 15 16 22 26 24 22 23 26
15 14 15 14 12 7 9 14 11 8 6 2 1 5 1 2 3 3 3 4 6 8 10 7 2 2 3 3 1 1 2 3 2 1 1 1 1 2 4 6 8 8 4 4 5 10 12 15 16 16 19 20 21 23
13 14 13 7 4 8 12 12 7 5 3 2 1 2 4 5 7 8 9 8 9 9 7 1 2 3 2 2 1 2 3 1 1 1 1 2 7 4 4 6 7 7 4 5 3 6 9 11 15 17 18 16 15 19
13 11 6 11 11 11 10 7 4 4 3 3 4 4 5 4 5 4 6 8 7 8 3 2 1 1 2 1 1 2 1 1 1 2 3 8 4 3 6 7 7 5 4 3 3 4 6 9 11 13 13 15 14 12
13 10 15 14 9 8 8 3 2 3 3 3 5 9 12 13 10 9 8 8 7 3 2 3 3 2 1 2 1 2 2 1 2 2 4 2 3 6 8 7 4 4 5 3 4 5 6 5 9 9 8 9 14 14
17 17 14 10 6 7 4 5 3 3 4 6 5 7 8 11 12 9 11 9 4 2 4 2 1 1 2 5 4 3 3 2 5 4 1 1 3 5 8 7 4 1 2 2 4 3 6 4 6 8 10 10 12 14
16 9 7 5 4 3 2 3 4 3 5 7 10 13 10 8 9 10 11 9 5 3 2 1 3 3 4 3 11 11 3 3 3 3 3 6 6 6 7 9 4 4 4 2 2 5 7 3 5 7 8 9 9 12
9 6 2 4 4 2 2 3 4 5 4 4 7 7 6 6 9 9 7 4 2 1 3 3 2 4 7 14 12 9 3 1 2 4 6 7 9 8 7 8 4 6 8 4 1 5 5 4 6 8 7 7 8 11
4 3 4 2 2 4 3 3 4 4 5 4 6 7 4 4 4 5 6 10 3 4 4 1 4 7 6 11 12 7 7 2 4 5 4 7 8 8 8 7 5 3 6 5 2 4 3 4 7 8 7 8 11 10
5 6 3 2 2 2 4 5 4 6 4 5 5 6 2 3 4 5 6 5 3 2 1 3 1 7 11 12 10 6 6 7 8 3 6 7 5 7 13 14 11 8 7 3 4 3 1 4 9 7 5 8 10 12
5 2 2 3 2 3 2 2 2 2 3 5 6 2 2 2 4 5 2 2 1 3 3 3 7 7 10 12 9 3 9 9 6 2 4 7 5 7 7 7 7 5 2 3 2 3 0 3 6 3 5 6 7 9
5 2 2 3 3 2 2 1 2 2 2 3 3 3 2 3 6 3 1 2 2 0 3 5 7 10 10 11 9 5 5 6 3 2 6 3 3 2 6 7 7 8 7 6 3 6 5 3 1 4 5 7 8 8
2 3 3 3 3 1 1 1 1 0 1 1 2 2 1 3 2 2 2 3 5 3 4 6 7 10 11 11 10 8 7 4 2 17 9 8 4 5 11 12 9 5 8 7 8 4 6 6 3 3 6 8 9 8
1 4 5 3 2 2 1 1 2 2 2 2 2 2 1 1 1 1 0 3 3 3 5 6 7 6 7 8 7 10 6 7 12 6 6 5 8 6 6 5 5 5 7 6 4 4 5 4 6 7 6 6 6 7
1 3 3 5 3 2 2 1 1 2 2 2 1 1 1 1 1 1 0 4 5 6 7 7 6 7 6 7 9 8 8 12 10 1 9 5 2 4 5 7 7 9 9 8 7 5 5 3 6 7 6 5 7 6
5 3 4 4 5 4 2 2 3 3 3 3 2 2 1 1 1 2 2 6 7 7 6 6 9 9 11 13 13 12 9 7 11 10 5 10 10 8 6 7 9 10 9 9 8 8 7 6 6 5 4 5 5 4
4 4 6 4 4 5 6 6 4 5 5 7 3 2 2 3 4 3 5 7 8 8 7 6 8 10 13 13 11 10 9 6 2 3 4 6 4 4 5 3 8 5 8 8 7 6 5 8 6 6 5 6 7 6
4 9 4 4 4 4 4 8 4 7 10 9 5 4 5 6 5 6 7 8 7 7 5 5 6 7 8 10 12 11 9 8 8 7 5 4 4 5 6 6 7 7 8 8 7 6 7 7 7 6 6 6 6 5
3 7 3 4 4 4 6 7 7 8 10 9 7 4 6 6 7 3 3 5 6 6 4 4 3 6 8 9 9 8 9 9 9 8 6 5 6 7 7 6 6 6 6 6 5 4 3 2 2 4 4 4 4 4
6 8 5 3 2 3 5 5 6 5 6 6 5 6 7 6 6 6 7 5 3 2 3 4 4 6 8 9 10 10 9 10 11 13 14 14 15 12 10 6 6 6 4 4 4 4 4 3 3 4 3 3 4 3
4 5 5 3 3 4 6 6 4 2 3 5 5 8 7 5 1 4 5 8 6 3 3 4 4 5 6 7 9 10 10 11 10 9 9 9 9 8 8 8 7 6 5 5 5 5 5 4 3 4 4 4 3 4

GFSWCAN_850_spd_048.txt.gz
Wind_Speed
14 16 18 18 17 15 19 21 18 15 12 10 10 10 7 8 6 7 3 4 3 2 5 3 3 5 6 5 3 9 7 2 2 2 2 2 3 2 3 2 3 7 6 7 9 9 15 8 17 6 4 13 9 4
13 15 17 17 15 14 17 19 16 12 10 9 7 8 5 8 6 5 1 2 2 1 3 4 4 6 7 6 7 6 5 5 3 3 2 3 2 3 7 2 1 2 4 2 5 4 4 17 25 16 10 6 4 10
13 15 16 16 14 12 15 17 13 11 9 8 4 5 6 7 5 4 3 1 2 3 4 3 4 2 4 5 5 5 3 7 2 5 3 2 2 3 4 3 3 2 8 4 3 6 11 12 15 17 5 5 8 11
12 14 15 15 13 10 13 15 12 9 8 6 5 2 4 3 3 4 4 2 1 3 5 5 4 3 4 5 5 6 12 7 6 3 4 2 3 7 3 3 2 3 8 6 5 6 16 8 17 15 12 10 11 11
11 13 14 14 12 9 10 13 11 8 7 6 4 3 1 1 2 4 7 4 4 1 5 4 1 3 2 3 7 9 7 6 3 1 2 2 4 4 4 4 2 12 5 4 2 16 6 13 18 16 10 14 13 14
11 12 13 13 12 10 8 9 12 8 7 6 5 3 3 4 5 3 3 3 7 3 4 3 3 6 5 6 8 7 5 4 5 3 2 3 4 6 3 3 17 23 20 23 13 22 16 22 19 20 19 17 12 15
10 12 13 13 12 11 9 9 10 9 8 7 7 6 6 6 5 3 3 4 9 5 3 5 3 3 5 7 6 4 5 4 4 2 7 4 5 5 3 5 23 25 23 25 27 25 22 25 25 28 20 15 13 15
9 11 12 12 13 11 8 8 9 9 8 8 8 7 7 8 7 3 6 10 7 3 3 3 2 4 1 2 3 3 5 2 4 3 5 9 3 6 3 19 21 24 22 25 24 23 22 23 29 30 28 22 24 25
9 10 11 11 10 9 10 10 9 9 9 10 8 6 7 3 2 6 11 6 3 5 3 2 3 4 2 1 1 2 3 1 0 2 3 5 3 3 9 15 17 20 23 23 23 23 25 25 26 28 28 30 27 24
9 10 10 9 9 7 9 11 9 9 11 9 4 0 3 4 8 5 2 1 2 2 3 4 2 2 3 3 1 1 2 1 1 2 1 2 2 4 9 12 12 14 17 20 24 28 30 31 29 28 25 25 24 23
9 10 10 10 10 10 9 9 11 11 10 5 2 3 7 8 1 1 2 4 3 3 5 4 5 6 2 3 1 2 1 1 1 1 2 1 3 6 8 8 8 10 12 15 17 19 20 21 25 27 26 25 23 20
9 12 11 10 10 11 10 7 11 10 8 6 7 8 4 1 3 4 1 2 3 3 2 7 7 4 2 1 2 2 2 2 2 1 1 2 3 6 7 8 8 5 7 9 11 14 16 19 20 20 22 24 23 21
10 12 12 12 12 11 8 6 11 11 11 7 1 2 3 3 2 1 2 4 4 7 6 8 6 1 2 3 2 3 4 1 2 2 2 3 4 4 6 7 8 7 4 4 7 10 13 14 15 18 19 21 23 22
11 11 13 12 8 4 3 9 12 10 5 2 3 3 3 2 3 4 7 7 10 8 11 9 2 4 5 5 3 3 2 3 2 1 3 1 3 2 4 7 8 9 6 5 5 7 10 13 15 17 17 17 19 23
10 10 9 4 6 8 10 11 11 6 3 3 3 3 3 5 9 6 7 7 6 6 8 6 5 4 4 3 2 0 3 1 2 2 4 9 6 3 2 5 8 10 9 7 6 7 9 11 14 14 15 15 15 16
9 9 3 8 11 10 8 7 4 4 3 3 5 6 6 9 12 10 7 10 4 5 4 1 3 2 4 2 3 4 4 3 3 4 8 6 4 3 4 5 5 6 8 8 7 7 8 9 11 11 11 13 14 13
9 5 13 13 9 6 6 3 2 3 4 4 5 7 11 12 12 13 12 12 6 7 3 4 4 2 5 4 4 1 2 6 8 7 5 2 2 3 5 5 4 2 5 4 5 6 8 6 8 10 11 11 13 12
13 15 10 6 3 3 5 5 3 4 5 8 8 9 7 10 11 10 8 8 6 5 3 3 6 3 3 1 3 3 10 5 4 3 1 1 4 5 5 5 4 3 2 2 4 5 6 5 6 8 9 10 11 12
15 7 5 2 2 1 2 2 4 4 6 7 8 8 8 7 5 6 6 5 3 1 3 4 3 1 3 6 8 7 8 2 1 1 1 2 4 4 4 5 4 4 3 1 2 5 5 3 6 8 10 10 12 12
6 3 0 1 4 2 2 3 4 5 5 4 6 5 7 5 4 4 5 7 3 0 3 2 4 6 7 6 6 9 6 3 3 7 1 3 5 5 5 5 4 2 6 3 2 3 1 2 4 6 6 8 10 9
2 1 4 1 2 5 3 3 4 5 6 5 5 7 5 3 3 4 5 5 3 4 3 1 3 5 6 7 11 9 6 4 3 6 6 7 6 5 5 4 3 5 5 6 1 0 2 3 4 4 5 7 7 6
3 4 2 2 2 3 3 4 4 5 4 5 6 5 3 2 3 5 2 4 5 4 3 4 6 7 7 8 8 4 3 4 2 1 2 3 3 5 5 5 4 4 3 1 3 0 2 2 3 3 4 5 6 7
4 1 2 3 2 3 3 3 3 2 3 3 5 2 1 2 3 2 1 4 4 1 1 4 6 5 5 7 5 2 2 2 1 3 3 4 3 2 1 3 4 3 3 1 1 2 2 2 2 1 3 3 4 5
4 2 2 3 4 3 2 3 3 3 3 3 2 3 2 3 3 1 2 4 6 3 4 6 6 8 8 6 8 7 2 2 3 5 2 2 6 2 0 2 3 4 4 4 2 1 2 2 3 3 2 3 4 4
2 3 3 4 4 3 4 3 3 2 2 2 2 1 1 1 1 2 2 4 6 5 5 6 6 6 9 12 12 7 9 2 3 8 1 3 4 4 3 2 4 2 2 2 1 2 2 3 3 4 4 3 4 4
1 5 6 4 3 4 2 2 2 2 3 2 1 1 1 2 1 1 2 4 6 6 6 6 8 9 9 7 11 11 8 4 6 4 2 5 7 3 2 1 6 5 4 2 2 3 5 6 4 5 7 5 7 6
2 4 5 5 3 2 3 3 4 4 3 2 2 2 1 2 2 3 2 3 5 6 5 5 6 6 8 10 10 8 6 4 4 7 10 5 7 4 3 4 6 5 5 4 2 4 4 5 5 5 6 6 5 6
5 3 6 6 5 6 4 3 3 3 3 3 2 3 1 1 3 3 3 2 3 5 6 7 7 7 8 9 9 8 9 12 12 11 11 8 8 9 7 7 7 7 6 6 6 4 5 6 6 5 5 5 4 5
4 4 5 6 6 4 4 4 3 3 3 5 2 2 3 4 6 6 6 5 5 5 4 4 5 6 8 9 9 7 5 2 2 1 3 7 8 6 5 4 4 6 6 6 7 8 9 8 7 6 7 7 6 5
4 8 5 4 4 4 3 6 3 3 4 4 4 5 6 7 6 8 5 7 6 4 4 4 4 4 6 6 7 7 6 5 4 4 4 8 8 7 7 8 7 7 7 8 8 8 8 7 6 6 6 5 5 5
3 5 4 6 5 3 3 4 3 2 3 4 3 4 6 7 8 8 7 7 7 7 6 5 5 5 5 5 5 4 7 8 9 7 8 8 9 8 7 6 6 6 7 7 6 5 4 4 4 4 4 4 4 4
5 6 5 4 3 2 2 2 2 2 0 3 3 5 7 7 7 10 9 11 8 6 6 5 4 6 6 7 8 9 11 9 10 11 11 10 9 8 7 6 6 5 5 5 5 4 4 3 4 4 3 4 4 5
4 6 7 5 3 2 2 2 1 2 3 2 6 8 9 7 4 7 11 13 8 8 8 8 9 8 7 8 9 10 10 9 10 9 10 10 11 10 7 6 5 5 4 4 4 4 4 4 3 3 3 4 4 5

GFSWCAN_850_spd_051.txt.gz
Wind_Speed
12 13 14 16 15 14 15 17 15 11 10 9 6 7 5 5 6 10 2 5 3 4 7 4 2 3 4 1 3 10 4 3 2 2 2 3 3 2 3 3 7 4 6 9 12 12 19 10 5 5 13 29 38 53
12 13 13 15 14 12 13 15 13 10 7 7 3 5 5 6 2 6 2 3 2 2 4 4 3 2 2 4 5 6 7 3 1 1 1 2 2 3 5 4 2 3 4 4 4 2 8 3 12 22 21 28 43 31
12 12 12 14 13 10 11 14 11 9 8 7 3 2 2 3 3 3 1 5 5 5 7 7 4 2 2 1 3 3 2 6 2 1 1 1 3 3 4 5 3 2 4 3 3 5 15 23 24 19 23 29 17 17
11 11 12 13 13 10 8 11 11 7 8 6 5 1 4 4 5 3 2 4 5 10 6 2 3 2 3 2 1 5 8 7 7 3 2 1 2 4 3 5 2 4 6 5 5 9 22 8 11 16 17 10 8 3
11 10 11 12 12 11 8 8 10 7 6 6 5 3 2 3 5 6 6 5 6 6 7 10 5 7 6 6 6 7 7 8 8 5 3 1 4 2 5 5 2 5 4 3 3 15 14 14 12 15 8 12 4 4
10 9 10 12 11 11 9 8 8 9 7 6 5 5 5 5 6 4 4 2 6 5 7 3 2 4 6 8 8 7 5 6 7 2 3 4 2 4 2 2 8 5 10 10 5 15 13 17 15 20 10 9 5 9
9 8 10 11 11 10 8 7 7 9 8 7 6 7 7 8 6 4 3 3 7 5 5 6 4 3 4 4 3 7 9 8 8 4 4 1 2 2 3 3 18 18 15 16 18 12 14 19 15 22 15 17 12 15
8 8 9 10 9 7 6 7 7 7 8 8 8 8 8 9 9 6 7 6 9 4 5 3 4 1 3 5 2 2 5 6 6 6 7 9 3 8 2 13 14 18 17 18 20 18 15 16 20 23 23 17 21 21
7 7 9 9 7 5 6 8 7 7 9 10 8 7 7 2 4 5 12 10 4 4 3 3 4 5 3 6 4 2 4 2 1 1 3 4 2 2 3 7 11 15 18 19 19 21 21 23 22 22 20 21 23 23
7 8 9 9 9 7 7 7 8 8 10 9 4 2 4 3 8 9 5 2 3 4 5 4 4 5 5 2 4 4 2 3 1 1 3 2 2 5 7 8 7 9 13 17 20 23 24 23 24 22 24 24 21 18
8 8 9 11 10 9 9 8 8 10 8 4 3 2 6 10 2 3 4 6 5 4 6 10 6 7 5 3 2 4 2 1 2 3 2 1 3 3 7 7 7 7 8 12 15 16 18 21 22 23 25 24 23 22
9 9 11 12 12 11 9 8 6 8 2 6 7 6 4 2 5 5 2 3 5 4 5 6 7 6 1 2 3 3 2 3 4 1 2 2 3 4 6 8 9 7 8 9 11 14 15 14 17 19 21 23 23 23
9 10 12 13 13 9 7 5 5 8 8 4 1 3 5 4 2 5 4 4 3 7 9 11 7 2 3 4 3 4 5 4 3 1 2 3 3 5 6 7 9 10 7 6 9 11 13 15 16 16 17 19 20 21
9 10 10 10 5 2 2 4 8 7 2 4 5 3 4 4 5 4 8 6 12 9 10 13 9 2 3 6 6 5 4 3 3 2 2 3 7 5 5 7 8 10 10 6 8 10 11 13 14 15 14 14 17 20
9 10 10 6 5 6 9 9 7 5 2 5 4 2 6 10 10 12 8 13 19 17 20 16 8 3 4 2 6 5 6 4 2 2 4 6 7 4 5 7 9 10 10 7 7 8 10 11 13 13 16 13 13 16
8 9 3 6 11 11 8 5 4 4 3 4 5 9 11 10 10 12 15 11 10 13 10 5 4 4 5 3 3 3 6 3 3 4 8 8 6 4 5 7 6 8 9 9 8 8 8 9 10 13 13 12 11 10
7 4 9 13 13 8 4 1 3 4 5 4 7 9 11 17 12 14 13 15 12 9 4 3 4 1 1 1 2 2 3 4 10 11 6 6 2 4 6 8 9 7 6 6 7 6 8 6 7 10 12 12 11 9
5 11 9 5 5 3 4 5 4 5 7 11 10 7 10 9 8 12 10 8 9 9 5 3 4 2 2 2 2 3 7 9 10 7 4 1 3 6 7 7 9 7 5 4 4 7 4 6 7 9 8 11 11 12
13 11 7 4 4 2 3 4 5 5 8 8 5 5 8 8 3 4 4 5 6 2 6 3 1 2 2 4 9 9 8 10 4 3 6 3 3 4 6 7 9 7 6 4 4 6 6 4 5 8 11 10 12 11
6 3 3 3 4 2 3 4 4 6 6 5 8 6 9 7 6 4 4 7 5 3 2 4 4 7 5 8 8 8 12 10 6 4 8 5 5 4 3 7 9 4 8 5 4 3 1 3 4 7 8 8 10 10
2 2 3 3 4 5 4 4 5 5 7 7 6 7 5 1 4 7 5 4 4 9 5 4 6 5 5 7 12 14 12 8 7 7 12 9 8 7 7 9 9 9 7 3 2 4 3 3 4 5 6 8 9 8
5 4 1 3 3 5 5 6 6 7 4 8 5 6 4 5 6 6 5 5 7 10 8 8 9 10 8 8 10 8 6 3 7 8 8 5 5 7 8 5 6 9 4 1 4 2 4 4 5 5 4 5 6 8
2 1 2 4 4 4 5 3 4 3 4 5 6 3 2 3 4 3 1 7 4 6 6 8 8 8 10 11 6 5 3 7 8 7 5 3 7 3 3 5 5 6 6 5 8 1 2 2 4 2 3 3 3 4
3 2 3 4 7 5 3 5 5 4 3 4 3 4 3 6 3 2 4 4 6 5 5 7 7 9 6 1 8 5 8 11 6 4 4 7 6 1 2 4 7 7 6 7 5 6 3 5 4 2 2 2 4 6
3 4 4 5 5 4 5 4 6 4 5 2 2 0 2 1 2 2 1 4 8 9 11 11 10 6 5 9 12 7 7 10 4 3 4 3 2 1 6 4 4 3 4 5 3 5 1 3 5 2 3 5 5 7
2 6 6 6 7 5 3 2 3 2 3 3 3 2 1 3 0 2 2 9 10 9 10 9 9 10 9 10 11 11 11 9 6 6 5 6 5 4 3 2 3 5 6 5 3 5 4 8 5 2 4 4 4 6
3 6 8 7 5 3 4 5 5 5 3 4 3 1 2 3 2 2 3 1 3 5 6 6 6 7 8 8 8 8 8 8 10 9 7 7 6 6 4 3 7 6 7 7 4 5 6 9 7 5 6 7 7 7
7 4 7 10 8 8 5 5 3 4 4 2 2 3 2 4 3 4 4 2 3 5 4 5 6 6 7 7 6 6 6 8 10 8 7 8 7 6 5 5 4 7 6 4 6 8 9 7 7 7 6 5 5 5
6 7 7 6 8 5 5 5 7 5 3 6 5 2 3 4 5 6 6 3 3 2 2 3 3 4 5 7 6 4 3 2 3 6 4 5 5 6 5 5 5 5 5 5 7 8 9 8 7 7 6 6 4 4
8 9 8 7 7 8 9 5 6 9 7 5 2 5 8 9 6 7 5 3 3 2 2 3 3 3 3 3 4 5 5 3 2 4 7 7 8 7 7 6 5 6 6 6 7 6 8 6 6 5 5 4 4 4
2 7 8 13 12 13 4 3 3 2 1 2 2 4 11 6 4 4 4 3 4 3 2 2 3 3 3 2 2 3 5 6 6 6 7 7 7 7 6 6 5 5 5 5 4 4 3 4 3 3 4 4 4 4
7 8 11 11 4 3 2 2 1 2 2 2 5 5 2 4 6 6 5 6 5 4 2 2 2 3 4 5 6 8 10 9 10 9 7 6 6 7 6 5 4 4 3 3 3 3 2 3 3 3 4 4 4 5
5 8 6 9 8 2 1 2 4 5 5 5 5 6 10 13 3 5 6 7 4 4 5 5 5 6 7 7 8 9 8 7 10 12 13 12 11 10 7 4 3 3 3 3 2 3 3 3 3 3 3 3 4 5

GFSWCAN_850_spd_054.txt.gz
Wind_Speed
11 12 13 15 16 15 13 15 15 11 7 4 4 6 5 6 6 11 3 6 4 7 7 4 1 2 2 1 2 9 1 4 5 4 3 3 3 3 3 3 7 5 6 3 8 10 14 20 15 9 11 17 16 23
10 11 12 14 15 13 11 13 13 9 6 5 2 2 3 4 4 8 5 8 5 3 5 6 5 4 3 1 3 6 3 5 4 1 1 0 1 2 4 2 3 2 4 4 4 5 17 22 16 23 22 24 34 27
9 10 10 12 14 13 10 11 12 8 8 6 4 4 3 4 5 5 2 6 8 10 15 12 7 6 3 2 1 3 3 3 3 1 2 0 3 2 3 3 1 6 8 3 6 4 19 27 31 26 27 30 34 33
9 9 9 11 13 12 11 10 10 9 7 7 5 3 5 5 6 6 3 5 8 11 7 3 5 4 3 6 4 4 7 4 4 6 4 2 2 4 2 3 2 2 6 5 7 16 18 12 17 24 25 24 30 33
9 8 8 11 12 12 11 10 9 9 7 7 6 4 4 4 6 10 8 6 4 7 7 15 9 11 9 6 8 9 10 11 3 5 5 5 4 4 4 3 1 4 3 2 4 17 15 18 22 18 35 22 23 17
9 7 8 10 11 11 11 10 8 8 8 7 7 6 6 5 6 7 3 1 4 4 5 4 3 6 9 5 7 9 10 12 7 7 9 2 3 5 2 0 5 5 7 2 6 20 11 21 16 22 23 21 6 10
9 7 7 9 9 9 9 8 7 7 7 7 7 7 8 6 6 4 3 6 6 6 4 5 4 3 1 4 6 9 9 12 12 8 12 6 7 5 2 2 12 4 0 3 7 11 8 17 17 21 17 19 17 13
9 7 7 8 8 7 8 8 7 7 7 8 8 8 8 8 8 6 6 7 6 4 5 3 4 4 5 2 3 6 4 8 5 9 5 2 3 6 0 7 6 11 5 4 4 9 10 14 14 19 20 17 19 20
9 6 7 7 7 7 8 8 8 8 8 9 8 7 6 2 3 6 12 15 7 6 4 3 3 4 5 3 2 4 5 3 7 4 1 4 2 2 4 6 4 4 9 12 10 12 9 12 14 15 25 19 17 17
9 6 7 8 8 9 9 10 9 10 10 7 3 1 4 5 8 12 4 3 6 7 8 8 15 5 8 3 3 4 6 4 2 3 7 3 3 9 5 3 2 1 6 9 10 10 14 15 13 12 14 24 19 16
8 6 8 9 10 10 10 10 8 8 5 4 4 2 8 11 3 4 5 7 10 7 9 14 14 11 5 3 4 3 2 2 1 4 5 4 2 5 5 3 3 1 2 2 7 9 7 9 12 12 12 14 21 20
8 7 8 10 12 12 12 10 8 6 3 8 11 12 7 4 6 7 5 5 2 3 4 11 4 5 4 2 4 5 3 3 3 7 3 1 1 0 3 2 6 3 3 1 1 4 7 8 8 9 11 11 14 18
7 8 9 10 13 10 7 6 5 6 9 5 3 4 5 5 2 5 1 4 6 11 16 28 18 5 1 2 4 3 3 2 5 4 2 2 2 2 3 5 6 5 2 2 4 2 7 8 8 6 9 12 11 13
7 9 10 9 7 3 1 2 5 8 4 5 6 3 4 5 1 4 4 10 3 5 10 9 14 3 6 5 5 5 4 4 2 2 1 4 4 5 5 6 7 9 9 4 6 3 6 6 10 5 6 8 10 10
8 9 10 10 7 6 7 8 7 6 3 6 5 3 6 7 12 4 10 7 8 4 2 11 9 7 4 2 3 3 3 3 3 3 3 1 4 6 5 7 8 9 9 7 5 5 7 6 9 11 4 4 7 10
7 9 6 4 7 12 12 7 5 4 4 6 6 9 8 4 10 15 7 15 17 19 14 6 5 3 3 1 2 1 5 2 3 6 1 3 3 4 5 7 9 10 7 5 6 7 8 7 6 8 11 1 4 7
6 2 6 10 16 12 6 2 2 5 6 5 7 2 9 16 11 20 10 10 13 11 5 5 3 1 3 2 2 2 3 5 9 11 5 4 4 5 7 8 8 9 9 7 6 7 6 8 8 8 9 11 5 8
2 12 14 10 11 5 5 7 5 7 10 15 13 9 11 10 10 9 9 9 11 12 10 7 1 2 2 5 4 5 10 10 10 12 8 3 3 5 7 8 8 9 8 5 6 6 5 7 8 8 11 13 12 13
7 13 15 6 8 5 4 7 7 6 11 9 6 10 8 3 4 8 10 5 4 7 3 2 2 3 3 5 9 11 17 16 5 17 1 1 6 6 8 8 9 10 10 9 6 5 1 4 7 8 10 11 13 11
11 7 4 4 7 3 5 5 7 7 6 6 11 7 7 16 10 3 3 6 3 2 1 2 3 6 9 5 10 11 10 14 9 7 10 3 6 6 8 11 10 12 13 7 6 1 3 0 4 4 10 11 9 12
4 2 4 6 6 8 6 7 12 9 6 8 8 7 3 2 2 6 8 3 4 7 5 8 6 7 4 9 11 10 9 10 11 13 13 11 4 7 9 11 10 10 12 9 4 4 1 4 5 4 7 8 10 8
3 8 4 4 5 8 8 10 8 6 8 7 12 3 3 8 4 5 5 1 4 7 5 6 9 11 6 9 7 5 6 7 7 10 17 8 10 9 9 8 9 7 15 5 8 7 8 9 5 5 7 6 6 8
4 4 5 7 7 4 7 9 7 10 4 5 8 1 4 1 0 6 5 6 3 2 2 6 7 8 8 4 8 6 8 5 7 6 3 3 10 7 7 8 9 10 9 7 6 5 8 8 2 4 5 7 7 8
4 4 5 6 10 6 12 11 13 11 9 2 6 3 2 3 3 5 2 3 4 1 1 6 3 4 5 7 7 4 8 11 7 5 6 8 5 4 8 9 10 7 8 10 14 11 5 7 8 6 7 8 8 7
4 6 6 7 6 8 7 6 16 4 7 11 12 3 5 4 3 3 3 2 5 8 9 9 9 8 6 9 11 10 11 11 9 9 9 8 6 5 7 5 6 9 7 6 6 13 14 13 5 9 9 7 10 10
4 7 7 6 11 10 7 11 6 1 8 10 4 8 3 4 4 3 3 12 6 8 9 8 8 9 9 9 9 10 10 9 10 11 9 9 10 9 8 8 10 10 13 11 8 8 8 8 7 7 9 10 10 10
4 7 13 17 15 12 9 5 13 7 10 6 5 7 6 5 3 4 13 13 5 4 5 6 6 7 7 6 7 8 9 10 12 11 10 9 9 9 7 7 6 8 10 12 13 9 5 7 9 9 9 9 7 7
11 9 11 12 13 15 13 9 10 4 6 10 5 2 5 6 5 8 13 6 3 4 4 5 6 6 6 5 5 5 5 6 8 9 9 8 8 7 7 9 9 11 10 9 8 10 8 10 7 6 6 7 8 7
11 15 16 15 15 11 11 15 4 5 2 13 4 2 6 13 13 12 8 7 7 2 2 2 3 2 4 5 4 3 2 1 4 6 5 6 8 8 8 7 7 7 7 7 6 7 9 9 9 8 7 7 7 6
15 15 17 13 13 11 9 6 16 20 29 10 12 19 20 13 9 7 7 7 4 2 2 3 3 2 2 1 3 4 4 3 4 4 6 8 8 7 7 7 7 7 6 6 8 8 7 6 7 6 7 7 7 8
16 13 13 15 9 5 5 12 24 21 8 13 12 15 9 7 4 4 2 1 3 2 2 2 3 3 3 2 2 4 5 5 6 7 8 7 7 6 5 6 5 6 5 4 5 5 5 5 6 6 6 7 7 7
12 12 13 12 9 4 2 8 28 5 7 13 8 5 5 4 5 8 5 4 3 3 1 1 2 2 3 4 4 8 10 10 11 10 7 7 7 7 5 4 4 4 3 4 4 4 4 5 5 5 5 5 5 6
12 8 14 13 9 7 3 6 11 4 12 9 2 4 5 3 3 3 5 7 5 1 5 5 5 5 7 7 8 8 8 7 11 13 11 11 11 9 7 6 5 3 3 3 3 3 4 4 4 4 4 4 5 6

GFSWCAN_850_spd_057.txt.gz
Wind_Speed
14 12 12 13 14 15 13 13 16 13 11 9 5 5 6 7 8 7 8 17 7 4 2 5 0 3 3 4 2 6 2 9 6 4 3 2 2 2 2 2 5 4 5 3 5 3 5 30 17 6 14 33 24 32
13 11 11 12 14 14 13 11 13 12 11 10 7 5 4 5 6 7 9 13 13 3 8 10 6 6 3 2 0 5 6 2 3 1 1 0 1 2 2 2 2 1 2 3 3 5 21 16 15 24 21 27 33 30
10 10 11 11 13 13 13 11 10 12 11 10 9 7 6 6 7 5 2 5 9 9 14 10 11 10 4 5 1 1 5 6 5 6 4 1 2 2 2 1 1 2 2 2 5 3 15 24 20 20 25 29 36 40
10 9 11 11 12 12 12 11 9 10 11 10 9 7 6 5 6 7 7 2 3 6 5 3 3 5 5 9 4 5 3 1 7 7 4 3 3 7 2 1 2 3 5 3 5 13 22 9 28 25 27 25 29 37
9 9 9 11 12 12 13 11 8 8 10 10 9 7 6 6 7 8 6 6 2 4 4 12 10 14 12 10 11 10 10 7 9 7 3 3 4 4 4 1 2 5 4 2 3 15 14 19 26 25 25 29 28 37
9 8 8 10 11 11 11 10 8 8 9 9 9 8 7 7 7 6 2 1 3 4 4 4 3 6 11 14 12 10 9 13 9 5 6 7 8 10 4 4 7 10 11 13 6 15 17 17 20 23 22 23 20 22
10 9 7 9 9 9 9 9 9 8 8 9 10 10 9 8 9 6 5 8 8 6 3 5 4 12 3 20 12 12 12 14 11 7 6 1 8 7 1 2 6 7 7 11 14 13 11 10 14 19 24 20 17 16
11 9 7 8 8 8 8 8 9 9 10 11 11 11 10 10 12 12 8 11 11 5 6 3 4 7 16 13 9 16 11 9 8 8 4 11 9 2 2 5 4 5 7 5 8 13 14 12 13 14 22 26 20 19
11 8 7 7 8 8 8 8 10 11 12 12 13 11 9 5 2 5 11 9 10 8 6 5 3 3 14 12 9 10 9 3 7 6 8 5 3 2 7 6 7 6 4 1 5 5 7 10 13 13 13 25 27 22
10 8 7 7 8 9 10 9 10 11 13 12 9 4 3 4 8 13 6 1 6 7 6 6 9 6 4 6 6 6 4 2 2 5 11 3 3 7 10 11 10 8 6 5 4 5 8 13 12 12 12 15 23 25
10 8 7 9 10 11 12 9 10 10 9 7 3 3 8 10 6 2 4 7 6 3 3 9 12 11 6 4 7 9 1 1 2 4 5 3 2 7 11 12 8 8 8 7 4 4 6 9 11 11 10 16 18 21
9 8 8 9 12 13 13 10 9 8 6 5 12 20 8 3 4 5 1 6 3 3 4 4 5 4 3 2 4 1 2 1 2 10 3 1 2 10 7 11 8 8 8 6 7 7 7 6 7 7 8 9 15 15
7 8 9 10 11 10 8 3 4 6 9 10 4 4 5 5 1 3 3 2 3 4 5 7 8 4 2 6 5 1 5 2 4 2 2 1 6 7 3 1 5 4 3 6 6 4 6 5 6 11 5 6 12 15
7 9 10 10 9 6 2 2 4 9 7 3 4 4 4 4 1 5 4 6 12 15 13 17 12 4 2 2 3 2 1 2 2 2 1 1 2 9 6 3 2 7 2 1 1 2 6 4 6 4 3 5 10 9
7 9 11 12 11 8 6 8 10 8 4 5 6 3 5 7 11 4 5 11 16 12 5 8 3 4 3 3 2 3 2 2 2 3 1 2 5 3 2 1 5 3 7 2 5 5 3 3 7 4 3 3 4 7
6 7 4 4 1 6 13 13 7 5 3 6 7 7 9 7 9 10 7 10 14 12 7 2 3 3 3 1 2 2 5 3 3 6 3 3 2 4 1 3 3 4 5 3 4 1 5 7 1 7 3 5 1 4
6 3 4 8 11 13 8 3 2 5 6 6 8 14 7 3 5 0 13 6 11 10 4 2 3 3 1 1 0 1 3 6 18 4 1 3 7 6 3 1 4 5 7 8 3 2 4 3 2 6 6 4 6 4
4 9 11 11 15 12 6 7 4 7 11 13 13 13 18 17 12 12 2 4 5 5 4 3 1 1 3 3 2 3 7 19 10 12 10 12 7 2 2 2 5 7 8 7 3 5 3 4 6 3 13 13 10 8
8 13 19 14 10 6 3 5 8 6 9 17 15 16 5 10 4 4 6 2 3 5 3 2 2 2 1 4 8 8 8 12 13 5 5 5 8 9 7 5 6 14 9 7 6 3 7 13 5 11 15 12 11 9
13 12 11 7 7 4 4 6 12 7 6 8 11 13 5 5 1 2 2 8 6 8 2 0 1 3 4 4 6 10 12 11 13 9 11 4 10 13 6 6 9 12 14 10 9 6 5 6 5 8 7 12 13 9
6 2 2 5 7 10 5 8 8 7 7 9 3 13 4 9 4 8 7 3 1 3 3 2 4 4 1 4 8 8 6 11 9 8 10 7 9 10 9 12 8 12 14 7 2 6 2 2 14 12 10 15 8 9
3 6 7 5 5 6 9 11 9 5 6 13 12 4 4 5 7 7 5 1 2 5 4 2 1 3 2 4 7 1 6 8 5 5 9 12 13 11 9 10 11 9 12 15 10 9 5 8 11 5 11 16 11 8
5 5 6 7 7 6 9 14 14 17 8 8 6 11 8 7 9 9 4 1 1 3 5 1 4 3 5 2 2 5 8 11 5 4 5 7 7 6 8 10 14 8 11 14 9 8 8 6 7 8 9 8 10 11
3 4 5 5 12 5 6 9 10 10 11 1 3 5 6 2 8 3 3 3 7 3 2 5 4 5 2 8 4 5 12 12 11 13 12 10 10 13 15 13 14 13 13 15 14 13 4 12 13 13 10 14 12 12
4 6 5 7 6 6 5 6 11 10 3 3 4 3 5 11 2 1 4 4 7 8 8 7 8 11 11 12 14 15 14 12 16 12 11 11 8 14 13 14 16 16 14 9 9 13 11 14 15 11 11 13 10 14
3 5 7 5 8 7 5 10 4 7 4 6 7 7 4 1 3 1 3 9 5 6 7 7 7 9 13 12 13 15 14 13 13 13 12 12 11 12 11 13 17 16 18 17 13 12 7 8 12 10 12 11 11 10
3 6 11 13 11 12 8 7 2 3 4 3 2 3 2 5 7 2 8 7 7 5 5 7 6 9 10 11 10 9 7 9 10 12 12 12 14 13 11 9 12 13 13 10 12 12 13 14 10 11 12 11 11 10
10 9 11 14 13 17 14 11 3 3 4 3 2 3 3 5 4 5 5 9 10 7 5 5 9 8 8 8 6 7 7 8 10 9 11 11 9 8 12 14 12 14 13 13 13 15 12 10 10 10 11 10 8 8
7 9 16 18 20 16 6 6 5 5 8 7 2 5 3 3 10 10 6 10 9 6 8 10 6 7 9 8 6 4 4 10 7 7 9 13 11 9 8 7 10 10 14 12 8 8 8 10 11 10 10 9 11 8
16 17 16 17 15 6 5 4 9 11 1 11 8 8 9 13 12 3 9 9 5 6 6 6 5 4 4 7 7 7 5 6 9 8 11 12 11 9 8 9 9 9 7 7 8 10 9 10 10 8 8 9 9 7
13 15 18 19 5 10 13 19 4 3 8 14 17 14 10 8 9 8 2 2 5 4 6 9 6 4 4 5 5 8 8 5 6 11 10 11 11 9 8 7 7 7 6 6 7 8 8 7 6 8 8 7 7 7
14 16 6 4 2 9 14 17 10 5 21 15 12 10 11 9 7 6 6 5 6 6 4 5 7 6 6 3 7 12 14 13 11 12 14 13 11 9 6 6 6 5 5 5 5 6 6 6 5 5 5 5 6 7
7 14 9 6 4 4 9 11 8 3 7 8 9 15 10 7 5 4 8 5 4 7 11 11 11 10 11 10 11 10 8 10 13 11 11 12 11 8 11 12 8 6 5 4 4 5 5 5 5 4 5 6 6 6

GFSWCAN_850_spd_063.txt.gz
Wind_Speed
11 13 14 10 9 9 9 10 8 9 9 9 8 4 4 5 7 7 6 6 3 2 4 4 4 3 3 3 3 1 2 4 4 4 3 1 2 2 1 2 1 3 3 2 2 1 6 7 5 1 8 17 16 23
11 11 10 9 8 8 9 9 9 7 8 7 8 6 4 5 6 6 5 7 8 5 5 9 10 10 7 6 7 4 1 2 4 4 1 2 1 2 3 2 1 3 5 4 7 5 3 1 4 7 8 14 20 24
14 11 10 8 8 8 9 10 9 7 6 6 7 7 6 5 5 5 7 9 6 5 9 7 9 10 13 10 5 6 5 6 6 5 7 3 2 3 4 5 5 3 4 2 3 4 6 9 11 7 11 17 22 27
14 12 11 9 8 8 8 9 8 6 5 5 6 7 6 5 5 6 7 7 3 3 2 5 6 8 11 15 13 10 7 13 11 9 4 3 3 9 4 3 3 5 7 5 4 15 20 17 11 11 15 17 22 27
14 14 11 8 7 7 7 6 6 5 4 4 7 7 7 6 6 6 6 2 1 4 4 9 15 11 17 19 19 17 16 16 15 7 3 4 5 4 2 1 4 12 6 5 6 11 8 10 8 11 17 15 20 25
15 16 13 10 7 6 6 4 5 5 4 5 8 8 8 6 5 3 2 3 3 4 5 3 9 6 7 24 21 26 23 20 12 8 6 6 6 9 3 4 10 21 19 20 6 3 11 15 18 18 17 18 19 22
18 18 13 10 8 5 5 4 3 5 6 6 9 10 9 7 4 3 2 2 5 4 3 6 8 3 6 10 21 23 23 12 8 7 11 10 9 15 3 4 6 15 21 19 14 17 17 13 12 14 18 22 21 21
18 18 13 11 7 4 5 6 6 7 8 8 11 10 7 3 1 2 2 7 8 5 2 2 5 6 2 4 5 5 8 10 8 4 5 7 10 6 4 13 9 14 14 18 16 16 18 16 18 16 14 15 17 18
14 16 12 10 6 5 6 6 7 7 8 8 10 8 3 3 2 5 7 3 10 5 3 2 2 3 3 2 2 3 3 2 2 4 6 11 3 4 8 11 16 16 13 6 7 12 17 17 18 16 14 15 15 16
17 13 10 9 5 5 6 8 8 8 8 8 8 1 1 2 6 6 1 2 5 5 5 6 4 3 3 1 2 2 1 2 2 4 8 4 3 8 8 9 12 13 13 9 11 12 9 12 12 13 15 17 16 16
14 12 10 7 5 6 7 10 10 9 6 3 2 0 3 4 2 1 1 3 3 3 6 6 8 4 4 3 3 1 1 1 1 3 1 2 2 5 6 6 10 12 9 14 17 14 13 11 13 15 18 15 15 15
12 10 9 6 5 5 7 7 5 4 2 2 4 8 7 2 2 1 2 2 4 4 5 5 5 5 3 4 2 1 1 1 3 2 1 3 4 12 9 8 8 8 10 14 16 19 18 14 10 12 14 15 13 13
8 8 7 5 5 5 4 4 3 1 3 6 1 1 3 4 1 4 3 3 3 5 6 6 1 2 3 3 2 1 1 3 1 2 2 4 9 11 13 12 9 9 11 13 15 15 17 14 11 12 14 12 10 9
6 6 6 6 8 7 5 3 1 5 4 2 2 3 4 4 4 5 5 4 8 8 8 9 3 4 3 2 2 2 2 1 2 2 4 3 15 13 10 12 13 13 14 18 16 14 14 12 14 11 7 6 8 6
3 5 5 6 7 7 8 8 6 8 3 3 3 4 6 10 6 6 12 12 11 11 11 1 3 3 0 2 1 2 1 3 4 4 3 12 12 12 12 13 16 16 15 16 13 12 10 11 13 13 7 6 7 4
4 4 4 3 2 3 2 7 9 6 3 4 6 4 8 3 5 6 11 11 6 3 2 3 3 2 1 2 1 3 1 3 4 4 16 15 14 15 15 13 11 18 17 18 15 13 13 12 11 11 8 7 3 3
4 5 7 4 3 6 9 5 3 4 4 4 7 13 20 20 17 16 12 6 2 4 2 4 2 1 2 1 2 3 4 4 11 11 11 12 13 16 12 19 21 18 15 16 21 14 11 12 12 9 9 7 2 2
3 4 5 5 7 11 7 6 4 4 6 11 7 15 14 16 12 14 10 2 3 4 5 3 6 2 2 2 3 4 8 13 9 11 7 5 8 8 8 7 11 16 15 15 9 10 9 8 5 9 9 7 3 5
5 7 9 9 9 8 3 4 6 5 11 13 14 18 16 13 14 14 8 5 6 5 6 5 3 2 3 7 7 7 5 5 6 3 2 5 8 8 5 5 8 7 9 7 7 7 11 8 6 6 9 6 4 5
7 9 11 9 6 5 4 4 6 6 6 4 8 6 6 5 12 8 10 9 8 5 2 2 3 5 8 8 3 1 1 2 1 2 0 2 4 3 1 1 9 11 7 3 4 5 6 6 4 13 10 7 4 3
5 1 1 1 3 8 5 4 7 7 6 5 5 3 1 4 9 11 9 6 8 3 3 4 4 11 3 4 2 2 1 1 2 3 3 5 3 2 6 7 6 8 7 7 5 7 6 6 4 3 6 6 5 3
2 3 4 5 5 5 7 9 7 5 5 7 5 2 4 2 6 3 8 2 4 4 8 6 13 8 8 5 3 2 1 1 2 7 9 5 4 5 2 2 4 3 4 9 5 2 3 4 4 8 11 8 7 10
6 3 4 4 4 6 7 8 6 4 3 2 4 3 4 4 3 2 2 4 3 8 8 8 9 9 8 9 5 2 3 6 7 4 6 6 8 7 6 6 2 3 4 4 3 2 3 3 9 9 5 7 7 7
5 3 4 4 8 5 4 5 6 5 4 2 2 2 1 1 2 1 3 1 1 6 7 5 9 13 12 8 7 9 7 5 7 7 5 5 6 8 7 6 5 3 7 6 2 3 6 12 10 2 6 9 11 8
3 5 5 6 6 4 3 3 2 1 2 1 1 0 1 1 2 2 0 3 11 13 3 7 10 11 16 16 14 11 7 4 9 8 7 6 7 8 7 8 5 3 7 9 10 10 9 9 8 8 6 7 7 7
2 5 8 5 4 4 4 2 3 3 2 1 2 1 2 1 2 2 1 9 7 5 13 12 15 15 12 10 14 12 9 7 7 8 9 6 2 3 5 7 9 10 8 8 9 11 10 9 8 8 8 7 8 8
3 6 9 9 7 5 4 3 3 3 2 3 2 2 1 2 2 2 9 10 9 12 12 7 6 9 14 14 12 10 9 7 7 9 9 4 3 2 3 5 10 10 9 8 8 8 9 8 8 7 8 7 5 4
9 6 6 4 5 7 5 3 3 4 3 4 4 3 3 6 3 7 8 11 12 10 10 8 7 7 7 8 8 11 11 10 11 12 10 12 13 9 6 7 7 8 7 8 8 8 5 6 7 6 6 7 7 5
7 9 6 8 7 6 5 7 7 6 7 9 5 2 2 3 7 6 11 10 15 13 11 11 9 8 9 8 10 11 11 14 17 17 13 12 11 10 11 12 7 6 6 6 6 7 6 4 5 4 3 5 5 4
7 13 7 4 4 4 3 4 5 7 8 4 3 2 2 5 7 6 10 14 15 13 9 9 10 14 14 15 15 19 19 16 13 11 11 13 11 9 9 9 9 10 9 6 4 6 4 5 6 5 3 4 6 8
4 5 6 5 2 2 2 3 6 6 4 2 3 4 3 5 6 8 12 11 10 9 10 15 16 15 17 17 14 12 18 23 19 18 7 10 9 7 7 8 7 5 4 4 3 3 1 2 3 6 7 5 5 6
8 12 8 4 4 6 6 4 3 2 3 2 2 8 5 3 3 8 10 6 9 11 14 13 16 17 22 18 13 11 11 9 15 19 16 12 10 7 6 7 7 5 4 4 3 3 2 3 2 3 3 4 5 5
5 5 6 6 5 3 4 4 3 2 2 1 1 5 6 3 3 4 8 13 9 8 13 15 10 8 9 10 13 13 8 12 16 16 13 10 10 9 9 7 6 5 5 3 3 3 4 3 1 0 1 4 6 6

GFSWCAN_850_spd_066.txt.gz
Wind_Speed
13 11 12 13 10 10 10 9 9 8 7 7 8 6 5 6 5 6 5 7 5 2 5 8 7 6 5 4 3 4 2 2 4 4 3 2 2 2 1 3 1 3 3 1 3 2 5 3 2 2 2 8 9 13
15 12 12 12 10 10 10 9 9 7 6 7 8 7 6 6 5 5 5 7 8 4 4 9 11 9 7 5 5 5 1 3 4 4 2 3 2 2 4 2 2 1 5 4 6 5 4 6 3 5 7 9 13 14
16 13 12 12 11 10 10 10 9 7 5 5 6 7 6 6 5 5 6 7 8 4 7 8 9 15 15 11 5 4 4 5 4 3 7 3 3 4 4 4 4 4 7 3 3 3 8 11 5 8 5 8 8 13
17 12 12 13 10 10 9 8 7 6 3 3 5 6 6 6 6 6 7 7 3 3 1 2 5 3 8 14 14 11 3 9 10 7 3 3 3 9 4 3 4 5 8 4 4 13 18 16 11 6 9 11 13 14
17 12 13 12 11 10 8 7 6 5 3 3 5 7 7 7 7 6 5 2 3 5 3 8 11 6 14 11 17 18 14 12 11 5 2 3 5 4 2 2 3 13 7 6 6 11 5 5 4 7 11 15 17 20
17 15 14 16 12 10 7 5 4 4 3 4 6 8 9 8 6 4 1 1 3 5 4 3 6 3 2 7 16 22 18 16 11 4 4 4 4 8 4 4 9 20 18 21 4 6 4 6 9 9 12 12 15 20
16 15 16 16 13 10 6 5 5 5 5 7 8 10 9 8 5 2 1 3 2 3 3 6 9 2 7 3 7 17 18 8 6 7 8 7 10 8 3 4 6 15 17 19 18 12 10 13 10 6 10 13 14 16
17 17 17 15 12 10 6 6 6 7 7 8 9 10 8 3 2 2 1 4 3 2 2 1 5 5 4 2 1 4 5 10 7 5 2 2 2 6 4 15 12 12 15 18 19 17 16 13 13 14 16 16 16 17
14 14 15 14 12 9 5 5 6 8 8 8 8 7 2 1 1 4 4 1 5 2 1 0 1 3 3 1 1 2 3 2 2 2 1 2 1 4 7 6 13 15 16 13 14 17 18 18 17 15 14 15 16 19
11 12 16 13 10 6 4 6 8 9 9 8 6 1 1 1 3 2 2 1 4 3 4 4 4 3 2 0 1 1 1 1 1 0 3 2 3 17 15 9 12 9 15 13 11 14 14 12 10 11 11 11 14 17
15 16 12 11 7 4 4 7 10 9 7 3 1 1 2 3 1 1 2 3 3 2 5 6 9 3 3 2 3 1 2 1 1 3 1 2 3 5 10 11 6 9 12 14 17 15 12 13 8 9 11 12 13 15
13 10 9 8 5 2 4 7 7 3 2 2 2 7 5 2 2 1 2 1 3 4 5 5 4 5 2 3 1 1 1 1 3 1 0 2 4 6 10 9 6 9 12 13 11 15 17 19 16 13 13 13 15 13
8 7 8 6 4 3 3 3 3 1 2 4 2 2 2 3 1 4 4 2 2 5 7 7 4 4 4 3 3 1 2 3 2 1 2 4 12 17 10 9 10 8 9 11 11 13 13 12 15 14 14 14 14 11
6 6 4 5 6 6 6 5 4 4 3 2 2 3 3 3 5 5 4 4 3 5 9 7 4 3 3 2 3 2 1 1 2 2 4 3 16 18 12 13 12 10 10 12 16 16 14 13 13 11 11 11 10 10
4 3 3 3 6 8 8 9 8 6 4 3 3 4 6 10 8 7 8 8 8 6 6 5 4 5 2 2 1 2 2 3 4 4 3 10 16 15 14 17 17 14 12 14 15 15 16 14 13 12 10 10 9 8
3 2 3 3 1 2 0 4 8 7 4 4 6 4 8 4 7 5 6 11 9 5 6 4 3 1 2 3 2 5 3 4 3 4 10 13 15 12 15 16 14 14 19 22 19 12 18 17 17 15 12 10 8 6
1 1 6 5 4 6 8 6 3 5 4 4 7 11 17 19 17 20 12 8 9 6 3 4 4 3 4 1 2 3 4 4 6 11 13 13 12 12 12 11 14 15 17 14 12 13 14 16 18 16 14 10 8 5
1 1 5 7 8 11 10 4 4 4 6 9 6 10 11 14 15 12 6 8 10 5 6 4 6 3 4 3 3 4 9 7 8 8 10 8 9 10 12 11 11 15 16 16 16 15 11 14 2 2 9 9 8 7
4 5 7 9 10 8 4 3 5 5 11 8 13 17 15 12 11 9 7 6 5 5 5 4 4 2 2 9 7 5 7 4 5 7 6 7 7 7 7 7 8 14 13 10 10 8 10 11 7 6 9 9 7 6
7 7 10 12 10 4 4 4 6 6 6 3 8 8 5 5 6 2 2 6 8 7 4 3 5 9 13 13 7 4 3 2 2 4 5 4 5 5 3 7 10 11 11 10 7 9 7 4 5 2 12 8 4 4
6 2 4 2 4 8 5 4 6 6 7 6 7 5 5 6 5 5 5 3 7 4 5 3 9 5 9 5 3 3 4 3 3 4 4 3 6 5 7 5 9 10 15 17 12 10 8 8 1 3 7 7 5 7
2 3 5 5 4 4 7 8 7 5 5 7 6 5 4 2 3 2 5 3 4 4 8 9 10 6 8 7 5 4 2 2 1 4 6 4 6 8 8 8 7 10 15 14 11 9 12 11 6 12 8 9 10 9
9 5 4 4 3 4 6 5 5 4 3 2 1 2 2 1 2 3 2 2 2 4 8 8 6 4 8 7 4 3 2 1 4 7 9 7 7 9 8 7 5 11 14 10 9 11 4 8 18 12 11 12 11 10
6 3 3 4 7 5 3 4 6 4 3 2 2 2 1 1 3 2 1 2 3 5 9 7 1 9 10 9 8 9 6 3 5 7 6 4 4 5 4 6 7 11 14 13 13 13 8 10 15 14 12 12 11 11
2 5 4 6 5 3 3 3 3 1 3 1 1 1 1 0 1 1 1 1 11 11 2 7 8 12 12 11 12 10 7 4 4 5 5 5 7 6 7 8 7 8 10 9 9 11 10 7 6 8 10 7 6 7
1 5 8 5 3 4 4 3 2 3 2 1 1 2 1 2 2 2 2 6 4 8 5 6 13 14 11 9 12 11 10 7 6 8 7 5 6 9 7 8 8 8 7 7 8 9 9 9 10 10 11 11 9 7
3 5 7 7 5 5 5 4 3 2 3 3 3 2 1 1 1 3 3 7 8 8 9 7 7 7 14 16 14 13 12 11 10 9 5 4 4 5 6 7 8 8 7 5 6 7 8 7 8 9 6 4 5 5
7 4 5 2 5 6 3 3 3 4 2 3 6 3 2 3 2 3 8 10 7 12 12 12 11 11 11 12 12 12 13 10 10 10 12 12 7 5 7 6 6 7 8 6 4 5 8 7 5 7 8 9 8 5
6 6 4 5 6 6 6 7 3 1 3 5 2 1 2 1 3 3 8 12 13 15 15 14 13 12 12 11 12 13 10 9 9 10 8 9 9 10 9 6 4 5 4 4 4 3 4 5 5 5 6 6 6 9
7 12 5 4 3 4 3 3 2 2 6 6 4 3 3 4 4 5 8 13 16 14 9 10 11 12 12 13 13 14 15 11 8 1 3 7 9 8 8 9 9 7 5 3 3 4 5 6 6 5 5 5 6 7
3 6 5 5 4 4 4 2 6 7 5 3 2 3 4 4 4 3 7 12 13 12 13 14 16 14 15 15 15 12 12 13 15 10 4 7 8 8 7 6 4 2 2 3 2 3 3 2 3 4 5 5 5 6
8 11 6 4 3 4 8 3 3 2 3 2 4 6 6 4 4 6 11 13 15 17 16 16 15 14 13 14 11 10 4 5 11 16 13 8 9 8 6 7 5 2 2 1 1 2 3 2 2 2 5 6 6 6
6 7 7 5 4 5 5 4 3 2 2 3 4 8 8 5 4 6 9 16 15 8 9 7 6 8 10 11 12 11 7 5 6 12 15 11 10 8 6 5 6 3 2 1 1 1 1 2 4 5 4 4 5 5

GFSWCAN_850_spd_069.txt.gz
Wind_Speed
19 16 13 13 11 9 9 10 10 10 10 9 8 8 6 5 5 7 5 5 4 2 6 9 8 7 6 4 2 4 2 1 2 2 1 3 3 3 1 2 3 4 5 3 2 2 5 12 6 5 5 4 3 1
20 17 14 13 11 9 9 9 9 9 8 7 8 8 7 6 5 6 4 6 7 4 3 9 13 10 6 2 4 6 2 3 3 3 2 2 2 4 4 2 4 3 3 3 6 3 2 11 3 3 3 3 2 2
21 16 14 11 10 10 8 8 9 9 6 5 7 6 7 6 5 5 6 7 8 3 4 4 7 14 13 10 5 3 3 5 5 5 5 2 2 3 3 4 3 5 5 3 1 7 13 12 10 6 6 4 5 4
20 16 14 11 11 10 9 7 7 7 5 4 5 6 6 6 6 6 7 6 4 3 1 2 2 2 4 9 13 11 4 8 9 7 3 2 2 7 2 1 4 3 11 6 5 8 4 12 15 10 10 9 8 8
18 15 14 13 12 10 8 8 4 4 4 4 5 6 7 7 6 6 5 3 5 5 2 4 3 1 4 7 13 14 12 9 9 5 3 2 3 5 2 2 4 12 7 6 5 9 4 5 10 12 11 11 9 9
17 15 14 14 14 12 9 8 4 3 3 4 6 7 8 8 6 3 1 1 3 7 1 1 3 2 2 6 12 15 15 12 7 5 2 3 6 7 4 4 8 17 15 14 4 12 8 8 11 11 10 8 8 9
17 13 12 14 16 13 10 7 6 5 5 6 7 8 8 6 3 2 2 2 2 4 1 2 1 1 2 2 6 9 14 8 6 3 5 6 6 9 2 4 2 10 18 17 16 13 8 13 8 11 10 7 9 11
16 15 14 16 14 13 10 7 6 6 5 6 7 8 7 1 4 2 1 2 2 1 1 1 1 0 0 2 2 5 5 8 6 4 2 2 6 5 4 14 14 15 13 16 22 21 8 8 10 10 10 11 13 14
13 12 12 13 12 12 8 6 7 6 5 6 7 6 2 3 2 0 1 2 5 1 1 1 1 2 2 2 3 3 4 3 5 4 3 4 2 4 9 9 6 6 10 13 20 20 19 18 14 13 15 14 13 10
7 10 9 12 13 9 6 6 7 7 7 7 6 1 3 2 2 3 1 2 3 3 3 3 3 2 3 3 3 4 2 1 2 2 1 1 3 18 14 9 6 10 11 12 16 15 18 18 16 11 14 14 11 11
6 11 18 15 11 7 4 6 7 7 6 4 3 3 3 3 1 2 2 3 3 3 5 6 11 2 4 3 2 2 2 2 2 3 2 1 3 4 2 10 16 10 11 19 18 14 13 12 11 13 11 14 13 10
16 13 13 10 7 4 3 4 4 1 3 4 2 2 2 2 2 2 2 2 4 3 5 4 5 7 3 4 3 3 2 2 2 3 2 2 4 4 4 12 14 12 13 16 17 17 17 19 18 17 16 14 13 12
10 10 9 8 6 4 3 1 2 2 1 4 2 2 2 3 2 4 4 2 3 5 7 7 3 3 3 4 1 2 3 1 4 2 3 4 5 6 7 3 7 13 13 15 17 18 17 16 15 17 19 17 14 13
6 6 6 5 5 7 6 5 4 3 3 2 3 1 4 4 5 5 4 1 1 3 6 7 4 4 3 3 2 2 2 2 3 3 4 2 5 8 6 5 7 6 9 12 14 17 19 18 17 14 15 16 13 11
5 4 4 3 2 5 9 9 8 5 3 3 3 4 6 8 6 6 7 5 4 3 7 5 3 4 2 2 2 2 3 3 4 2 2 4 6 8 6 7 8 6 6 10 13 14 16 14 15 15 14 15 13 10
5 2 4 4 2 4 3 1 5 5 4 4 5 4 7 4 7 6 7 8 8 7 8 3 3 3 2 2 3 5 2 4 1 3 4 7 7 5 7 8 9 10 10 11 13 13 13 15 14 12 10 14 14 11
2 2 5 6 2 5 6 5 3 5 4 4 6 11 12 12 12 12 11 8 9 9 3 4 5 2 4 2 3 3 3 2 2 3 6 6 5 6 7 6 6 8 11 10 10 9 10 11 13 20 21 16 15 13
2 2 5 5 6 9 9 4 4 4 6 8 6 5 10 13 13 13 8 8 8 7 6 3 7 3 4 3 3 2 5 5 3 2 3 5 6 6 7 7 8 11 11 9 9 8 13 20 9 2 16 15 16 14
3 4 5 6 7 7 3 3 4 4 8 6 10 14 14 14 13 11 9 6 11 7 2 4 3 3 3 11 10 9 7 3 0 2 5 6 5 5 6 10 11 11 12 9 8 10 9 11 14 5 9 16 16 11
6 7 8 9 9 4 4 3 4 5 5 3 8 8 7 6 6 4 3 8 8 4 3 2 3 13 14 14 11 9 3 1 2 3 4 4 4 6 6 8 9 13 13 11 9 9 9 7 10 7 14 8 9 8
6 1 4 4 2 8 4 3 5 5 5 5 8 6 5 6 3 2 2 3 6 3 3 5 13 11 9 10 6 3 1 2 3 4 5 4 6 6 6 7 9 12 10 9 8 9 11 8 4 5 6 8 8 8
3 3 3 4 3 4 6 7 6 5 5 6 7 5 3 2 1 0 2 2 2 1 3 5 5 7 7 7 5 3 2 5 8 9 7 8 7 8 8 8 9 11 9 9 8 7 9 14 18 20 13 14 11 8
9 5 2 3 2 3 5 4 4 4 4 2 2 2 1 1 1 2 1 2 1 2 2 3 5 5 7 7 5 6 8 8 10 10 9 9 9 9 10 10 11 13 12 14 13 13 19 18 11 10 13 11 9 10
5 3 3 3 5 4 3 4 5 4 3 2 2 2 1 1 2 1 1 1 1 3 9 10 4 4 10 10 10 9 8 7 8 9 9 8 7 8 9 9 11 13 14 14 12 12 15 15 14 11 11 9 9 8
2 4 3 4 5 3 4 3 4 3 2 1 2 1 1 1 1 1 2 1 9 9 3 2 5 9 13 13 12 11 9 7 7 9 10 10 9 8 9 10 10 11 12 10 11 11 12 11 10 8 8 6 5 5
1 4 7 4 3 4 2 3 3 2 1 3 1 2 1 0 1 1 1 5 4 6 2 5 12 14 13 12 13 12 9 7 7 8 9 8 8 7 8 9 9 9 10 12 11 11 12 11 9 9 8 7 6 6
2 4 5 6 4 4 5 6 5 3 3 3 3 3 2 2 2 3 3 7 7 7 10 9 8 9 16 15 14 13 11 10 7 6 6 6 6 8 9 8 8 9 9 10 10 9 8 9 8 7 6 5 4 6
6 3 4 1 4 5 4 3 2 2 1 2 3 3 2 2 1 4 7 10 11 14 14 13 11 12 12 12 11 10 10 9 8 8 10 7 6 8 8 9 9 9 9 8 9 10 8 7 7 7 8 7 7 9
5 5 4 5 6 6 5 5 3 3 4 6 3 3 3 3 4 7 12 12 16 15 15 14 13 13 13 12 12 11 8 8 9 9 8 8 8 7 8 8 8 7 7 7 7 7 7 7 6 6 7 7 9 10
5 10 5 4 4 4 4 6 3 4 5 6 4 3 3 5 6 9 12 16 18 16 13 13 13 14 13 14 13 15 15 12 10 5 6 8 8 9 10 10 9 8 7 7 6 7 7 8 7 6 6 6 6 7
3 6 5 5 4 2 5 5 3 4 6 5 4 4 5 5 6 8 11 12 17 15 14 15 15 16 15 15 14 13 14 15 15 10 6 8 10 10 9 7 5 5 6 6 4 4 3 3 3 4 6 5 4 5
7 11 6 3 1 2 6 2 3 3 3 3 4 5 5 4 4 4 12 17 19 19 18 16 14 13 12 13 13 11 5 4 6 15 12 9 11 10 10 7 4 2 2 2 3 3 3 2 3 3 5 4 4 5
6 5 6 3 3 4 5 4 3 3 3 3 3 5 6 3 3 5 7 16 19 17 14 11 12 12 10 10 11 11 11 9 6 11 16 11 11 10 9 10 8 5 3 3 3 3 2 3 3 3 1 3 2 5

GFSWCAN_850_spd_072.txt.gz
Wind_Speed
17 16 16 14 12 10 9 9 8 9 9 8 7 7 6 6 4 3 2 3 2 2 5 7 4 4 4 1 1 6 5 4 4 3 2 2 2 3 1 3 3 5 4 4 5 4 6 12 6 4 8 8 5 3
20 18 16 15 13 8 9 8 7 9 9 6 5 5 5 5 4 3 1 5 3 2 0 7 8 7 4 3 3 4 3 2 2 2 2 3 3 4 4 2 5 4 3 2 4 1 2 15 2 6 4 5 4 3
20 19 15 14 11 8 9 9 7 7 7 4 3 4 4 4 4 3 3 5 3 2 3 5 8 10 10 7 4 2 2 3 3 0 3 1 2 4 3 4 5 7 7 3 2 6 10 14 9 6 7 6 6 5
18 17 15 13 11 10 9 8 7 6 6 3 3 4 4 5 5 5 2 3 1 2 4 4 4 2 9 11 11 7 5 6 7 4 3 2 3 5 2 2 5 5 10 8 7 10 5 14 15 11 11 9 7 6
16 15 13 11 12 11 9 8 7 6 4 2 3 4 5 6 5 5 2 4 4 0 4 3 2 5 4 7 11 12 10 9 5 4 3 2 3 3 4 4 7 13 9 7 6 8 13 4 17 17 13 13 10 8
16 14 12 11 13 13 11 10 7 5 4 3 3 4 5 6 4 2 2 2 3 4 3 3 1 3 0 8 11 12 13 9 8 5 4 3 4 5 3 3 9 14 19 18 8 8 9 7 10 15 15 13 12 10
15 14 12 12 14 15 12 12 8 7 5 5 5 6 6 5 3 3 1 3 1 2 2 3 5 4 4 6 6 8 9 6 7 3 6 3 5 9 2 4 14 14 13 14 11 10 9 11 11 13 13 12 12 11
13 12 12 13 15 14 12 11 8 7 5 6 5 5 5 2 4 1 3 4 2 1 2 2 3 5 6 4 4 5 5 6 6 4 4 3 4 4 4 15 14 13 11 11 16 17 7 10 14 11 14 13 12 12
12 12 12 14 14 11 14 9 7 5 6 6 5 4 1 3 1 4 4 3 5 2 2 2 2 2 4 3 3 4 6 4 2 4 3 4 3 5 9 15 10 9 15 14 16 18 17 12 12 14 15 15 15 13
8 8 10 10 11 16 11 6 4 5 6 7 3 2 3 3 4 2 2 1 3 3 4 3 1 2 4 4 3 2 3 2 2 2 6 3 3 17 16 13 10 11 5 7 9 16 18 19 19 18 17 16 17 15
3 6 8 14 15 11 7 4 5 7 6 3 2 2 4 5 1 2 3 3 2 3 6 4 7 2 2 4 0 2 1 1 2 3 2 2 3 5 7 4 8 14 10 6 12 17 16 18 18 18 19 17 17 17
17 16 14 11 9 7 3 1 3 3 4 4 4 3 3 3 3 3 3 4 4 2 6 4 3 7 2 2 4 3 2 2 2 5 2 2 4 4 6 6 9 14 13 15 17 19 20 18 19 19 18 18 17 17
9 9 8 7 6 5 2 1 2 2 2 2 2 3 3 4 2 5 5 4 3 6 8 7 4 4 2 4 2 3 4 2 0 3 3 5 1 4 5 4 7 12 14 14 15 18 20 21 21 21 22 21 19 18
5 5 4 3 3 4 4 4 3 1 1 2 4 3 5 4 5 5 4 1 3 3 6 5 6 6 5 6 3 3 1 3 3 3 4 4 2 5 6 5 6 6 7 8 9 11 14 16 18 20 23 22 21 20
3 4 4 3 2 5 7 8 7 4 2 3 4 4 6 8 6 3 3 5 4 4 5 5 4 7 5 3 3 1 2 4 4 4 3 7 3 6 5 5 6 6 7 8 9 12 14 16 17 20 19 21 21 19
4 2 4 4 1 3 4 2 5 4 3 4 6 5 8 6 8 6 8 7 6 7 5 6 4 4 5 3 3 5 3 4 3 2 5 4 5 3 2 3 5 5 6 8 9 10 11 11 12 15 17 14 15 19
4 4 6 5 2 3 4 2 3 4 4 4 5 9 12 11 10 9 5 6 7 9 5 4 5 4 5 4 3 3 4 4 9 4 3 3 3 3 3 4 5 6 6 6 6 6 7 9 11 14 17 21 16 13
2 1 4 5 4 8 7 3 3 4 6 8 6 6 6 9 10 9 7 5 5 7 6 3 2 5 4 5 3 6 6 3 3 2 4 3 3 3 4 5 6 6 7 7 6 7 10 11 12 17 18 17 19 22
2 3 3 3 5 5 2 3 3 5 7 8 10 11 10 10 9 9 7 5 7 3 1 4 2 2 0 8 12 9 4 2 0 3 3 5 4 3 2 4 5 7 6 6 6 8 10 9 11 14 5 14 21 16
4 5 5 5 6 2 3 3 4 5 5 3 8 8 7 6 5 4 4 5 5 4 3 2 2 10 10 10 7 5 2 1 2 3 5 2 1 2 3 3 5 6 6 7 6 9 9 8 7 9 14 16 18 14
3 0 1 3 2 8 4 3 5 6 7 6 6 6 7 6 6 5 3 5 4 3 3 5 11 7 8 3 1 4 4 2 2 4 2 2 1 2 2 2 5 7 8 7 9 7 10 6 5 8 12 10 10 9
3 1 3 4 3 3 5 7 6 5 5 8 7 6 6 4 1 1 3 5 1 4 7 5 3 6 6 5 7 8 7 8 7 5 6 8 6 4 4 5 7 7 8 9 8 7 9 13 12 12 14 14 10 9
7 5 3 3 3 4 5 4 5 5 4 3 3 4 3 2 1 1 3 1 3 3 4 3 7 7 9 10 10 10 8 7 6 7 8 8 6 5 5 6 7 8 9 10 13 16 9 9 10 11 10 9 8 8
5 3 3 4 6 4 4 5 6 5 4 4 3 3 2 2 0 1 1 3 3 6 11 11 7 9 10 10 8 7 6 6 7 7 7 6 5 5 6 7 7 7 8 7 7 7 7 8 9 8 7 7 7 8
3 4 4 4 4 4 4 4 5 4 3 3 3 1 2 2 2 1 2 4 7 9 6 7 5 6 8 8 7 7 7 5 6 8 6 7 6 7 8 7 7 7 6 7 7 7 6 7 6 6 5 5 6 6
3 5 7 5 4 4 3 3 2 3 6 4 2 2 2 2 1 1 2 8 9 8 5 6 10 10 9 8 9 8 7 6 7 7 7 5 5 6 7 7 7 6 6 5 6 6 5 5 5 5 5 5 7 6
3 4 7 6 5 6 6 6 7 5 4 2 1 3 3 2 2 2 4 7 6 6 8 9 9 8 11 11 11 10 9 7 6 6 7 6 6 7 5 5 5 5 5 5 4 4 4 5 5 5 5 5 5 5
6 4 6 5 5 7 7 6 3 3 1 1 0 2 4 3 2 4 6 9 10 10 11 10 10 11 12 12 11 11 9 8 8 8 7 5 5 5 7 6 6 8 6 4 4 3 3 3 4 5 5 6 8 7
6 6 5 9 9 6 5 4 3 1 2 3 3 1 3 3 3 5 10 11 12 12 13 13 13 12 12 11 10 9 8 7 7 6 5 6 7 6 7 6 5 5 4 3 4 4 3 3 3 4 5 5 6 7
9 10 7 7 6 5 4 4 2 3 3 3 1 1 2 4 5 7 11 14 15 13 12 12 13 13 12 12 11 11 9 8 6 4 4 5 6 8 8 7 6 5 5 4 3 3 6 5 5 4 4 4 4 5
3 6 6 7 5 5 5 5 4 3 2 3 3 3 2 5 5 8 11 12 13 13 12 13 12 12 11 12 11 12 11 11 11 8 5 6 8 9 9 8 7 6 5 4 2 1 1 2 2 3 4 4 4 6
8 11 7 4 4 3 3 3 4 4 4 4 5 5 6 6 6 7 11 15 16 17 16 14 13 12 12 11 11 11 10 9 12 15 10 9 10 10 9 8 7 5 4 2 2 1 1 1 1 2 2 2 3 5
9 7 8 8 5 3 5 4 4 3 4 4 5 7 9 6 3 4 6 13 14 14 14 16 15 10 9 11 12 13 14 10 10 15 17 14 12 12 11 9 7 6 4 3 2 1 1 1 1 1 1 1 2 5

GFSWCAN_850_spd_075.txt.gz
Wind_Speed
19 15 14 17 17 11 9 9 9 8 7 7 4 4 5 3 1 3 3 1 1 5 6 5 3 3 4 5 4 9 5 6 7 3 2 2 3 3 2 5 6 4 4 4 8 10 10 13 6 6 11 14 13 8
15 16 17 18 17 11 9 9 8 7 7 5 3 3 4 3 2 3 1 5 1 4 6 5 6 6 3 1 2 4 6 1 5 3 1 3 3 4 5 2 6 4 3 2 4 3 6 6 2 8 7 9 7 7
17 18 18 17 13 10 10 9 8 7 7 5 1 2 2 2 1 1 1 3 2 5 7 7 9 10 8 5 3 8 2 2 3 5 1 3 2 4 4 6 6 7 6 3 2 7 7 11 8 7 6 6 7 7
20 18 17 15 11 10 11 9 8 6 5 5 2 2 2 2 2 1 0 4 1 4 7 8 5 4 8 8 7 4 1 1 2 5 7 1 1 4 6 4 4 9 7 8 10 10 5 12 13 10 8 8 8 8
18 17 17 13 10 12 12 10 8 6 5 3 3 3 4 4 3 3 2 2 1 3 7 6 3 5 4 6 8 8 5 4 3 5 4 2 3 4 10 10 9 12 11 8 7 7 12 12 18 16 13 13 11 10
17 16 15 11 10 12 14 10 8 6 5 3 2 3 4 4 2 0 5 3 2 3 5 4 5 3 5 8 8 10 9 8 6 7 2 5 2 4 3 3 13 16 14 16 16 15 10 8 7 15 16 14 12 11
14 13 13 11 12 14 14 12 11 7 6 4 4 5 5 4 3 6 2 4 3 1 5 4 7 6 5 6 8 9 9 8 8 2 9 8 5 6 2 4 13 15 14 18 19 12 11 10 10 12 16 14 12 11
11 10 9 10 12 13 14 11 10 7 5 4 4 5 4 2 2 1 5 5 3 3 4 3 3 7 11 8 6 7 8 8 7 11 3 3 6 4 4 12 13 15 16 15 13 14 13 13 12 14 14 14 14 13
10 10 10 11 13 12 10 12 8 5 4 3 3 3 1 2 3 4 8 5 5 4 6 3 3 2 8 8 4 5 5 5 5 5 5 6 3 5 9 12 16 18 15 15 15 12 16 11 13 15 15 16 15 15
5 6 8 9 9 9 14 11 6 2 3 3 2 1 4 4 5 2 3 4 3 5 7 7 1 2 6 5 5 6 5 4 3 3 7 3 4 16 14 13 12 8 7 10 15 19 19 18 16 15 16 15 16 18
2 5 7 8 13 17 15 10 5 5 4 2 2 2 2 3 1 2 3 4 5 5 7 7 6 4 3 3 3 5 3 2 2 4 3 2 3 9 3 7 7 6 10 8 9 7 12 12 18 20 20 19 19 19
18 17 17 16 14 11 8 3 2 3 3 6 4 3 2 3 3 4 3 3 5 4 6 9 6 7 4 4 4 4 2 3 2 6 2 2 5 8 4 8 6 6 10 14 12 12 13 19 20 19 21 21 22 21
10 9 8 8 6 4 3 3 4 5 4 3 1 3 3 3 3 5 6 4 4 5 8 8 6 5 4 6 3 3 3 2 1 3 3 5 6 4 3 7 6 6 9 13 16 16 16 19 22 23 23 22 21 20
2 3 3 3 2 2 2 2 1 1 1 3 4 2 5 5 6 7 5 1 5 2 5 5 5 6 5 4 3 3 2 2 1 2 5 3 5 2 4 6 6 8 9 9 10 11 13 15 17 18 20 23 23 24
2 2 2 2 1 2 5 7 6 3 1 4 4 4 7 11 12 3 1 2 5 6 2 3 3 5 5 3 2 2 3 2 4 7 3 3 1 2 5 6 7 8 8 8 6 8 12 14 15 17 19 20 21 26
3 4 2 3 1 3 4 3 5 3 3 4 6 7 11 9 10 9 13 11 7 8 2 3 3 3 5 5 5 4 2 5 3 4 4 5 5 5 4 5 6 8 9 11 13 12 13 14 14 15 15 16 17 20
2 2 3 4 2 2 3 1 3 5 5 5 8 11 12 12 11 11 9 9 2 5 4 2 3 3 4 3 3 1 4 5 12 7 10 6 3 3 4 5 7 10 10 11 11 11 11 10 10 13 16 16 17 19
3 3 4 4 4 5 5 4 4 5 7 11 11 12 10 10 10 11 9 3 3 3 3 1 3 4 2 5 3 6 14 6 4 5 5 2 2 3 5 7 7 8 9 9 9 11 11 10 11 15 19 22 19 17
3 2 3 3 2 1 3 4 5 6 11 12 11 13 14 12 11 10 10 5 4 2 1 3 3 3 3 7 10 11 9 5 5 4 3 3 3 3 5 4 4 6 8 8 10 12 14 11 10 13 17 13 6 12
2 3 5 4 5 2 4 4 5 6 7 7 8 11 11 12 9 11 10 6 5 4 3 3 4 6 8 9 10 5 9 5 5 3 4 5 1 3 3 5 6 7 10 6 6 8 13 13 6 12 15 12 12 18
1 2 3 3 4 7 5 5 7 8 10 14 12 8 10 9 4 9 5 6 5 2 5 6 7 7 7 4 4 1 1 5 8 7 6 2 3 2 3 3 6 9 10 12 11 11 8 8 7 11 12 12 10 6
3 3 2 5 4 4 6 8 7 9 8 13 13 11 12 5 6 4 4 3 1 3 5 5 2 4 7 6 5 5 4 3 3 3 4 3 3 3 4 5 7 9 11 12 11 10 9 12 10 11 12 13 10 9
6 4 3 4 4 4 7 6 8 9 5 5 4 3 2 3 2 2 1 3 3 6 5 3 6 9 8 8 8 7 4 3 3 4 5 4 4 3 4 4 6 8 7 8 8 7 7 8 7 6 5 5 6 7
5 3 4 4 7 5 4 5 7 8 7 6 3 4 1 4 4 2 2 2 6 9 9 13 7 8 8 7 6 4 4 3 4 5 5 4 4 4 3 5 5 6 5 5 4 5 5 4 5 6 6 6 5 5
4 4 5 6 4 4 5 6 8 5 5 8 8 1 2 1 1 2 3 5 7 9 11 10 10 9 10 7 5 4 6 3 5 5 4 4 5 5 5 4 4 4 4 4 5 5 4 4 5 5 5 7 6 7
4 6 7 6 7 6 4 3 3 5 4 4 4 4 5 5 3 2 3 8 12 11 9 10 13 11 6 6 7 6 6 5 7 6 5 4 4 4 4 3 3 4 3 4 4 4 4 4 4 5 5 5 6 6
4 6 10 9 8 7 5 8 10 7 5 2 2 2 2 2 1 3 6 8 8 8 7 7 8 8 9 9 8 7 7 6 5 6 6 5 5 4 1 1 2 3 2 3 3 3 3 3 4 5 4 5 5 5
10 5 8 10 11 10 9 9 10 4 1 2 4 1 1 1 2 2 7 8 8 9 9 9 8 10 10 10 10 9 8 7 8 8 6 5 4 4 3 3 3 8 3 3 3 2 2 2 2 3 4 5 6 5
9 9 9 10 9 8 7 6 7 2 2 3 4 1 1 4 6 7 9 10 11 11 11 11 11 11 11 11 10 9 8 8 8 7 6 6 6 5 6 4 3 4 3 2 2 2 2 1 2 2 3 3 4 4
12 12 11 8 8 6 10 6 4 2 4 6 3 1 5 8 6 8 10 12 12 11 11 11 11 12 11 11 10 9 8 8 6 4 4 5 6 7 7 7 6 5 4 3 2 1 5 2 1 1 3 2 2 3
5 6 9 12 12 12 11 7 6 6 6 5 3 2 5 7 7 8 9 11 11 11 11 12 11 11 11 10 10 9 9 8 8 6 4 4 6 8 8 7 6 6 5 4 2 2 2 1 1 2 2 1 2 4
12 13 12 9 11 6 4 8 7 4 5 4 6 8 9 8 8 9 11 12 12 12 12 11 12 11 10 9 8 8 8 8 10 10 8 8 8 9 9 8 7 6 5 3 2 2 2 2 2 2 1 1 2 4
12 11 11 12 12 10 7 6 4 2 6 6 8 9 11 10 4 5 5 10 10 10 11 13 13 10 9 11 9 9 10 8 11 14 15 14 12 12 9 8 7 7 5 4 3 3 2 3 4 4 4 3 3 4

GFSWCAN_850_spd_078.txt.gz
Wind_Speed
17 18 15 14 13 14 13 11 10 7 7 7 5 4 5 3 1 3 2 7 3 11 5 3 0 1 2 5 4 7 3 4 5 2 2 3 1 1 2 6 8 3 3 4 9 11 4 10 5 4 9 14 12 11
18 15 14 16 17 14 12 11 8 6 6 6 4 3 3 2 1 4 2 9 6 6 6 1 3 4 3 4 7 2 4 4 9 1 1 2 2 3 5 3 5 4 2 3 3 3 6 3 7 9 10 13 10 10
16 14 16 16 15 13 10 11 8 6 5 4 4 3 1 1 1 5 1 5 5 8 13 8 8 8 6 3 3 4 6 4 1 5 10 3 4 4 3 4 7 7 8 2 5 4 6 7 4 5 5 9 8 8
19 17 16 15 14 13 10 11 8 7 5 2 4 3 2 1 1 2 2 5 4 8 7 11 5 4 7 7 5 3 1 1 1 3 9 3 2 4 5 4 4 7 4 7 8 12 8 6 10 9 8 8 11 10
18 16 15 14 14 11 11 11 9 7 5 2 4 4 3 3 4 4 3 3 3 6 7 1 4 7 4 7 7 7 5 4 2 3 3 2 4 4 10 7 7 11 5 5 6 9 8 15 13 15 13 13 14 14
17 14 13 13 12 11 12 13 9 8 6 4 3 3 3 3 3 0 4 3 3 6 6 2 6 5 6 6 7 9 9 6 4 3 3 4 3 4 5 4 10 12 9 9 8 14 16 16 16 16 19 17 16 15
15 13 10 11 10 10 12 13 10 9 7 5 3 3 4 3 3 4 1 5 5 4 5 5 7 8 7 7 9 8 7 6 9 5 9 11 2 3 1 4 7 10 9 9 13 12 17 17 11 11 15 17 16 15
13 11 9 8 8 10 12 12 10 12 7 4 1 3 4 3 2 2 5 4 6 3 6 4 4 9 12 7 6 7 9 10 8 13 2 2 4 4 4 13 12 10 14 15 16 15 13 15 11 14 15 18 17 16
10 10 10 11 9 10 10 9 15 10 6 3 1 2 1 3 2 2 4 9 6 4 6 5 2 4 10 10 9 9 6 3 5 4 5 6 4 5 9 11 12 13 15 16 13 11 11 12 16 14 17 16 17 16
6 5 5 7 7 8 8 17 12 8 3 1 1 1 5 3 6 3 4 2 4 5 8 7 11 3 11 4 3 2 2 5 4 5 7 4 4 15 15 14 12 9 12 10 8 11 11 15 8 10 15 18 18 17
7 6 5 6 8 13 19 17 15 8 2 2 3 0 2 2 1 1 3 4 4 5 8 12 16 3 4 4 4 6 3 3 3 5 5 4 3 9 10 9 6 7 7 8 11 8 9 21 13 14 15 15 19 21
17 18 17 17 16 17 15 11 7 6 3 5 1 1 1 2 3 3 3 4 5 4 4 10 8 9 5 5 4 5 3 3 4 10 3 2 4 9 3 3 3 6 5 7 8 10 9 16 20 20 24 22 22 23
8 8 8 7 6 7 6 5 4 5 5 2 2 4 4 4 1 5 5 4 4 8 6 8 4 2 3 2 4 3 4 1 1 3 3 5 3 14 8 2 1 2 6 8 13 13 12 11 14 17 15 15 18 20
1 2 2 2 2 3 3 4 5 4 2 5 6 2 4 6 6 8 6 4 7 1 10 10 6 3 4 2 2 3 2 4 2 3 4 4 10 7 8 4 4 3 4 8 4 6 5 5 6 10 16 19 20 25
2 2 3 3 3 3 5 7 6 4 2 5 5 3 7 13 15 6 6 2 11 15 2 7 4 6 5 3 2 3 2 1 4 3 0 3 4 4 1 4 5 6 5 7 10 9 12 14 14 15 16 18 19 18
4 4 3 4 2 2 1 6 8 3 4 5 7 8 11 10 12 11 18 8 5 3 3 3 3 1 1 3 4 2 2 5 2 4 3 7 6 5 3 4 7 8 9 9 10 8 9 10 10 11 11 13 15 17
3 2 5 6 4 2 1 2 3 6 6 5 8 14 15 14 11 13 10 11 5 2 2 0 2 3 5 3 4 4 4 5 7 4 5 10 8 6 6 7 6 7 7 8 7 11 10 11 10 13 15 17 18 17
2 4 5 6 4 4 4 6 5 6 10 13 13 16 13 14 14 14 13 6 3 3 1 2 2 3 4 4 3 5 9 10 1 2 6 7 7 6 5 6 4 4 6 7 6 8 7 9 10 12 14 19 22 20
4 3 3 4 4 2 3 5 7 6 11 14 15 16 15 15 15 14 12 6 4 5 3 3 3 4 4 6 9 7 3 3 7 8 8 6 6 4 3 2 3 5 7 5 6 7 9 9 8 9 13 14 14 4
4 5 5 5 6 3 5 5 7 7 7 8 13 16 16 15 11 6 2 8 4 3 4 4 3 6 6 7 10 7 1 3 4 2 4 4 6 7 4 4 3 7 7 9 7 9 9 8 8 9 14 9 17 17
2 3 4 6 6 7 6 6 11 9 12 15 16 18 15 2 4 16 16 3 7 4 3 2 5 8 9 8 2 4 2 4 6 7 7 9 4 1 1 2 4 9 11 14 13 11 9 8 10 12 23 20 15 15
4 7 4 5 5 6 8 10 8 10 10 16 19 17 11 5 3 6 6 6 3 4 3 7 7 6 7 7 4 3 5 4 3 4 4 3 2 5 4 4 6 9 10 11 8 6 6 6 2 3 5 7 10 8
5 4 5 7 5 5 8 7 11 14 9 6 4 3 2 2 2 11 4 2 3 5 8 7 7 9 9 10 7 5 2 3 4 4 5 5 5 3 3 5 6 7 7 5 6 4 5 4 5 6 2 4 5 5
7 3 5 5 9 5 6 5 6 7 8 11 4 4 2 3 8 3 2 3 7 11 9 11 11 10 11 10 9 6 4 3 4 5 5 5 6 3 4 5 4 4 5 4 4 4 2 4 4 3 4 7 5 6
4 5 5 7 6 5 6 6 12 8 10 4 8 4 0 2 2 2 2 8 10 8 11 10 10 12 10 11 9 5 6 5 6 6 4 4 5 7 5 4 3 5 4 5 3 3 3 3 4 6 6 7 6 6
5 6 6 6 9 6 5 2 2 2 6 7 1 4 2 3 2 1 3 8 9 12 12 10 12 12 9 6 7 7 6 5 6 7 6 5 5 4 5 2 4 4 3 3 3 3 3 4 4 4 2 2 5 4
4 6 12 13 11 9 10 8 2 6 5 3 2 2 1 3 2 1 5 6 11 11 11 10 13 11 8 8 8 7 7 6 5 6 7 5 5 4 1 1 5 5 2 2 3 3 2 2 3 3 5 6 7 7
10 7 11 13 14 12 10 9 5 3 3 1 3 2 0 2 2 5 4 6 7 9 9 7 7 8 10 9 9 9 8 7 7 7 7 6 5 4 2 3 3 9 4 4 4 4 2 2 3 4 5 5 4 4
11 17 15 12 10 5 5 5 7 7 4 3 2 3 5 4 5 6 7 9 9 10 10 10 9 10 9 10 9 8 8 8 9 7 6 6 6 5 5 3 6 7 4 1 7 5 3 2 0 1 2 3 3 2
18 14 14 12 10 10 13 11 8 1 1 1 5 4 7 6 9 8 9 10 10 9 9 10 10 11 11 10 10 9 8 8 6 6 6 5 7 7 8 7 6 7 5 5 4 3 3 0 1 1 4 2 1 3
13 15 14 14 13 14 13 12 9 3 4 7 8 7 10 6 8 8 9 10 10 10 10 10 10 10 10 10 10 9 9 9 8 6 4 3 5 7 9 8 7 7 6 5 4 3 3 3 1 1 0 1 1 3
15 14 11 8 10 13 9 7 7 5 7 9 6 5 8 11 9 12 12 11 11 10 10 9 11 10 11 10 9 10 9 8 10 9 7 7 7 8 9 9 8 7 6 5 4 3 2 2 2 2 2 1 1 1
13 14 14 13 13 12 9 9 3 3 4 4 11 13 20 16 6 3 8 8 7 8 8 10 11 11 9 9 8 9 10 7 10 13 14 12 11 11 9 8 8 8 6 6 5 4 3 2 3 3 4 4 4 4

GFSWCAN_850_spd_081.txt.gz
Wind_Speed
17 16 17 14 11 11 13 13 9 8 8 7 6 4 4 4 1 3 1 10 10 5 7 3 3 2 4 9 3 2 0 2 2 1 2 2 2 1 3 4 4 3 2 1 1 2 2 16 7 3 4 11 17 24
18 15 13 12 13 14 13 12 7 8 8 7 5 2 3 3 1 3 4 2 10 4 5 3 1 3 1 2 3 2 2 4 5 3 2 4 1 2 6 2 4 1 3 3 2 3 5 13 11 6 7 11 11 17
17 16 16 16 16 13 11 9 8 7 7 6 4 1 1 1 1 4 1 7 8 5 12 14 11 9 7 4 1 2 3 3 4 2 2 2 2 3 2 3 3 5 5 3 4 2 8 10 7 7 8 9 6 9
17 15 15 15 13 12 9 9 8 7 7 6 4 2 2 1 2 3 7 2 5 7 5 9 7 8 8 7 4 1 4 1 0 1 4 1 2 3 1 1 1 3 1 4 4 7 7 5 15 11 9 6 11 10
18 16 13 13 12 11 9 8 8 7 7 5 4 4 3 3 4 3 4 3 4 4 5 8 5 9 8 8 6 5 2 3 2 2 2 1 3 4 3 2 2 3 2 3 4 8 6 9 12 18 18 16 12 13
16 14 13 13 13 11 9 9 9 8 7 5 4 3 2 3 2 2 3 4 6 2 3 3 6 13 9 9 8 7 7 6 2 2 1 3 3 3 2 2 4 11 5 4 5 8 15 12 16 10 22 23 20 16
13 13 12 10 9 9 9 10 12 10 9 6 4 2 3 4 4 4 1 3 9 7 3 4 4 10 11 8 9 10 9 4 3 2 1 6 4 4 1 3 5 9 7 4 5 9 9 10 12 13 14 25 25 22
10 9 10 7 5 7 9 11 12 10 9 7 4 3 4 4 3 2 7 4 3 3 4 3 1 7 14 8 9 11 8 6 6 5 5 2 5 4 4 12 13 13 11 11 11 11 12 13 15 14 19 20 28 26
8 5 6 7 7 6 9 10 11 13 10 5 4 4 2 3 1 7 2 5 6 6 4 4 2 3 14 12 5 4 4 1 3 3 3 6 3 5 7 10 13 11 1 6 8 8 8 8 12 9 18 13 20 25
7 4 1 2 5 6 8 10 17 15 13 4 3 2 2 5 3 2 2 1 1 4 6 5 6 2 13 7 7 6 4 3 2 4 8 3 3 15 14 14 13 14 3 4 6 5 6 11 14 7 15 18 20 23
12 9 6 5 5 7 15 19 15 15 10 5 1 2 1 2 3 2 3 3 6 4 7 10 17 5 9 4 4 9 3 2 2 4 5 2 3 6 12 18 16 8 4 3 7 4 2 5 12 18 10 16 16 12
16 17 18 16 15 16 16 17 16 7 5 2 3 1 2 2 5 3 3 4 4 4 7 9 11 10 4 7 8 5 1 1 3 7 2 2 3 7 1 11 5 1 3 3 4 5 6 8 8 10 19 19 18 24
5 6 8 8 8 8 7 5 6 8 6 2 3 3 5 4 2 5 5 3 3 6 6 8 7 5 3 5 6 2 3 2 3 1 3 4 5 10 7 12 2 2 3 5 5 6 7 7 12 8 8 18 17 13
2 2 3 3 3 4 4 4 4 4 3 3 6 3 4 5 5 5 6 3 7 5 11 12 7 2 1 1 3 2 2 4 1 3 4 2 12 12 9 9 6 1 4 3 3 3 1 4 4 3 6 7 8 16
4 3 4 3 4 5 6 8 7 5 3 5 5 3 7 13 16 17 18 14 12 13 7 10 1 3 2 3 3 3 0 3 4 2 2 7 6 4 1 1 3 6 6 5 4 4 5 4 3 3 3 6 8 10
4 5 4 5 4 2 3 7 10 5 3 5 7 7 12 11 14 9 11 8 1 21 20 13 6 2 2 4 2 3 3 4 1 3 9 7 5 5 3 6 5 4 5 7 7 11 11 9 9 10 10 10 10 12
3 2 4 7 6 3 1 3 5 5 6 5 8 17 19 17 15 15 15 15 10 16 3 4 5 3 5 3 4 3 4 1 12 14 13 5 7 5 4 4 3 3 4 6 8 7 7 9 10 11 14 16 17 19
1 6 6 6 6 5 5 6 4 6 11 13 13 17 18 18 14 14 15 13 3 4 4 2 4 4 4 5 3 4 10 7 10 9 12 13 9 7 4 3 2 2 2 6 7 6 6 7 8 9 14 16 19 18
8 4 3 4 5 3 3 6 6 5 8 13 15 16 18 17 13 8 10 8 11 5 3 4 2 3 3 5 7 7 8 4 14 14 14 13 9 8 6 1 2 2 1 5 6 7 8 9 8 15 12 13 13 15
4 5 4 4 4 2 4 5 8 6 7 8 14 15 14 8 8 8 5 7 13 13 2 3 2 8 6 10 14 7 4 6 14 13 14 13 8 8 8 5 4 10 10 10 9 6 7 12 20 23 20 19 17 16
2 1 2 3 3 5 5 6 7 10 11 12 17 17 13 7 3 3 8 11 4 6 8 7 6 5 6 15 10 8 6 5 8 12 11 11 11 7 2 3 13 10 9 11 10 9 11 11 12 13 14 13 15 15
2 3 2 4 5 5 7 9 8 9 8 12 18 14 8 4 4 5 4 7 6 10 9 10 15 17 14 12 8 10 8 3 3 6 11 10 10 10 6 10 10 9 9 9 7 5 7 4 1 5 6 8 7 9
3 2 4 6 5 5 8 7 7 6 4 4 3 3 3 4 3 0 3 5 4 8 12 11 12 13 14 12 12 10 9 8 8 7 8 8 7 6 8 7 5 8 8 6 4 2 5 1 4 5 3 2 6 7
7 3 4 4 10 5 6 7 8 5 5 6 2 3 2 4 3 3 3 4 12 12 11 13 13 15 14 13 10 7 13 7 13 9 8 12 10 4 8 6 6 8 7 6 4 2 4 1 4 2 1 2 7 4
3 5 4 6 5 5 4 4 9 5 3 2 3 3 3 5 2 3 2 8 17 14 12 15 13 13 15 14 15 12 11 11 13 12 7 14 10 10 9 5 5 6 4 8 5 3 3 3 1 2 4 6 3 6
4 5 6 6 8 5 3 4 0 4 3 3 1 4 2 2 2 2 5 14 16 15 13 13 14 15 13 16 16 9 12 4 13 12 10 9 11 14 11 11 11 8 5 4 5 4 2 3 2 1 3 3 3 6
4 6 11 12 9 10 6 5 12 9 3 3 4 3 2 2 2 2 14 14 15 12 17 15 14 14 12 13 12 13 11 7 8 11 11 6 6 4 5 10 17 11 6 5 5 3 2 1 3 4 5 5 5 5
9 7 11 14 17 16 12 9 7 2 2 4 8 3 3 3 2 6 12 14 12 13 16 15 18 12 17 15 12 12 11 12 11 9 10 8 6 5 4 6 7 11 9 8 7 5 4 3 3 3 3 3 3 4
8 10 15 18 17 7 12 13 10 15 12 16 1 2 3 4 3 11 10 12 16 13 12 13 14 15 14 14 12 12 10 9 12 11 12 12 11 8 7 4 5 9 3 3 8 6 7 6 4 3 4 0 2 2
18 19 18 20 15 12 13 13 16 6 3 2 7 7 9 10 6 13 12 12 13 13 13 14 14 13 15 14 14 12 11 14 11 10 13 14 15 16 13 7 7 13 7 4 4 6 5 3 2 4 2 1 2 1
17 18 20 19 14 16 15 14 13 7 6 10 11 6 5 6 7 10 11 12 11 12 13 14 14 14 15 15 17 15 12 14 11 11 7 3 11 15 12 11 10 11 9 8 11 7 3 0 4 5 2 6 3 0
15 17 17 13 12 15 15 16 13 4 2 9 8 6 16 14 15 14 13 13 13 13 13 13 12 13 14 13 16 14 10 15 17 14 10 9 9 10 12 12 11 10 9 8 7 8 5 2 1 3 4 4 6 5
15 16 15 15 14 14 15 10 2 3 3 3 4 9 11 9 6 6 6 5 6 6 2 13 14 16 15 13 12 11 15 12 16 13 9 8 12 11 11 11 11 11 10 9 9 9 9 5 3 5 4 5 5 6

GFSWCAN_850_spd_084.txt.gz
Wind_Speed
19 17 16 14 11 11 11 11 10 9 5 5 5 6 3 2 0 3 3 8 8 3 6 10 5 5 5 5 5 4 3 3 4 4 3 2 2 3 3 2 2 2 3 1 2 2 4 7 6 4 3 6 21 25
21 17 15 14 13 12 13 11 9 8 6 5 5 4 3 1 1 4 5 0 3 2 2 2 2 2 1 5 6 3 4 4 3 4 1 3 2 2 4 1 0 1 5 4 5 5 7 8 12 12 15 18 21 26
22 19 15 14 14 13 11 10 8 8 7 4 4 4 3 1 1 5 3 4 1 2 4 10 10 8 5 4 2 3 3 3 4 3 5 3 2 4 3 5 3 2 3 3 4 2 4 8 9 8 8 15 19 21
22 20 16 13 12 11 10 8 8 8 6 5 4 5 4 2 1 3 4 3 5 2 1 2 4 14 7 6 3 5 10 6 5 2 2 2 2 3 3 4 4 5 4 4 2 5 1 8 10 10 8 10 14 19
20 17 15 14 10 9 9 8 9 10 7 6 4 4 5 2 3 2 4 5 2 2 2 6 2 10 10 9 9 5 5 6 3 2 3 0 2 3 3 2 2 5 5 4 5 6 5 4 9 18 19 17 16 14
14 14 12 12 11 10 9 9 10 11 8 7 5 4 3 2 2 6 3 6 4 3 2 3 2 15 10 12 8 7 5 5 3 3 1 2 3 2 2 2 5 3 5 8 6 7 9 10 10 8 16 22 22 22
12 10 8 9 9 9 10 11 10 8 9 7 6 4 2 3 2 4 2 3 8 6 2 5 4 12 14 12 8 7 8 6 6 5 4 4 4 4 3 4 8 7 2 6 9 7 8 9 10 10 11 19 24 25
10 9 7 6 5 5 7 10 10 10 9 8 6 4 3 3 2 3 6 3 4 2 2 1 4 5 17 6 5 12 10 8 6 5 4 4 5 3 3 10 10 12 14 8 9 10 12 10 14 18 20 19 24 32
10 7 4 5 5 4 6 10 10 11 11 7 5 3 1 2 2 2 2 3 4 3 2 1 3 4 11 7 6 4 5 1 2 4 5 8 2 4 8 10 10 10 7 7 6 10 12 15 15 15 15 13 28 30
9 5 2 3 6 5 8 9 11 13 12 8 3 1 2 2 3 2 1 1 1 2 4 4 4 3 11 6 3 3 1 2 1 4 7 2 3 17 18 15 9 11 9 8 7 9 10 11 13 13 16 16 12 12
16 10 5 3 3 6 8 12 15 12 12 8 0 2 1 5 5 3 2 3 3 2 5 7 14 3 5 4 3 3 2 2 1 4 4 2 3 4 7 12 14 10 8 10 6 6 7 6 9 13 16 18 19 21
11 14 15 12 11 12 13 15 14 8 5 4 1 3 2 3 3 2 3 3 3 4 5 5 9 12 5 4 5 3 3 1 3 1 2 2 3 6 4 7 7 8 8 6 5 6 9 8 8 7 9 13 13 22
0 2 5 7 8 9 9 10 6 4 3 2 1 1 4 4 2 5 4 3 2 5 4 4 4 5 5 5 5 3 2 3 2 1 2 4 3 7 10 11 7 4 7 7 7 5 7 9 5 9 6 12 13 10
5 3 3 3 3 4 5 3 2 3 4 2 3 3 4 4 5 5 5 4 5 7 9 9 5 3 4 3 3 3 1 1 2 2 4 2 10 10 5 10 6 7 6 4 1 2 1 3 1 1 3 5 5 8
5 4 5 6 5 5 5 5 4 3 2 3 4 4 6 13 10 10 15 13 7 8 9 6 3 2 3 4 2 3 2 3 4 4 3 10 12 6 5 7 8 6 4 3 2 5 3 2 2 3 3 5 7 9
5 5 5 5 6 3 4 6 7 5 3 4 6 4 8 3 9 12 9 9 21 20 13 3 3 2 2 4 3 5 3 5 4 4 11 11 8 8 14 11 7 5 3 4 3 4 5 2 3 5 8 10 12 14
4 3 2 5 5 3 1 3 5 5 5 5 7 13 20 20 17 22 21 7 22 17 1 5 4 5 5 3 4 4 5 4 12 17 16 11 11 11 9 8 4 1 2 1 2 2 3 6 8 13 14 15 16 18
4 5 5 5 6 5 5 4 3 5 8 12 8 19 17 17 17 17 6 16 14 15 21 6 8 4 5 6 4 5 11 10 16 18 16 14 10 9 9 5 5 7 5 4 3 6 6 8 11 11 9 12 15 14
7 3 3 4 4 3 3 5 8 5 8 13 17 21 18 16 7 5 9 10 7 10 9 3 3 3 4 7 8 11 15 20 22 18 17 13 10 10 10 8 8 9 8 4 4 1 6 8 14 15 12 14 22 24
6 6 6 4 4 3 3 5 7 6 5 5 11 12 11 12 10 10 6 4 4 3 3 4 4 6 7 9 13 9 11 19 24 24 20 15 13 12 9 10 12 8 6 0 1 6 14 15 14 12 12 13 15 18
3 4 4 5 5 7 5 4 6 7 8 6 11 12 9 10 8 6 4 4 3 4 5 8 10 7 10 7 15 12 11 18 25 20 23 21 16 13 11 15 11 7 4 5 10 13 9 8 7 6 7 8 10 9
6 5 2 4 4 4 7 8 7 8 6 9 17 13 6 4 3 2 0 3 4 4 7 6 9 13 19 18 17 12 15 15 14 15 16 17 19 16 14 16 11 11 7 7 6 5 5 7 4 3 8 9 6 10
4 3 3 5 5 6 6 8 6 5 3 4 3 2 4 3 1 4 2 3 5 4 5 6 18 19 18 15 16 14 13 14 16 16 14 17 16 16 19 16 8 5 6 6 3 2 5 5 3 3 5 4 9 8
8 4 4 4 9 5 5 5 6 5 5 3 1 3 2 4 5 1 2 4 5 10 12 15 18 18 17 16 15 15 15 13 12 17 14 14 12 16 12 10 9 4 4 8 6 4 3 1 3 3 1 2 3 2
4 5 4 6 6 5 4 3 5 2 3 3 3 3 3 7 3 4 3 6 17 16 13 14 17 22 23 17 13 15 14 16 17 16 15 14 18 15 12 10 10 7 8 10 9 7 5 2 1 5 5 4 3 2
3 6 9 5 5 5 5 1 2 2 3 5 5 5 6 3 2 3 4 17 24 20 21 19 16 18 19 20 20 19 18 17 14 17 15 17 12 17 17 16 15 13 10 8 9 7 6 4 5 3 3 1 3 5
3 5 11 10 7 6 5 7 7 3 4 3 3 3 2 3 3 3 7 14 22 19 15 18 19 19 18 19 21 13 17 13 17 19 14 10 9 13 23 19 17 14 13 13 9 6 5 5 6 2 3 3 3 3
7 6 5 13 12 13 4 3 2 4 4 7 6 4 3 4 3 10 10 11 10 14 16 17 16 16 15 24 23 22 18 14 15 19 16 8 6 7 8 19 18 15 15 14 12 10 7 6 6 6 5 3 5 3
7 9 8 11 11 6 7 8 6 9 13 7 3 3 4 4 2 9 15 16 17 17 19 17 14 19 25 23 19 17 16 16 18 19 20 15 13 10 7 6 9 15 14 11 12 9 9 8 8 7 5 2 4 4
10 12 6 4 2 4 9 15 18 15 11 6 7 4 2 4 2 12 16 18 18 16 17 20 28 27 24 21 21 17 11 10 12 15 19 20 20 18 16 10 7 14 13 11 9 7 6 6 5 7 7 4 7 6
9 5 8 9 7 20 24 19 16 3 10 11 14 12 7 4 8 10 11 15 15 19 22 21 20 17 17 18 19 18 20 17 13 11 9 10 17 23 19 12 10 12 11 9 7 6 5 5 5 7 5 8 10 7
6 8 7 6 18 26 23 22 22 3 9 8 3 2 4 5 5 8 6 17 18 17 21 21 21 21 18 16 17 18 11 14 19 18 19 12 8 15 19 14 13 12 12 11 8 7 8 7 9 10 9 9 11 9
16 19 21 12 8 6 14 12 3 3 2 3 3 3 3 6 4 6 8 16 12 6 11 16 10 19 21 20 20 20 16 18 19 23 19 9 7 13 15 17 16 14 15 13 11 11 13 12 10 9 9 8 9 9

GFSWCAN_850_spd_087.txt.gz
Wind_Speed
29 24 19 15 15 12 10 10 12 12 8 7 5 5 3 3 2 5 3 1 2 1 4 7 5 3 5 6 5 4 3 3 4 4 3 2 2 3 2 3 3 3 4 2 2 3 3 4 6 1 3 2 9 23
28 23 21 17 14 14 13 12 12 11 8 7 5 4 3 2 2 6 4 2 3 2 2 2 5 3 1 4 10 5 2 3 4 4 1 3 1 2 2 2 2 1 5 4 5 5 6 1 5 6 2 3 11 25
28 23 21 20 15 13 13 12 11 10 8 7 5 4 3 1 2 5 5 1 3 3 4 5 2 6 4 6 4 5 3 4 4 3 7 3 2 4 3 4 1 2 3 3 4 3 5 6 7 6 6 5 9 21
28 26 21 18 15 11 11 11 10 9 8 7 5 4 3 2 2 4 5 1 2 1 1 3 4 11 8 5 2 2 8 8 7 4 3 3 3 7 4 3 4 5 6 4 2 4 2 9 8 9 8 9 11 14
27 20 14 14 13 10 10 11 10 10 9 8 5 4 4 3 3 3 6 4 1 1 2 4 2 7 10 9 4 5 6 8 5 2 3 2 3 3 1 2 2 6 6 4 5 9 8 7 14 12 13 15 15 18
20 15 10 9 9 10 11 11 10 11 9 8 6 5 4 3 3 6 3 7 4 0 2 1 2 7 14 9 8 9 8 7 3 3 2 2 3 1 2 2 6 10 8 8 3 10 9 4 6 5 14 17 22 19
14 11 9 6 7 9 9 10 8 9 8 8 6 6 4 3 4 5 2 4 8 4 2 3 5 6 13 13 10 8 9 6 4 4 4 4 5 4 3 3 7 12 8 7 7 7 5 4 4 5 9 12 15 23
12 10 5 5 5 5 5 6 8 9 8 6 6 5 3 2 3 6 5 3 4 4 2 1 3 2 14 5 5 8 6 6 3 4 3 3 4 1 3 9 6 11 10 7 12 11 9 7 6 9 13 15 15 17
11 7 4 2 4 3 3 9 9 11 8 5 4 3 1 3 3 4 4 4 5 3 2 2 4 4 12 7 5 4 4 1 1 3 3 5 0 4 8 9 9 8 10 9 10 7 5 9 14 12 13 15 18 19
12 6 3 1 4 5 7 9 9 12 9 7 3 1 2 4 5 4 2 2 3 4 4 4 4 3 9 5 2 4 2 1 1 3 6 2 3 17 16 15 10 9 7 8 8 7 8 12 12 10 11 11 11 13
14 10 6 3 2 4 6 9 10 11 13 5 3 1 3 5 4 3 3 2 3 2 5 6 11 3 4 3 3 1 3 1 1 3 2 2 3 5 7 8 11 10 10 8 10 8 8 7 6 7 9 10 12 13
6 10 11 10 7 6 9 12 12 9 8 6 3 3 3 4 3 2 2 1 3 4 4 4 6 9 4 3 5 2 3 1 3 2 1 2 4 6 3 3 9 11 10 8 10 7 8 7 7 9 12 13 14 14
3 1 4 6 6 8 10 10 4 3 4 3 1 2 2 3 1 4 4 3 2 4 4 6 2 4 4 4 6 3 2 4 1 2 3 4 3 4 6 8 9 7 7 9 9 8 6 6 9 10 11 10 9 12
8 5 4 3 4 5 4 2 2 2 3 1 2 2 4 3 4 4 4 4 6 5 8 11 6 3 4 3 3 4 2 1 2 3 5 3 8 8 7 4 3 3 6 7 5 4 4 4 4 7 9 9 9 9
5 5 6 6 5 5 4 4 4 4 2 2 3 3 5 9 9 8 13 11 9 4 8 6 5 3 3 3 1 2 2 3 4 4 3 6 9 10 8 7 9 8 5 4 5 2 1 3 4 7 7 9 10 13
5 4 6 6 6 4 3 6 6 5 2 3 6 3 6 3 6 3 7 15 11 14 9 3 3 3 2 4 3 5 4 5 4 4 8 11 12 9 7 11 8 8 5 4 2 2 3 4 5 7 10 14 17 20
4 4 3 4 5 4 1 2 5 4 4 4 6 11 15 16 15 14 11 5 15 16 3 3 4 5 4 2 3 4 5 4 11 12 13 14 12 11 13 11 8 6 5 2 1 2 4 7 9 12 16 12 12 14
4 4 4 5 5 5 5 4 3 4 6 9 6 13 11 13 19 15 11 8 18 10 9 5 6 3 5 6 4 5 11 9 11 14 17 14 12 13 12 9 7 7 2 1 3 5 5 8 9 7 11 12 16 26
6 4 3 4 5 4 3 5 6 4 11 13 16 20 18 15 16 14 11 19 15 18 6 8 3 4 4 8 12 12 16 17 20 21 16 14 11 10 10 9 8 7 10 9 8 6 4 7 9 9 10 14 17 22
7 7 7 6 5 3 3 4 6 6 5 4 8 12 11 11 13 12 14 18 14 7 4 4 4 8 10 13 11 13 18 23 21 21 20 16 13 12 13 11 9 9 10 8 5 5 10 10 10 7 7 9 11 13
5 6 7 7 6 7 5 4 6 6 7 6 8 6 4 5 6 11 12 12 8 5 5 11 15 15 11 9 12 16 16 23 25 24 27 22 18 17 14 11 11 9 6 5 8 11 10 7 2 1 5 5 6 3
7 6 4 6 5 4 6 7 6 7 6 8 12 11 6 5 6 7 7 8 6 7 8 9 11 13 14 16 18 15 13 14 17 19 22 24 23 19 18 17 14 7 4 5 7 7 4 3 3 1 5 3 3 4
7 6 3 5 4 5 5 6 5 4 2 4 2 3 2 2 3 4 4 6 6 8 9 9 11 15 17 19 17 16 16 18 18 18 18 22 19 17 16 16 12 7 7 8 7 5 5 2 2 3 3 3 2 5
7 3 3 4 7 4 3 4 6 5 5 2 1 0 2 2 3 3 3 4 9 9 10 13 20 22 20 20 20 18 16 15 15 15 19 21 20 17 16 17 13 6 5 8 7 6 6 4 2 1 3 3 2 1
3 5 4 5 5 4 4 3 4 2 3 2 3 3 3 4 2 3 3 4 9 15 18 20 20 20 22 20 18 16 18 15 15 17 18 18 17 18 19 18 14 10 9 10 9 8 7 5 5 5 3 1 4 5
4 6 8 5 4 4 4 3 3 3 2 3 3 3 5 3 2 4 3 5 13 18 19 19 20 19 20 18 17 17 18 17 15 15 17 18 16 15 19 20 19 17 13 10 10 11 10 9 7 4 4 1 2 1
3 5 9 8 6 4 5 3 7 4 4 4 3 3 2 2 4 4 4 5 10 16 15 15 15 17 19 19 18 16 14 18 17 15 13 18 20 15 15 17 20 17 15 14 14 12 10 9 8 9 4 3 5 4
7 4 5 3 7 8 3 3 3 3 3 2 3 3 2 3 3 2 4 5 5 10 12 17 16 15 17 17 12 16 18 20 18 18 19 17 14 14 18 23 16 14 16 15 16 13 12 10 9 7 7 6 6 6
6 8 4 6 6 6 6 7 6 5 2 5 5 4 5 4 4 5 6 8 12 15 18 19 16 15 13 17 16 21 22 22 22 25 23 20 15 13 10 9 13 20 18 17 18 15 12 9 10 10 9 6 4 4
7 12 6 5 4 5 8 10 9 14 20 13 9 6 7 5 5 5 13 15 20 20 20 19 17 16 15 22 24 23 22 17 17 21 24 22 19 14 14 12 11 15 19 18 15 14 13 12 12 12 12 9 7 7
4 5 7 7 6 15 24 20 21 17 6 8 8 5 5 4 5 7 12 21 22 20 19 18 15 18 23 26 24 23 20 16 14 12 13 12 14 17 16 14 10 13 17 17 13 10 9 8 10 9 8 10 11 12
8 13 6 4 6 17 17 19 9 8 8 7 3 3 2 1 0 1 4 4 12 20 20 20 19 24 23 14 9 10 8 16 19 17 15 14 16 19 19 18 14 19 18 15 13 11 10 10 11 10 8 8 9 12
13 11 14 7 5 4 2 4 2 3 4 4 4 5 6 4 3 2 10 11 15 16 14 12 11 13 19 26 22 17 14 13 13 15 17 15 14 11 12 20 22 19 19 18 16 15 13 13 13 13 14 14 12 12

GFSWCAN_850_spd_090.txt.gz
Wind_Speed
24 25 25 20 18 13 12 11 11 10 10 9 7 5 5 3 1 6 4 1 1 1 5 6 5 6 6 5 4 4 3 3 4 4 3 2 2 2 3 1 1 3 4 2 2 3 4 4 3 1 4 2 8 20
24 24 25 21 18 16 13 14 13 12 10 8 7 5 4 3 1 5 4 4 3 2 3 5 7 6 3 2 8 7 2 3 4 4 1 3 2 1 3 2 2 1 5 4 6 5 5 4 2 1 2 3 4 19
24 25 25 25 19 16 12 13 13 11 9 8 7 4 3 2 2 5 6 4 5 3 3 6 6 5 4 3 4 5 3 4 4 3 7 2 2 4 4 5 2 2 4 3 3 3 5 3 1 0 2 7 9 7
25 27 25 19 12 13 12 11 11 11 10 9 7 5 5 4 3 6 6 4 2 2 2 4 7 8 8 5 3 2 4 8 8 4 3 3 2 6 3 2 3 4 7 4 3 6 5 8 8 4 3 1 3 4
26 25 20 13 11 11 12 11 11 11 11 10 7 6 6 5 4 4 7 7 3 2 2 2 4 10 11 7 4 3 6 6 5 3 2 2 4 4 1 2 3 8 6 5 5 11 10 7 12 9 8 6 6 5
26 20 15 9 8 9 12 11 11 10 12 10 8 7 7 6 5 5 3 8 6 3 3 1 3 7 12 11 7 9 8 6 4 3 2 2 3 2 3 3 7 14 12 11 5 7 10 4 6 3 9 12 13 14
20 15 12 7 7 8 10 11 11 10 10 9 7 7 6 6 6 6 2 3 8 3 2 3 3 5 12 13 12 9 8 4 2 3 2 4 4 3 3 3 6 12 12 11 8 10 7 6 3 1 3 4 5 11
19 13 10 6 8 7 6 6 9 10 10 8 7 6 5 5 5 7 4 3 5 4 2 1 3 3 13 6 5 6 5 5 1 3 3 3 5 2 3 10 6 6 9 8 13 11 5 6 4 4 6 9 11 11
18 11 8 5 4 4 2 8 10 12 10 8 7 6 3 4 4 5 6 5 5 3 2 2 4 4 9 5 5 4 3 1 1 1 2 4 0 3 7 7 7 8 10 10 11 12 9 6 5 7 8 9 10 11
15 11 8 2 3 4 5 8 10 12 11 8 7 4 3 5 8 7 3 2 4 4 4 3 4 1 5 3 2 4 2 2 0 2 2 1 3 15 15 12 9 4 10 9 16 11 7 3 5 5 6 7 9 10
10 12 8 3 1 3 6 8 9 10 11 7 4 3 7 9 5 2 1 1 2 2 5 4 11 3 3 3 3 1 2 1 1 3 2 2 3 5 4 7 8 12 13 12 10 5 3 2 2 2 3 6 9 11
5 7 9 8 5 4 7 8 10 12 8 6 5 5 6 4 2 2 2 1 3 4 5 4 6 4 5 3 4 2 2 1 2 3 1 3 4 3 4 2 2 12 13 7 8 6 3 2 2 4 7 11 10 12
7 4 3 4 5 8 13 10 8 8 12 10 2 3 2 3 2 5 5 3 2 5 8 7 3 6 4 3 5 2 3 3 2 2 3 5 3 2 2 6 8 9 9 8 8 6 4 5 5 6 8 7 9 9
10 8 5 2 3 5 4 1 2 5 5 3 5 0 4 3 4 5 4 4 5 4 9 11 6 3 3 3 3 3 0 2 2 3 5 3 6 7 8 7 9 8 7 7 5 4 3 3 4 6 7 9 10 10
8 7 9 7 5 4 4 3 3 4 3 3 3 3 5 9 7 4 8 5 4 6 13 7 5 3 2 3 1 3 3 3 4 4 3 4 7 11 10 8 9 9 8 6 4 2 1 1 3 4 4 6 9 12
5 5 6 7 6 4 4 4 5 4 3 3 5 2 7 1 3 2 8 12 10 13 9 4 3 3 2 4 3 5 5 6 4 4 7 9 15 11 11 11 9 8 6 4 2 1 1 2 3 6 10 14 15 15
6 5 4 4 4 5 3 3 5 4 4 4 6 10 13 11 9 9 5 6 9 16 3 4 4 5 4 2 3 4 5 4 7 9 10 11 13 11 12 12 11 6 4 4 3 1 2 5 8 10 5 7 12 20
3 4 4 4 5 4 4 4 2 4 5 8 5 6 10 11 9 10 7 3 13 9 9 5 7 3 5 5 4 5 12 9 7 12 13 14 12 12 12 11 8 9 5 3 1 2 4 8 4 9 10 12 17 20
6 5 3 3 5 3 2 3 5 4 9 8 10 13 15 17 16 14 14 8 16 11 7 8 3 4 4 9 11 10 12 16 17 17 16 15 12 12 13 11 10 7 4 6 5 3 6 3 7 7 7 11 13 16
6 7 5 4 4 3 2 3 5 5 5 4 7 8 7 9 13 12 11 10 19 7 4 3 5 9 12 16 13 10 9 16 22 22 19 17 16 16 13 12 10 8 8 9 6 2 7 8 7 3 6 9 11 9
4 5 6 7 4 4 3 4 5 6 6 5 7 6 5 7 6 6 8 11 9 5 6 14 18 18 14 11 8 8 11 23 26 22 24 23 19 16 13 13 10 8 7 8 5 10 9 6 2 3 4 4 9 7
6 7 5 7 5 4 6 8 6 5 5 6 8 9 6 4 5 6 8 9 7 11 15 17 17 13 12 12 10 10 12 21 21 20 18 21 21 19 18 14 12 10 7 4 8 8 6 5 4 2 3 4 5 8
8 8 3 4 4 5 5 5 4 4 2 3 2 2 2 2 3 7 4 6 8 16 17 16 11 8 9 9 10 15 15 17 20 21 19 24 20 16 16 14 12 8 6 9 10 8 5 4 4 1 1 2 3 6
5 4 4 4 7 4 3 4 5 4 4 2 2 2 1 2 5 3 3 6 14 14 18 16 13 12 11 16 18 17 16 16 17 20 19 23 23 20 16 13 14 8 5 7 8 8 8 6 4 3 5 6 6 5
3 4 4 4 5 4 3 3 4 2 3 3 2 2 2 3 2 3 3 5 10 10 13 13 14 18 23 24 21 19 18 18 17 18 19 20 22 20 18 17 16 13 12 12 11 9 8 7 5 6 6 4 5 7
2 6 7 4 3 4 3 2 2 2 1 2 2 3 3 2 2 5 3 5 11 16 18 18 21 25 26 23 22 21 21 19 14 15 18 19 21 21 19 20 21 20 17 12 11 10 9 8 7 6 4 5 3 2
3 4 7 7 5 4 5 6 4 2 5 3 2 3 3 3 4 4 3 4 4 13 17 16 20 24 22 22 19 16 19 18 15 14 13 14 15 15 14 16 17 13 15 15 13 14 13 11 11 10 9 6 7 7
6 4 5 3 5 6 3 3 2 3 4 4 4 3 3 3 3 2 2 1 2 4 13 11 11 14 15 18 17 17 16 17 18 19 18 18 17 17 15 14 15 13 14 16 14 12 12 11 11 10 9 7 7 7
6 5 4 4 5 5 7 6 5 5 2 2 2 3 4 3 2 4 5 5 6 10 16 18 16 16 18 20 19 18 17 18 22 23 19 19 19 19 15 13 14 17 17 19 17 15 14 12 10 11 11 8 5 5
6 10 5 4 3 4 7 11 6 8 13 14 6 6 3 2 4 7 6 9 11 13 15 19 22 23 20 18 21 23 21 21 19 19 18 19 19 16 13 11 9 8 15 20 17 17 16 16 14 14 15 13 12 8
3 6 5 5 5 15 22 20 22 23 25 12 6 4 0 0 1 3 2 9 15 14 13 16 18 17 18 15 16 17 18 17 14 11 10 9 10 14 11 8 7 5 9 13 14 15 13 13 12 12 12 12 12 10
8 10 5 3 5 8 10 12 8 3 1 2 2 3 2 3 4 5 9 10 4 15 20 20 18 15 13 8 9 9 7 8 12 10 9 10 11 12 12 11 11 9 9 13 14 14 13 10 9 9 9 8 8 9
9 7 10 9 5 3 2 4 2 3 4 3 4 5 6 6 4 3 5 2 4 9 12 15 12 10 16 10 10 13 8 2 11 12 11 11 10 10 11 13 16 16 15 19 17 15 14 13 13 13 14 13 12 13

GFSWCAN_850_spd_093.txt.gz
Wind_Speed
24 23 23 22 23 24 18 14 12 10 10 10 9 7 5 4 4 7 5 1 1 2 4 8 7 5 5 4 3 4 3 1 2 2 2 2 2 2 2 1 2 3 3 2 2 2 5 4 1 2 3 4 3 7
24 23 23 24 24 26 20 16 13 12 12 10 10 8 6 5 5 7 7 4 2 3 3 7 8 7 4 2 7 8 1 3 3 3 2 3 2 3 2 3 2 3 2 1 4 1 1 2 3 3 4 5 6 4
24 23 24 26 24 22 16 15 12 13 12 10 10 9 7 6 6 7 8 3 3 3 3 6 9 9 6 3 2 4 3 5 4 4 5 2 2 3 3 3 3 3 3 2 3 4 5 3 2 3 3 6 7 5
21 22 24 24 19 15 12 14 11 11 10 10 11 9 8 7 6 8 8 5 2 2 2 5 8 8 9 5 3 2 2 6 8 5 3 2 2 4 2 1 3 1 9 5 3 5 4 8 7 4 2 2 5 6
19 21 23 18 13 12 11 12 11 11 11 11 11 9 8 8 7 7 9 7 4 3 2 1 10 9 11 9 5 2 4 7 4 2 2 2 3 4 1 1 3 9 5 5 4 8 8 3 8 9 6 3 1 2
18 18 20 15 9 9 9 10 10 11 11 12 11 9 9 8 7 6 4 9 6 4 3 2 3 7 13 11 8 10 7 5 3 2 2 2 3 2 3 3 5 10 12 11 3 7 11 6 6 8 9 6 5 6
16 17 16 12 8 9 9 9 9 11 12 12 11 9 9 8 7 5 2 4 10 6 2 2 3 5 13 14 10 8 6 3 3 3 2 3 3 3 2 3 3 6 12 11 9 6 6 8 5 6 5 3 2 4
15 16 12 8 6 8 8 8 7 10 12 11 10 9 7 6 7 8 4 4 7 4 2 1 2 4 11 5 4 6 5 4 1 2 2 2 4 2 4 10 5 4 6 9 12 11 4 9 8 6 3 2 4 5
13 15 10 7 4 4 4 5 9 12 12 10 9 8 5 6 5 7 9 6 5 4 1 2 3 3 9 4 5 4 4 2 1 2 2 3 2 4 7 8 8 9 8 5 11 14 10 7 7 4 4 5 4 3
10 13 11 6 3 3 3 7 9 12 11 10 9 5 4 7 9 10 5 4 5 4 4 3 3 3 6 3 2 4 2 2 2 1 2 2 3 12 12 9 8 8 12 10 11 11 11 8 4 2 2 3 3 4
7 9 12 7 3 4 8 9 9 9 12 8 6 3 9 13 6 4 2 2 2 3 5 3 7 4 5 3 3 1 3 1 2 2 2 2 3 3 2 3 7 12 13 11 11 10 9 5 4 3 2 2 4 6
7 4 7 8 7 2 9 10 10 12 8 7 6 10 8 3 2 2 2 2 4 3 5 5 5 3 5 4 4 2 2 2 1 4 2 3 3 3 2 2 3 8 14 14 13 10 7 6 5 3 3 4 6 7
8 5 3 4 5 9 10 6 9 11 14 9 3 3 1 3 2 5 6 3 3 5 8 7 5 5 4 3 5 2 3 2 4 2 3 4 2 3 2 6 12 13 15 9 12 11 9 8 7 6 5 6 8 8
7 8 6 2 5 7 3 4 4 9 12 3 4 1 4 4 4 4 4 3 4 4 12 11 6 3 3 3 2 3 2 3 2 3 5 2 6 8 8 8 10 11 11 12 11 10 8 5 3 2 1 2 4 6
8 7 8 11 7 6 4 4 5 6 5 4 4 4 6 5 3 1 6 2 3 8 16 8 6 3 2 3 1 3 4 4 4 4 2 4 10 12 10 10 10 12 12 11 10 6 5 4 2 1 3 6 9 12
5 5 5 16 10 7 5 6 6 5 3 4 4 3 4 2 3 4 6 6 10 16 10 4 3 3 2 4 4 5 4 6 3 4 7 9 12 13 13 13 14 14 12 10 7 6 5 4 2 1 4 5 7 10
4 5 6 8 8 9 6 5 6 4 4 3 4 7 6 5 4 3 5 2 11 13 3 3 5 3 5 3 4 4 4 3 6 8 11 13 15 15 15 15 14 12 9 9 8 7 4 1 3 3 6 7 10 14
3 7 7 6 7 6 5 5 3 3 4 6 5 3 7 7 5 4 1 7 11 9 7 4 7 4 4 5 4 4 10 8 6 9 15 16 17 14 15 16 13 11 10 9 7 4 1 2 7 10 9 10 9 11
6 6 4 5 8 6 4 4 4 3 7 5 8 10 9 9 12 13 11 8 12 11 5 6 3 4 4 7 8 6 7 13 13 17 18 18 17 18 18 15 13 13 10 7 5 3 0 8 9 6 4 6 6 7
7 8 6 4 6 4 2 3 5 5 4 3 7 6 6 6 8 10 10 10 17 8 5 4 5 6 7 9 9 10 11 13 16 20 21 21 20 20 18 15 15 11 9 7 7 4 7 9 9 3 2 4 8 4
5 6 6 7 4 4 2 3 5 5 4 5 5 4 4 7 7 8 8 15 9 5 6 10 15 19 17 15 14 12 12 15 23 23 25 23 24 22 19 17 15 11 9 8 8 8 10 9 6 1 2 3 5 7
6 7 6 7 3 3 5 7 5 4 4 5 4 5 5 4 5 6 10 7 7 9 14 18 22 18 15 16 14 13 12 16 22 24 22 23 26 25 21 18 15 11 9 7 8 11 11 8 4 2 2 3 2 7
8 8 3 5 4 4 4 5 4 4 3 2 2 3 3 3 3 8 5 7 9 18 21 22 22 20 15 13 12 13 14 20 24 23 19 21 21 20 19 17 14 11 10 10 13 13 10 7 6 3 2 1 1 3
6 6 3 4 6 4 3 4 5 4 4 3 3 3 3 3 5 3 4 5 16 17 17 21 19 17 15 15 15 17 18 21 22 22 21 21 21 19 18 17 16 11 7 11 14 13 12 8 7 5 3 3 4 3
2 4 3 3 4 3 4 3 4 3 3 3 3 1 1 3 2 2 3 4 6 8 11 15 18 17 14 16 17 18 18 18 21 21 22 20 22 25 21 19 17 14 11 12 13 13 13 11 8 5 3 2 1 2
3 5 7 4 2 3 2 2 3 5 2 0 2 3 3 1 2 4 3 4 6 7 9 12 14 16 16 18 20 20 19 17 16 15 17 21 23 24 23 21 21 19 16 13 13 13 13 11 9 6 4 4 3 1
2 3 5 6 3 4 5 7 7 1 3 0 2 3 4 3 3 2 4 5 5 5 6 7 9 13 15 16 17 15 13 14 13 12 10 18 22 22 21 20 20 18 18 17 15 15 14 12 10 8 6 5 5 5
5 3 4 3 5 5 4 3 1 4 4 6 4 4 2 2 1 2 2 5 2 1 9 10 9 10 13 14 13 14 15 16 13 12 12 14 15 17 18 18 19 17 16 18 18 14 13 12 11 9 8 6 5 4
4 4 4 4 5 4 5 4 3 4 2 3 4 2 2 2 3 5 6 4 2 2 11 13 13 13 14 15 17 15 15 18 20 19 18 14 18 18 16 17 18 19 18 16 20 19 15 12 10 10 9 8 7 6
5 8 4 4 4 5 5 7 5 7 9 10 7 8 5 4 4 7 6 1 6 3 9 13 13 15 19 22 21 20 20 19 18 20 21 20 17 16 17 18 17 16 16 18 18 21 20 18 16 14 11 11 11 10
3 6 5 6 5 10 15 15 19 22 19 10 7 5 4 2 3 5 8 7 6 5 10 14 14 16 17 18 17 14 17 18 12 11 14 14 7 10 15 12 11 9 8 10 15 19 19 19 16 14 12 11 11 11
7 9 5 3 4 6 10 6 4 2 1 2 4 5 4 5 4 8 12 16 8 6 12 15 20 11 10 9 8 12 7 5 9 8 6 8 9 9 11 11 12 9 4 6 13 15 15 14 13 11 10 8 8 8
7 6 8 7 5 3 2 1 2 3 4 3 5 6 7 6 5 8 11 10 7 3 7 14 13 3 9 18 23 18 12 10 7 10 9 8 8 8 9 11 13 12 12 9 12 15 15 15 13 11 10 9 9 10

GFSWCAN_850_spd_099.txt.gz
Wind_Speed
20 19 19 20 21 21 20 20 21 18 15 14 12 12 10 7 7 6 2 7 4 11 5 7 3 3 3 7 4 13 5 6 8 4 3 3 5 1 5 7 3 3 5 5 4 5 5 2 4 3 6 6 4 2
15 16 17 18 19 20 21 21 19 16 14 14 12 12 12 10 9 7 2 7 6 8 5 5 7 5 3 4 7 5 5 2 7 4 0 1 3 3 6 5 5 5 4 4 4 6 6 7 10 6 5 5 4 3
16 17 18 18 18 19 20 19 14 11 11 12 13 12 12 12 11 11 7 5 5 8 15 11 15 11 8 7 7 9 7 1 3 5 5 1 0 3 4 5 2 7 1 5 1 8 3 5 5 4 3 4 3 3
18 17 17 17 17 18 18 13 10 9 9 11 13 12 13 12 12 11 8 5 7 7 11 15 8 10 9 6 5 6 1 3 1 6 8 4 4 2 3 3 4 3 9 7 6 4 4 6 6 6 4 1 1 2
17 17 17 16 17 17 14 10 9 8 9 10 12 13 13 12 11 10 10 8 9 7 5 10 11 13 9 8 6 4 6 7 8 7 5 5 2 1 7 4 6 10 6 6 3 3 9 2 11 7 6 4 3 2
15 15 16 16 16 15 10 9 6 9 9 11 12 13 13 12 10 6 5 10 10 8 7 4 7 11 11 10 7 5 6 8 7 6 5 1 2 4 4 4 5 9 9 8 5 5 7 3 6 8 7 6 5 3
13 12 14 16 14 10 7 8 11 11 6 11 13 14 12 12 13 9 1 6 16 7 7 5 7 11 14 12 10 8 6 5 7 4 4 5 5 5 6 7 4 4 5 7 7 6 6 7 7 7 8 7 7 4
12 10 13 15 12 8 7 7 8 8 7 12 12 12 10 10 10 10 4 3 14 11 8 4 3 9 18 13 11 10 9 7 7 6 1 7 8 6 4 5 7 4 5 7 9 10 7 9 7 8 8 7 6 5
10 9 11 13 9 7 6 7 8 6 10 12 12 10 8 7 7 9 8 6 16 6 5 7 7 5 18 20 14 9 7 6 4 5 6 1 5 4 7 5 4 6 7 8 9 10 10 10 10 10 8 6 5 4
9 8 9 9 8 6 5 3 3 6 9 14 15 5 5 9 8 6 7 7 8 11 7 6 15 6 16 15 9 9 8 6 3 3 4 3 6 13 13 9 7 6 9 8 10 11 10 11 12 10 7 4 3 2
8 8 9 8 7 5 4 4 7 7 15 13 5 3 4 12 9 7 7 8 10 6 10 15 12 6 9 10 9 9 3 2 3 4 4 3 4 6 5 7 11 8 10 10 7 7 11 10 10 10 6 4 3 2
8 9 8 6 7 6 5 8 10 12 11 7 7 7 7 6 6 6 5 6 5 7 9 15 12 10 10 7 4 6 3 3 5 9 4 2 4 4 6 5 6 8 10 10 9 9 10 11 10 7 6 5 4 2
7 8 6 4 4 2 1 8 11 14 10 10 5 6 5 5 2 6 9 6 6 7 9 15 16 12 5 10 3 4 5 6 5 3 2 5 8 8 7 6 6 7 9 10 10 10 10 9 8 7 6 3 3 4
7 5 7 6 5 3 5 4 11 15 6 2 2 1 3 4 6 6 7 6 6 8 14 16 16 12 9 5 4 5 4 4 4 6 5 3 15 11 8 8 10 10 12 13 13 12 11 10 8 7 5 3 2 3
8 7 6 9 9 4 1 2 12 13 3 2 2 3 7 11 10 8 6 5 9 14 17 19 11 9 7 3 4 3 4 5 4 6 5 16 13 12 13 13 12 12 11 12 11 11 11 11 8 6 4 3 2 2
8 8 8 12 12 6 4 5 10 5 2 2 7 8 9 10 9 10 11 10 8 7 7 5 2 2 5 4 6 8 4 5 5 5 14 11 13 14 14 13 12 11 11 11 12 12 11 9 7 5 4 2 1 1
7 6 6 11 14 7 8 7 4 4 6 6 9 13 15 3 2 12 10 10 12 16 5 6 7 6 5 4 5 5 8 5 5 8 7 9 15 16 15 14 14 13 12 12 11 10 9 8 6 5 5 4 3 2
5 5 7 12 14 12 8 5 4 5 7 11 9 8 8 8 10 9 6 8 13 14 12 2 6 5 4 4 5 6 8 6 3 2 8 11 15 17 17 16 16 16 15 13 12 11 10 8 7 8 7 6 5 3
6 6 9 12 13 9 6 6 5 4 8 10 9 8 6 6 8 6 9 9 9 4 6 6 4 6 6 4 4 6 10 8 10 9 9 13 17 18 18 18 17 16 15 14 14 11 9 9 9 8 7 5 5 3
5 7 8 13 14 3 3 4 6 6 7 7 11 13 11 12 11 13 14 12 12 11 5 4 7 10 2 2 5 5 1 3 5 7 10 15 17 19 20 19 17 16 15 14 13 10 9 9 10 9 7 6 5 4
5 9 8 9 9 4 3 4 6 8 7 6 9 13 13 13 16 14 15 16 16 18 13 16 14 14 12 1 4 4 5 6 8 11 15 18 19 20 20 18 16 16 16 15 14 12 11 11 11 10 7 6 6 5
4 8 5 8 2 3 6 9 7 5 5 8 6 8 7 9 11 14 15 13 19 20 19 20 19 18 15 13 12 10 9 9 9 9 12 21 22 22 21 19 18 17 16 14 13 12 12 12 11 10 8 7 5 6
9 8 4 5 4 5 7 6 5 6 4 3 8 9 8 10 9 10 6 14 21 22 21 21 20 17 16 13 8 10 11 11 10 13 15 19 19 20 19 18 17 16 15 14 12 12 13 14 13 10 9 6 6 5
9 5 3 4 9 5 4 5 6 5 5 6 4 5 4 5 5 5 7 14 16 16 19 17 16 18 17 14 16 15 14 12 13 13 17 19 20 20 19 18 16 15 14 13 13 13 14 14 12 13 9 9 7 8
4 4 4 5 5 5 4 4 9 5 5 6 7 3 3 5 3 4 4 4 7 10 14 13 13 17 19 18 17 18 15 15 16 18 18 19 18 18 17 17 16 15 15 14 15 15 15 13 14 13 11 9 8 6
2 5 6 6 5 5 5 2 2 3 4 2 2 1 1 2 3 2 1 7 2 3 3 7 10 14 11 13 14 14 16 15 17 21 21 20 19 19 19 18 18 17 15 14 15 16 16 14 14 12 11 8 8 8
3 6 9 10 5 5 5 5 6 4 4 4 3 1 2 3 2 3 5 5 7 5 1 2 3 5 6 10 11 11 11 15 18 17 21 19 18 20 17 18 18 17 16 15 15 15 16 15 14 13 11 10 10 8
7 4 5 4 9 7 4 2 3 2 3 2 3 2 1 3 1 6 3 4 3 3 2 1 1 2 8 9 10 12 13 14 14 12 14 14 15 16 14 15 16 19 17 17 15 14 14 15 14 13 12 11 10 10
8 7 6 6 6 4 3 2 5 5 11 5 3 4 6 4 2 5 6 6 4 2 3 3 2 1 5 7 8 11 13 14 15 15 15 15 15 16 17 17 16 18 18 18 20 16 15 14 13 13 13 12 11 10
9 8 7 5 4 4 7 8 14 14 15 18 5 5 1 3 3 5 7 7 4 2 4 5 4 5 5 9 11 11 12 12 12 12 15 14 14 16 17 17 17 19 19 19 18 19 21 19 16 14 13 12 12 12
1 5 11 9 8 12 13 8 7 5 6 2 3 3 1 3 4 6 9 9 8 7 7 7 6 7 8 10 14 14 14 11 6 8 4 10 12 13 14 16 16 17 17 18 17 17 18 21 21 18 16 16 15 14
8 10 8 8 10 8 7 9 8 7 3 2 3 4 6 3 2 7 12 11 7 6 7 4 3 2 7 13 16 14 12 9 6 5 7 6 6 6 9 12 14 15 16 16 17 17 19 21 20 21 21 18 17 16
11 10 8 7 7 6 8 6 2 4 3 3 5 8 10 7 5 4 8 12 12 9 6 4 2 5 7 7 7 6 9 7 11 13 16 14 17 13 11 13 14 13 13 13 13 12 13 16 18 19 20 18 15 14

GFSWCAN_850_spd_102.txt.gz
Wind_Speed
18 14 14 15 16 18 18 18 19 20 19 16 15 13 14 11 9 9 8 6 6 9 21 8 5 3 2 7 5 8 5 5 7 8 4 4 3 13 10 6 2 2 3 4 6 9 6 7 12 2 6 2 10 9
17 16 17 17 18 18 18 19 20 19 16 14 14 13 14 12 10 9 6 2 7 9 9 10 6 6 6 5 10 1 2 10 8 4 2 1 3 4 2 3 3 4 6 4 7 3 8 9 9 8 8 5 7 7
17 17 17 17 18 18 18 18 19 15 13 12 12 14 14 13 12 11 13 2 4 9 17 19 13 12 11 7 7 11 5 3 3 6 11 1 3 4 3 3 1 5 2 2 3 12 11 8 5 5 6 6 3 3
18 18 17 16 17 17 17 16 15 12 11 11 11 14 13 13 13 13 15 6 7 8 10 19 19 20 13 11 6 8 4 3 1 4 9 5 3 2 3 6 2 8 6 3 3 8 6 5 5 6 5 2 1 2
18 17 17 16 16 17 18 15 10 9 9 10 11 13 12 13 12 12 14 16 7 8 7 13 14 13 14 10 8 6 6 5 7 7 5 5 2 2 4 4 4 6 3 3 1 7 9 2 10 4 5 3 2 2
17 16 15 15 16 16 16 11 8 7 9 8 10 14 13 12 10 7 4 10 10 9 6 5 18 17 13 13 9 6 8 8 12 10 8 2 9 3 5 4 6 6 5 4 2 3 4 2 6 6 6 5 5 3
17 14 13 14 15 14 10 8 7 8 9 7 11 14 12 12 14 8 2 6 15 9 6 6 8 14 15 13 12 9 6 7 9 8 6 6 5 5 4 6 4 3 3 5 5 2 3 7 6 6 5 5 5 2
15 14 13 13 13 11 7 6 7 8 9 8 11 11 9 10 12 15 3 5 12 7 7 4 3 2 14 12 12 11 8 9 7 11 5 4 7 5 3 7 6 3 4 5 6 7 7 7 8 8 7 6 6 8
13 12 11 10 11 10 7 7 7 8 9 10 11 9 7 7 6 9 9 5 11 6 6 6 10 4 17 18 15 13 9 7 6 7 10 6 5 3 5 7 4 7 5 7 8 8 9 7 11 9 8 7 5 5
12 11 10 8 9 9 6 5 2 5 8 12 15 3 6 9 5 9 5 4 7 7 8 10 16 4 11 19 15 10 9 5 5 4 7 3 6 13 12 11 8 4 8 7 9 11 9 9 12 11 7 5 4 2
11 10 9 9 9 9 6 4 7 5 15 12 5 3 4 13 7 5 7 8 10 6 10 15 17 7 15 10 6 5 3 3 2 5 4 4 4 9 11 12 14 11 8 9 6 7 6 5 16 13 9 7 5 3
10 10 9 10 8 9 6 8 10 11 12 7 3 6 7 6 6 5 4 5 6 12 11 21 20 7 15 6 4 3 2 6 5 5 4 2 6 9 8 7 7 10 10 10 9 9 11 9 12 12 9 8 6 5
9 8 10 8 7 3 4 9 11 13 12 6 4 5 5 6 1 6 9 5 7 8 12 15 12 5 2 7 6 5 6 4 4 5 3 4 7 13 11 9 9 8 10 9 8 7 13 13 12 11 10 9 5 2
9 8 9 9 6 2 2 4 8 12 10 2 3 2 5 5 6 7 8 10 8 15 16 16 15 6 5 7 3 4 5 5 4 4 8 7 19 15 13 10 9 10 10 11 11 17 18 14 10 9 6 4 2 3
10 10 8 9 9 6 2 1 13 15 4 2 2 3 6 12 11 12 6 6 9 10 14 14 12 15 2 3 4 4 4 5 5 11 8 21 21 16 13 12 11 12 13 13 15 16 15 11 9 8 6 4 4 3
9 9 10 8 10 7 3 2 16 6 3 1 4 5 12 12 11 15 16 11 10 12 13 12 1 3 4 2 10 8 6 5 10 7 17 20 18 14 14 14 13 15 16 15 14 14 13 12 11 10 7 6 4 3
8 8 7 11 12 8 8 8 3 4 6 5 9 13 20 17 14 15 14 14 7 18 8 5 3 2 5 6 8 9 10 8 4 20 16 20 20 17 15 15 15 17 16 14 15 14 12 11 10 9 8 6 7 5
8 7 6 11 15 12 11 6 4 7 8 13 13 21 27 18 10 5 8 4 11 8 6 4 2 3 3 4 8 11 15 9 9 12 19 18 19 17 16 16 17 16 14 14 14 13 12 11 10 10 9 8 8 7
8 7 8 14 18 10 4 5 5 5 8 9 16 14 6 9 10 10 13 21 22 8 8 5 3 4 6 4 6 2 5 18 19 14 17 15 15 16 16 16 16 15 16 15 14 14 13 12 10 11 10 10 7 8
5 7 10 15 16 6 3 4 5 6 5 6 11 11 12 11 9 11 12 12 16 10 2 3 6 18 7 13 27 17 7 9 8 13 15 13 13 15 17 18 17 17 16 15 15 14 13 11 12 11 9 10 7 6
6 8 10 16 9 5 4 5 7 9 7 6 9 8 10 15 13 15 16 15 14 12 12 14 27 8 20 8 1 8 11 8 8 10 12 15 19 20 19 17 17 17 16 16 16 15 11 11 12 12 9 9 7 6
3 10 8 11 4 3 6 9 7 4 6 11 9 10 10 10 11 15 14 12 17 18 17 18 16 15 7 13 16 11 7 5 7 5 5 14 23 23 24 21 19 17 17 17 16 16 14 13 12 12 11 8 7 7
10 9 2 6 6 4 8 8 5 5 4 4 12 12 7 9 8 7 4 15 22 23 23 20 18 17 16 13 6 8 8 8 10 12 15 18 21 24 23 21 20 18 17 17 15 14 14 14 14 13 11 8 8 9
8 4 4 6 9 5 6 6 5 5 5 6 3 5 5 6 7 6 7 15 16 15 19 22 21 20 20 19 16 14 13 11 11 12 18 24 24 25 24 21 19 17 17 16 15 14 14 15 15 16 11 11 10 9
3 4 4 5 6 5 5 6 8 5 4 6 6 5 2 5 3 4 7 2 8 4 6 10 14 12 22 20 22 19 19 17 13 14 19 21 25 26 24 20 17 16 16 16 16 16 16 16 15 14 15 13 12 9
3 6 5 5 3 4 3 2 2 4 5 5 3 2 2 3 3 1 3 6 7 3 7 15 19 23 17 11 12 15 13 17 14 14 17 19 22 23 21 19 19 18 16 15 16 17 17 16 15 16 16 13 10 8
3 5 9 11 8 9 3 1 4 2 3 3 3 3 3 2 3 5 10 4 8 4 1 1 3 6 10 15 13 12 10 12 12 17 19 20 18 21 20 20 22 19 17 15 14 16 17 17 16 15 14 13 11 9
6 4 6 6 6 10 5 2 2 1 3 3 3 1 2 2 3 3 12 19 9 3 1 2 3 3 3 5 8 9 9 9 10 14 16 14 17 22 16 17 17 19 21 18 16 15 17 17 16 15 14 12 11 12
9 7 4 8 5 4 3 4 4 4 5 4 2 2 2 6 8 2 5 4 3 4 0 2 3 2 6 6 9 10 12 13 13 16 18 17 18 16 23 23 17 24 22 20 20 17 16 16 15 15 14 13 13 11
11 8 6 2 3 3 3 10 7 12 17 16 7 3 8 7 9 7 8 9 9 9 9 8 8 9 4 7 5 7 10 12 11 11 11 10 10 9 9 16 17 15 14 15 17 19 17 18 15 14 12 11 11 13
2 5 8 8 9 10 9 7 13 15 10 12 16 15 3 2 6 10 13 12 9 8 8 9 10 8 6 2 5 12 10 10 7 4 4 8 17 18 19 14 12 12 14 15 16 17 17 18 16 14 14 15 15 14
6 5 3 4 9 11 15 14 6 5 3 5 6 4 2 4 4 9 15 14 12 11 10 7 5 7 5 7 8 15 20 12 8 7 5 10 15 14 11 11 13 12 14 16 17 16 17 20 20 19 18 19 18 17
10 11 12 10 6 6 9 5 3 3 5 5 8 9 9 7 5 3 7 11 13 12 9 6 5 6 9 12 15 17 17 11 8 10 10 4 15 16 11 6 6 12 14 14 14 15 17 18 19 22 24 18 19 18

GFSWCAN_850_spd_105.txt.gz
Wind_Speed
18 18 17 17 16 16 18 18 19 19 20 19 16 15 12 14 12 11 7 9 6 5 24 18 18 18 7 5 2 6 1 4 2 0 3 4 3 6 2 4 2 4 3 3 4 2 2 4 10 3 5 8 9 25
19 18 17 17 17 18 18 18 19 19 20 18 14 14 13 14 13 11 8 7 10 13 17 13 11 12 2 6 5 2 3 3 2 3 1 0 3 4 6 3 7 1 3 1 6 6 12 7 5 2 12 14 11 15
18 16 17 17 17 18 18 18 18 18 19 14 13 12 13 14 14 13 11 2 4 10 17 21 15 4 5 2 3 5 6 7 8 3 2 2 3 2 2 5 2 4 4 5 5 3 8 6 8 15 14 11 11 10
18 17 17 17 18 18 18 18 18 17 13 12 10 10 13 14 14 14 13 9 3 6 5 8 12 22 14 15 10 8 5 1 5 3 2 2 2 1 1 2 4 4 3 2 4 9 12 9 9 7 8 8 8 7
19 17 17 17 17 17 18 17 19 12 9 8 9 9 12 13 13 13 14 16 8 2 5 14 19 13 24 15 8 6 6 2 3 4 2 3 2 2 1 3 3 3 4 3 3 16 10 15 13 12 10 3 6 7
20 16 16 16 16 16 16 14 13 7 7 9 8 9 10 12 11 6 2 9 15 10 5 3 6 10 15 15 10 7 6 6 10 4 5 3 4 3 2 1 8 4 6 12 8 11 11 11 13 10 8 6 7 7
17 15 16 16 15 15 15 11 9 8 7 8 6 8 10 11 13 11 4 5 15 12 4 5 4 9 17 16 14 10 9 7 9 13 4 2 3 3 2 2 6 2 8 11 11 13 10 14 14 10 7 11 11 7
16 16 16 14 14 13 13 8 8 9 8 7 4 7 8 10 12 17 5 4 13 11 4 3 3 1 8 5 8 14 10 8 4 2 5 4 5 3 1 6 7 3 11 9 7 6 5 6 11 10 8 11 7 4
16 15 13 12 11 11 10 7 9 10 11 7 6 6 6 6 6 7 9 4 6 9 3 4 2 3 23 20 15 11 9 3 8 5 5 2 2 3 5 3 4 8 8 6 6 5 6 4 12 15 11 8 4 6
13 12 12 11 9 9 9 6 7 3 3 9 11 3 3 5 4 9 7 4 5 6 6 5 6 2 1 4 8 6 8 3 1 4 4 3 3 8 11 9 5 4 7 7 10 8 8 3 18 17 15 12 8 12
12 11 11 9 8 8 8 6 4 3 6 11 3 2 2 12 7 4 5 6 8 4 7 10 13 3 4 3 1 6 1 2 1 4 4 3 3 5 14 11 13 9 5 7 6 11 9 12 18 16 14 13 12 10
11 9 8 7 8 7 8 6 6 7 11 5 3 2 9 5 5 4 4 5 6 5 8 20 10 8 5 3 2 5 4 1 3 5 4 3 4 12 14 12 10 13 13 10 12 12 11 15 18 18 18 13 8 10
8 8 7 7 7 5 5 5 8 10 12 5 1 1 1 3 2 5 6 3 4 6 10 15 7 7 8 5 4 3 4 5 12 3 3 4 8 23 19 15 12 11 12 10 14 15 16 19 19 17 16 16 15 13
9 8 7 6 6 4 2 3 6 11 14 3 3 2 4 4 5 5 5 5 14 8 15 19 18 9 7 6 13 3 5 5 5 7 5 5 24 24 21 17 15 14 13 12 14 19 22 21 20 20 18 13 11 8
8 8 8 5 7 6 2 2 7 16 7 3 4 4 6 11 13 13 10 10 12 12 8 10 4 7 2 2 3 2 3 5 4 5 4 19 30 27 22 19 18 17 17 18 23 27 27 23 22 16 13 11 11 8
8 8 8 4 9 7 3 2 12 6 5 3 5 5 10 10 10 11 4 16 10 6 10 10 2 3 2 0 2 5 4 3 3 3 14 29 30 24 22 21 20 20 21 28 29 26 21 18 17 16 13 7 5 5
8 5 5 5 10 8 4 9 7 4 4 4 7 15 16 12 12 17 13 13 5 2 2 3 2 3 3 2 4 3 5 6 13 22 19 25 23 23 21 20 20 22 25 25 23 20 17 12 11 12 11 9 9 10
7 5 5 7 17 12 12 6 4 8 9 13 8 13 17 13 17 11 12 10 8 6 4 4 4 3 3 4 3 5 7 18 25 24 23 20 19 19 21 20 25 26 25 22 21 20 17 14 16 15 14 13 11 8
6 5 4 12 18 10 5 5 6 5 11 12 20 18 19 26 29 25 10 10 6 5 15 8 5 4 5 12 6 13 12 14 31 21 16 13 13 17 20 21 23 24 22 19 21 21 20 20 17 14 15 13 16 16
7 6 7 15 19 6 3 5 5 6 5 7 14 17 19 13 10 17 19 17 20 9 6 3 4 7 6 14 14 8 9 9 20 21 19 18 18 22 22 23 24 21 21 23 22 17 16 16 16 14 18 14 10 12
5 7 9 16 13 6 4 4 6 8 8 7 12 11 8 8 10 13 10 26 14 8 7 15 15 16 14 18 11 7 11 7 19 29 28 26 24 22 24 24 21 22 20 18 17 19 18 20 14 16 18 18 16 13
2 8 6 16 4 5 7 8 7 8 5 10 14 9 5 6 10 14 13 5 5 11 17 17 21 23 17 6 14 15 18 6 7 15 26 25 26 27 29 27 26 23 22 21 19 20 19 17 14 19 19 14 14 14
7 9 4 8 5 5 8 6 5 5 3 4 5 8 4 4 6 10 4 7 15 18 17 14 10 16 21 16 17 21 23 16 17 8 13 21 20 23 29 29 27 25 23 22 20 21 24 20 17 19 17 15 16 15
4 2 4 6 9 5 5 5 6 4 4 6 3 3 3 4 3 1 4 10 16 18 21 22 20 18 14 14 18 13 18 22 16 12 15 22 23 25 27 25 27 23 22 19 22 19 24 20 22 19 20 17 15 16
3 4 4 4 5 5 4 4 4 5 4 4 3 3 2 4 2 4 3 2 2 5 9 12 13 17 18 17 14 21 23 22 20 15 21 25 26 23 24 23 22 23 22 20 22 20 21 19 21 21 17 16 15 14
3 4 5 4 5 4 3 3 3 5 4 3 2 2 1 1 3 0 3 12 6 5 5 7 10 17 14 12 9 14 14 12 21 19 22 27 24 25 28 27 23 21 19 21 22 22 18 20 21 19 19 19 17 13
3 5 10 8 7 2 4 7 4 2 2 3 2 3 2 2 4 3 5 6 8 10 5 13 19 15 15 7 15 21 13 10 12 14 18 24 19 22 25 27 24 23 20 23 20 19 19 21 19 16 16 18 17 13
7 5 5 6 8 7 4 3 1 3 2 2 3 2 3 2 1 4 3 8 10 10 15 12 11 6 6 7 7 7 8 8 10 11 17 17 11 14 21 18 16 12 19 21 22 20 20 20 19 18 16 18 16 19
7 6 10 11 8 5 1 3 1 3 2 1 3 2 4 4 7 5 6 13 11 4 8 7 10 4 3 3 5 7 9 10 11 14 14 17 17 15 16 16 18 17 16 22 22 21 21 21 19 19 17 17 15 14
12 11 9 8 3 1 6 3 3 7 5 4 5 9 3 9 2 8 8 11 9 7 10 9 7 4 3 4 2 7 7 10 12 15 16 13 11 13 11 14 14 14 22 20 21 20 19 20 18 17 18 17 17 14
5 6 5 8 3 7 11 13 13 7 5 7 15 16 16 3 10 17 16 13 12 12 7 8 8 7 2 3 3 11 17 14 14 16 18 8 12 11 10 16 17 22 21 21 19 21 19 19 17 16 14 14 15 16
8 7 5 5 9 9 9 6 9 13 7 4 5 11 5 3 4 6 12 13 13 11 10 7 8 10 8 7 8 8 10 9 7 4 7 4 15 16 13 16 18 19 21 19 18 17 18 17 19 19 20 19 18 17
10 8 7 8 6 4 7 4 6 6 8 10 10 10 8 8 6 5 6 14 15 11 9 8 7 8 7 5 7 9 11 9 3 7 6 10 18 16 13 12 13 12 12 14 14 15 16 19 20 21 21 20 19 18

GFSWCAN_850_spd_108.txt.gz
Wind_Speed
18 17 17 16 15 15 16 16 17 17 17 17 18 16 14 14 15 14 7 11 9 6 21 21 17 11 15 4 4 5 4 3 4 4 3 2 3 5 2 4 5 3 4 3 2 1 1 10 3 6 3 7 18 15
17 16 16 15 15 15 16 17 17 17 16 16 18 15 13 14 14 15 9 13 7 14 11 12 14 15 13 6 3 3 4 3 4 4 1 3 3 2 4 3 1 1 6 7 8 5 5 5 9 15 16 18 13 17
16 16 15 15 15 15 17 17 17 16 16 16 14 13 11 12 14 16 13 10 8 11 22 19 19 10 3 3 4 4 3 3 4 3 5 2 2 4 4 4 3 3 7 4 3 3 4 8 25 19 21 24 20 16
18 17 17 16 16 16 16 16 17 17 17 11 11 10 10 11 13 15 14 8 6 5 4 7 7 16 12 6 4 1 9 8 6 2 2 2 1 5 4 3 4 5 4 6 2 2 1 10 16 14 16 16 20 25
19 18 17 17 15 15 15 16 16 17 8 7 8 11 9 10 11 12 14 12 10 5 3 11 18 18 22 14 10 9 8 7 3 1 2 3 3 3 2 3 1 3 6 4 5 11 5 15 14 9 9 10 12 13
18 19 18 17 15 14 15 15 14 12 7 7 9 9 8 8 8 6 4 10 15 12 5 3 7 12 16 20 17 11 8 5 4 3 2 3 2 3 3 2 5 4 9 13 7 15 13 18 18 16 16 12 9 8
16 17 17 15 15 15 14 14 11 9 8 7 8 6 7 9 11 9 2 5 12 12 3 6 7 2 13 21 16 13 9 7 5 3 4 4 4 4 3 3 4 8 18 18 22 20 17 21 19 16 14 16 14 15
15 15 15 15 15 13 13 13 10 7 8 7 7 5 6 7 9 13 7 5 10 12 3 2 5 2 11 8 7 11 8 8 4 4 2 4 5 3 2 6 5 13 22 20 17 13 17 18 17 16 19 20 17 18
13 12 14 14 13 11 9 10 8 9 10 8 4 4 4 5 5 5 11 3 8 6 3 3 2 3 2 6 8 9 8 2 4 3 3 6 1 3 7 10 8 23 16 18 16 14 12 19 19 21 19 14 13 20
13 15 15 12 10 8 7 8 6 5 4 4 8 3 4 4 5 7 7 4 5 7 5 4 5 3 3 4 5 6 5 3 1 6 7 4 4 7 16 16 12 16 18 18 19 15 12 13 27 26 23 20 22 22
14 11 11 10 10 7 6 6 4 3 4 7 3 3 1 10 8 4 4 5 6 3 7 8 13 3 3 2 3 1 2 0 3 5 6 2 2 5 21 19 17 16 15 13 15 15 14 20 27 25 24 21 23 22
11 10 10 10 8 6 6 6 5 7 8 5 2 0 6 3 4 3 3 3 4 5 6 8 11 13 4 2 4 3 3 3 3 14 2 3 4 16 19 21 20 18 17 16 14 17 17 21 25 25 24 23 20 17
9 8 9 8 7 7 5 3 6 9 10 1 1 2 1 3 1 5 6 4 3 5 11 11 3 7 6 3 5 3 3 2 7 3 4 5 11 21 20 19 19 20 18 18 17 16 18 23 24 25 24 22 21 19
9 8 8 7 6 6 2 1 6 10 8 2 2 1 3 4 5 5 4 3 10 7 7 22 13 6 5 4 3 4 4 4 4 6 7 4 16 25 27 23 21 20 21 19 23 22 25 26 26 24 22 21 19 18
7 7 8 7 6 7 3 0 7 16 5 3 3 4 6 13 12 14 12 12 14 11 11 14 8 7 3 4 3 2 3 5 7 5 4 14 21 31 28 24 19 22 21 24 29 31 30 29 27 25 22 20 18 16
7 8 9 7 7 9 5 2 10 11 4 2 5 4 10 7 10 10 8 6 6 11 7 11 4 3 2 4 5 7 4 5 4 3 11 17 31 33 28 23 20 21 19 23 29 31 31 30 29 26 22 17 13 8
8 6 6 7 8 9 6 7 7 4 4 4 7 14 19 15 11 11 6 5 6 12 0 4 2 3 4 3 2 3 3 3 3 3 8 16 34 31 26 24 24 23 23 25 28 31 29 26 26 23 19 15 9 4
8 7 7 5 11 11 11 5 4 5 7 13 7 16 17 16 13 7 2 1 12 8 7 2 2 1 4 5 2 4 13 13 11 14 14 22 26 23 24 26 24 24 26 30 31 30 26 24 21 19 15 14 10 7
7 7 6 9 16 8 6 3 4 4 13 12 18 19 10 12 16 17 10 11 4 6 12 7 2 3 4 4 4 9 12 6 13 19 26 23 20 22 23 22 23 27 29 30 31 28 26 24 22 18 16 13 10 11
7 5 5 12 15 4 2 3 4 6 5 4 10 13 14 18 21 16 23 20 11 6 4 1 5 9 10 14 18 14 16 6 11 13 16 18 20 21 22 23 26 27 27 24 24 24 23 24 20 17 15 10 11 15
7 6 7 12 12 5 3 4 5 6 8 6 10 12 7 6 5 10 21 23 7 8 7 18 19 22 18 12 15 16 12 15 22 28 20 18 21 21 22 23 25 26 25 26 27 25 27 26 18 17 16 16 13 13
4 9 8 16 4 5 6 8 7 7 5 8 11 6 4 2 5 4 11 9 8 11 19 22 21 16 15 18 15 15 17 13 15 18 22 18 22 22 24 25 31 31 29 29 29 27 23 21 16 18 18 19 20 16
7 9 5 6 4 5 7 6 5 4 2 4 4 1 2 3 5 7 5 7 11 15 17 15 12 8 15 15 13 13 21 17 18 17 29 23 27 25 27 31 33 34 34 32 27 20 20 19 18 18 18 21 20 18
5 3 3 5 8 4 4 4 5 4 4 2 2 3 3 5 3 0 2 3 13 16 14 15 17 13 14 20 22 18 15 20 22 16 18 19 26 26 27 30 35 34 31 26 24 22 21 24 24 22 24 26 20 18
2 3 3 4 5 4 4 4 5 3 3 4 3 3 2 2 1 2 3 1 6 6 5 4 9 19 20 21 22 23 23 21 24 27 23 21 27 28 27 28 33 35 30 29 29 28 26 28 30 27 24 27 23 21
1 3 5 3 4 4 2 3 2 3 2 2 4 2 2 1 2 2 1 6 6 11 13 8 6 5 5 10 14 16 16 14 22 25 21 22 24 26 26 29 32 33 34 31 31 31 29 29 31 30 26 27 25 21
2 4 8 7 5 2 3 5 7 3 2 2 3 3 0 2 1 3 7 8 8 14 9 14 8 11 9 11 11 13 14 15 18 19 23 23 21 16 21 24 32 32 31 32 33 31 31 29 30 31 30 27 26 25
6 5 3 3 4 7 4 3 2 2 2 2 4 3 3 3 2 8 8 12 11 6 3 13 14 5 4 4 7 6 6 9 13 16 17 18 13 11 24 28 26 24 20 30 29 29 29 26 25 29 28 19 20 21
5 7 7 9 8 3 2 2 1 2 2 3 2 2 4 5 7 10 10 11 9 7 10 8 7 7 2 5 4 2 4 7 13 19 15 16 14 15 23 25 23 20 22 21 22 19 24 21 21 24 19 13 18 17
8 12 8 4 0 3 5 4 1 2 2 2 2 5 11 13 16 16 16 12 9 4 4 7 9 10 8 4 7 8 8 10 10 12 17 17 16 17 19 16 17 19 18 17 21 20 19 19 20 19 18 17 16 16
8 6 4 5 2 9 12 8 8 7 5 4 10 11 5 3 7 16 16 11 7 4 4 5 5 4 5 7 12 15 18 13 11 13 15 12 6 2 5 11 13 18 23 21 19 24 26 18 18 21 20 19 19 18
3 3 3 2 6 11 5 18 15 10 5 2 6 9 6 5 2 3 16 19 11 11 9 7 6 7 9 10 10 11 14 15 12 4 5 8 18 14 7 10 11 12 19 20 19 19 18 19 20 19 20 20 20 20
10 14 13 6 4 2 4 8 5 5 8 4 3 7 9 5 3 2 7 17 19 17 15 12 11 10 8 7 6 4 3 2 5 3 9 5 8 17 15 12 11 12 17 18 20 22 18 17 18 19 20 18 15 16

GFSWCAN_850_spd_111.txt.gz
Wind_Speed
20 18 16 16 15 15 15 15 16 16 16 16 14 16 15 12 12 13 9 13 14 5 20 16 17 11 7 1 3 6 4 2 4 4 3 3 3 4 2 3 3 4 4 3 2 1 3 1 1 4 5 7 17 14
20 19 17 16 15 14 15 16 17 17 16 15 15 15 13 9 10 12 9 11 10 14 11 9 15 19 22 18 8 4 4 6 6 4 2 3 2 2 4 2 2 2 6 4 6 5 6 4 3 3 12 14 14 20
23 20 18 16 15 15 16 16 16 16 16 15 15 13 10 9 10 13 13 13 9 11 22 21 22 11 10 6 7 3 3 6 5 4 7 3 2 4 4 5 3 3 3 2 2 2 2 18 17 14 11 12 14 17
21 19 18 16 17 16 16 15 15 15 16 17 10 9 8 10 10 13 14 10 10 5 4 7 5 14 16 8 5 7 11 10 8 3 3 3 2 9 4 3 4 4 7 3 1 2 8 8 14 21 19 16 18 19
19 19 19 19 16 16 16 15 15 15 14 12 8 8 9 9 9 11 12 12 11 7 3 10 19 20 20 15 7 12 13 13 9 3 2 2 3 3 1 2 1 6 6 4 5 17 7 19 23 23 20 19 15 15
18 19 19 18 18 15 15 15 15 14 12 9 8 10 8 6 8 7 4 11 17 14 4 3 6 9 15 17 12 16 13 12 6 5 3 3 2 3 3 2 5 8 9 10 6 18 8 22 18 18 19 17 13 12
17 18 18 17 16 15 14 14 14 12 10 8 8 9 5 7 10 7 2 3 17 14 3 6 7 3 9 14 20 18 15 9 5 5 4 3 3 3 3 3 4 8 8 12 12 18 13 22 21 17 17 21 14 13
17 17 15 14 13 14 13 12 13 11 8 8 7 8 5 6 8 11 6 7 11 10 3 2 4 5 3 7 7 12 10 8 5 4 3 3 3 1 1 6 6 7 12 17 18 17 18 20 19 20 21 21 19 19
14 13 12 12 13 12 10 9 10 8 8 9 7 4 3 5 5 3 11 8 9 9 3 2 2 3 5 3 6 6 7 2 3 3 4 5 0 3 6 13 14 20 22 20 17 15 19 23 22 25 25 21 23 25
11 12 13 14 13 10 8 8 7 6 8 5 6 3 4 4 7 10 7 6 7 7 5 4 3 3 6 4 3 4 2 3 2 4 7 3 4 8 10 16 12 26 20 25 21 17 21 26 30 30 26 22 21 23
11 12 14 13 10 9 8 6 5 3 2 5 3 2 1 7 9 4 4 4 5 2 7 8 12 3 5 2 2 4 3 1 3 4 4 3 3 10 15 22 20 27 24 26 19 17 18 24 30 29 26 23 22 23
11 12 11 10 9 8 7 7 5 7 5 5 2 0 6 4 3 3 3 1 4 5 6 7 10 11 6 5 4 5 1 1 4 1 2 2 4 15 25 26 24 27 26 26 23 19 18 18 31 30 26 27 28 28
11 10 9 8 8 8 6 5 5 8 9 3 2 2 0 3 1 5 6 3 3 5 7 6 2 7 5 4 6 4 3 5 2 1 3 5 8 18 24 29 28 26 25 23 20 22 19 21 32 30 30 29 29 25
10 9 8 8 7 7 5 4 6 9 8 2 2 1 2 3 4 4 4 3 5 1 6 10 6 3 3 3 3 4 3 3 0 2 5 4 12 21 24 29 28 28 27 24 21 21 22 26 32 31 29 30 27 25
9 8 8 10 8 7 6 3 7 13 4 3 3 4 6 10 8 6 12 8 8 6 1 6 3 3 2 3 1 4 3 4 5 4 5 14 20 21 25 26 26 28 27 27 25 25 29 31 32 32 30 28 26 25
8 8 7 9 7 9 7 3 9 11 3 3 5 4 7 3 6 6 9 8 2 3 8 8 2 2 1 3 4 5 4 6 4 4 10 10 13 22 28 29 24 24 26 28 27 29 31 31 31 31 30 27 24 21
7 4 6 9 8 11 7 6 6 5 4 3 6 11 15 15 13 13 7 3 4 2 2 4 4 5 3 3 3 4 4 3 4 4 7 8 12 21 30 28 24 23 24 25 31 31 31 32 33 32 30 26 21 15
7 9 7 5 10 11 8 6 3 4 6 11 6 9 12 12 10 9 2 4 3 2 4 4 5 4 4 4 3 3 4 10 13 10 11 10 8 23 29 26 22 19 20 24 31 33 33 34 33 29 27 24 19 14
9 9 9 8 13 7 5 4 4 3 10 7 12 16 14 13 14 14 14 7 4 10 4 4 3 3 4 5 7 6 1 6 8 7 10 6 11 24 23 21 21 20 20 25 32 35 34 31 26 27 25 23 19 13
8 7 6 10 16 5 3 3 4 5 5 3 7 8 8 9 11 15 19 16 12 7 4 3 4 6 9 15 15 16 12 10 7 7 10 13 19 20 20 19 20 19 21 26 32 36 35 31 27 25 22 19 16 13
6 4 6 14 11 3 3 3 5 5 5 5 7 6 6 7 5 5 10 18 9 4 5 12 17 12 12 15 11 16 13 13 14 14 18 17 17 18 19 19 17 20 26 32 31 32 30 27 25 23 20 17 12 11
6 7 7 11 5 5 5 7 5 6 5 6 7 6 5 2 3 5 11 6 6 13 15 21 22 18 15 17 19 20 14 12 15 18 15 20 17 17 17 19 20 23 29 31 31 29 27 26 24 23 21 18 16 16
10 8 5 5 3 4 6 5 4 4 2 3 2 2 2 3 3 10 5 8 11 20 17 15 16 16 15 11 14 14 15 14 15 18 13 23 20 17 20 21 24 25 29 31 30 28 27 25 26 24 18 21 22 21
6 4 4 5 6 4 4 4 5 4 3 2 2 3 2 4 3 4 2 3 3 7 12 14 15 16 16 12 17 16 16 16 21 17 13 14 15 15 20 24 27 28 27 28 31 30 28 26 27 25 21 22 24 25
2 2 2 3 5 3 3 3 4 2 3 3 2 3 2 2 1 1 1 2 3 13 7 4 7 12 17 19 20 21 21 16 17 19 17 16 22 17 17 23 24 26 29 32 32 31 29 23 23 25 25 24 25 26
1 4 5 3 3 4 3 2 1 3 2 2 4 3 1 1 0 0 1 7 5 9 11 13 10 4 8 12 17 20 22 21 21 24 23 23 27 24 25 26 27 29 30 31 31 31 30 28 26 27 29 29 28 28
2 4 5 6 5 4 3 4 5 1 2 1 2 3 2 3 2 2 6 6 11 9 5 12 10 8 4 7 9 8 10 15 17 16 18 18 20 21 22 24 21 24 25 30 32 30 29 29 31 31 32 32 28 28
5 4 3 1 4 6 2 2 2 1 2 4 3 3 2 1 2 6 5 9 11 10 6 6 11 8 2 2 1 3 6 7 10 10 14 15 17 21 13 12 14 23 23 22 32 32 30 32 31 30 31 34 29 26
5 4 4 7 6 1 1 1 2 3 3 3 1 2 0 2 7 11 12 11 7 6 7 6 7 10 3 1 2 1 1 1 5 9 10 12 14 18 19 18 18 20 17 19 25 35 32 27 28 27 22 21 24 25
5 5 3 3 3 3 4 2 2 3 2 2 4 11 9 12 11 13 13 14 13 10 8 9 10 10 8 2 5 6 5 4 2 2 5 5 5 3 4 6 7 11 13 11 11 16 23 23 23 16 12 21 24 20
5 2 4 4 4 9 8 7 4 3 2 3 8 5 5 3 6 14 15 14 12 8 7 5 6 5 3 3 5 6 9 8 6 6 8 13 12 10 6 2 4 12 14 13 18 22 21 26 24 19 18 22 23 20
3 2 2 3 3 6 11 4 1 2 1 4 7 8 3 1 1 6 14 13 11 11 13 12 13 16 15 11 11 12 12 9 7 4 4 7 9 12 10 4 4 4 4 9 15 13 16 24 23 23 24 26 26 23
6 9 10 5 3 3 10 9 2 5 5 2 2 4 3 2 2 1 7 14 16 14 14 14 13 13 12 10 9 8 6 5 3 3 5 8 4 5 9 10 10 8 7 10 13 15 17 21 25 23 24 24 24 22

GFSWCAN_850_spd_114.txt.gz
Wind_Speed
20 20 21 19 18 18 17 16 15 15 16 16 14 14 13 11 9 11 8 12 14 5 18 14 8 8 10 1 3 2 4 1 3 4 3 3 3 4 1 4 3 4 4 2 2 1 3 1 2 5 3 3 10 9
22 22 21 19 18 16 16 16 16 16 17 16 15 14 13 9 9 10 9 12 13 17 10 10 14 16 16 13 10 4 3 7 7 5 1 3 2 2 2 2 0 1 5 4 6 5 5 7 7 6 6 9 8 10
24 24 23 21 18 15 17 16 15 15 16 16 16 16 11 8 10 11 11 12 9 9 21 22 20 11 14 15 12 6 4 6 7 5 8 3 2 4 4 5 3 2 5 3 2 3 2 1 3 6 7 7 11 16
21 21 21 18 17 15 16 16 15 14 15 15 15 8 7 8 10 11 13 17 14 5 4 8 5 10 7 9 9 18 8 6 13 8 4 3 2 7 4 2 2 3 7 5 1 3 3 2 8 8 6 8 10 18
19 19 19 18 18 18 16 17 14 14 14 13 11 8 8 9 11 12 14 18 17 6 3 11 21 10 13 13 10 10 15 16 12 4 3 3 5 4 1 2 2 7 6 4 5 15 6 13 15 14 12 9 13 16
19 18 18 18 18 17 15 15 13 13 13 11 10 8 9 9 6 5 4 12 18 16 5 4 6 6 7 19 17 13 18 14 7 5 3 4 4 3 3 3 5 12 10 11 2 21 11 18 18 16 17 12 10 11
17 17 17 16 15 14 13 14 12 13 12 8 8 9 9 5 8 9 3 4 20 16 3 6 7 2 4 13 13 12 15 10 5 6 4 5 4 5 3 4 5 9 10 11 5 20 17 25 23 20 14 11 7 7
15 15 15 12 11 11 12 13 12 12 10 8 8 8 7 5 7 10 3 5 20 13 4 2 4 6 1 2 8 6 5 5 4 5 5 4 6 2 2 9 7 6 8 10 15 19 20 24 22 23 20 14 11 10
14 13 11 9 8 11 12 11 10 9 7 8 7 7 5 4 4 3 9 9 11 4 3 2 2 3 4 3 9 15 14 3 1 2 3 6 0 4 7 13 14 12 13 14 19 11 18 24 26 26 22 19 16 15
12 9 9 9 10 9 10 9 8 6 6 7 4 3 3 3 5 11 8 9 10 7 6 4 3 3 5 4 3 6 6 4 3 3 5 2 4 11 10 14 15 18 19 21 21 17 21 26 28 30 28 23 16 16
6 8 9 9 11 11 10 8 6 5 3 4 4 3 2 5 8 4 4 5 6 3 7 7 13 3 3 2 2 5 1 0 3 3 4 2 4 10 20 15 16 12 21 24 19 16 17 18 28 31 31 26 20 20
9 10 11 11 10 10 9 7 6 7 5 5 3 3 7 6 4 3 3 1 3 5 5 6 7 13 5 2 8 7 2 2 2 1 2 3 5 15 30 27 23 19 25 25 23 18 18 17 21 30 29 27 25 23
10 10 11 10 10 9 8 7 5 9 8 5 2 3 3 3 1 5 5 3 2 4 5 6 1 6 5 4 5 3 5 3 0 1 4 5 6 16 19 28 27 26 30 28 28 20 18 18 25 31 30 29 27 29
11 10 9 8 8 8 7 5 6 7 6 3 3 1 3 3 4 4 3 3 4 4 3 6 5 2 3 3 4 6 4 4 3 3 5 3 10 12 20 23 27 29 29 28 28 24 21 20 17 30 30 26 27 29
9 9 9 9 9 6 7 5 6 10 4 3 2 4 5 7 5 4 6 7 5 6 3 5 4 2 0 3 2 4 5 5 5 5 4 13 12 16 19 24 24 28 29 28 27 24 24 23 20 27 30 29 30 28
9 7 5 9 10 7 8 4 6 10 2 3 4 3 5 2 5 4 5 7 1 2 6 2 3 1 3 2 3 5 5 5 4 4 11 10 9 11 15 19 27 29 28 28 27 24 21 23 25 29 29 30 29 27
6 5 9 11 8 10 9 5 5 4 3 3 5 10 13 13 12 15 6 4 5 3 2 3 2 1 0 1 3 3 4 3 4 4 6 7 9 6 9 14 19 22 25 27 28 26 25 26 28 31 32 31 28 25
6 6 6 9 9 12 8 6 3 4 5 9 5 7 11 12 9 10 3 5 3 5 7 4 4 1 3 3 3 5 10 8 8 9 9 9 9 11 8 18 22 20 20 21 25 25 28 30 31 32 32 31 28 24
10 11 9 6 14 7 5 4 4 3 9 6 10 15 16 14 16 14 11 7 8 6 3 5 4 4 4 7 9 10 11 5 7 10 13 12 11 8 12 22 20 18 17 19 23 27 29 29 29 31 32 31 29 26
9 9 10 9 13 3 2 3 4 5 4 4 7 9 7 6 2 1 4 12 12 6 4 3 4 7 9 12 15 15 8 5 10 11 9 8 10 11 17 20 20 18 17 19 22 28 31 32 31 31 31 29 27 24
7 6 8 13 11 4 4 4 5 5 5 5 7 7 5 6 5 9 9 13 9 5 5 10 15 13 12 10 10 10 10 14 13 9 9 9 13 15 14 15 16 17 18 20 22 27 30 30 28 29 29 28 24 20
4 6 8 15 5 4 5 5 5 4 4 6 6 5 5 3 4 7 11 7 6 8 10 15 17 15 16 15 12 12 14 12 12 10 11 11 15 16 15 13 14 16 18 19 20 22 24 24 25 29 30 25 22 18
7 8 5 6 4 5 4 5 4 4 2 3 2 2 3 3 3 12 5 6 8 11 16 19 19 18 16 13 8 8 10 12 14 10 11 11 11 12 14 15 15 14 16 18 21 24 22 24 26 27 27 25 23 21
6 4 4 5 6 3 3 3 5 4 3 2 2 3 2 3 8 2 2 1 1 5 7 11 15 18 16 15 15 12 14 12 12 11 10 10 11 18 19 16 15 15 15 16 19 23 26 27 24 27 27 29 24 25
2 3 3 3 5 3 3 3 3 1 3 3 2 3 2 3 2 1 1 2 2 8 7 7 7 11 16 19 18 16 17 16 14 12 14 11 9 12 17 19 20 20 20 20 23 27 29 29 28 27 26 27 24 26
1 4 4 3 3 4 2 2 2 3 2 2 3 3 2 1 1 0 1 5 5 8 8 10 11 9 6 7 9 11 11 12 14 16 14 15 16 15 16 18 14 16 20 23 23 25 30 29 28 26 27 29 27 23
2 3 4 5 4 4 3 4 4 1 2 1 2 3 1 1 3 2 5 5 9 11 8 9 11 11 7 5 6 5 5 4 6 10 13 13 13 16 19 22 21 15 13 14 19 23 25 28 31 30 28 29 28 27
4 3 2 1 3 4 2 2 1 1 2 3 2 3 1 1 1 7 7 10 10 6 4 6 11 11 3 1 5 3 3 6 9 10 11 13 13 12 14 15 13 16 16 13 18 19 17 22 31 35 33 29 27 26
4 3 3 4 2 2 2 1 1 1 2 2 1 1 1 2 6 10 11 11 8 4 5 6 8 11 9 4 3 3 3 3 2 4 8 8 8 8 9 9 9 9 13 16 17 17 18 21 26 33 34 32 30 22
3 2 2 1 3 3 3 1 1 2 1 1 0 3 5 7 9 12 11 11 10 8 9 10 11 9 8 6 2 3 2 2 4 5 5 4 4 3 4 4 6 6 6 7 8 10 14 16 21 23 24 19 12 12
4 2 3 3 5 5 6 4 3 2 3 2 5 4 3 5 7 15 14 13 11 10 9 10 9 11 12 14 13 10 12 11 8 8 6 7 5 5 7 10 8 8 7 7 7 7 10 16 16 13 26 25 25 16
3 3 0 1 3 5 3 0 2 3 3 4 2 4 2 3 3 8 15 13 12 12 13 14 17 18 17 15 13 12 11 9 8 6 2 3 5 7 8 5 5 4 2 2 1 2 3 4 10 18 27 26 22 18
3 4 1 5 3 4 2 2 0 2 3 4 6 8 5 1 2 3 7 12 13 13 14 14 14 11 9 8 8 9 9 8 7 7 10 12 10 4 3 5 6 5 5 5 3 1 2 8 13 14 19 21 17 16

GFSWCAN_850_spd_117.txt.gz
Wind_Speed
21 21 20 18 18 18 16 14 14 14 14 15 15 12 11 10 7 9 9 7 13 6 20 13 7 5 3 2 2 2 4 1 3 3 3 3 3 4 3 2 2 4 3 3 2 3 5 3 2 4 2 4 2 10
22 22 22 23 21 20 17 12 14 14 13 13 14 13 12 9 6 9 10 9 12 16 11 9 13 18 17 13 2 0 2 4 7 4 2 3 3 3 2 2 2 3 2 1 5 2 2 4 9 6 8 2 1 10
20 20 20 21 21 19 15 13 13 15 13 13 14 13 10 8 7 10 10 8 7 9 22 22 20 15 19 21 17 5 4 4 6 6 7 3 2 4 4 4 3 4 3 2 2 1 3 4 9 6 4 3 7 16
19 18 18 18 17 15 13 13 13 13 12 12 12 11 7 7 7 10 11 11 14 5 5 6 1 6 10 14 18 18 6 2 3 6 4 2 2 5 2 2 2 1 9 4 2 4 2 3 2 2 5 9 14 15
18 18 18 17 16 13 14 13 11 12 11 12 10 8 7 7 8 13 15 15 16 8 4 10 21 8 12 15 15 17 19 14 5 2 2 2 4 4 2 2 3 8 5 4 1 10 3 7 6 8 7 10 17 15
18 18 16 16 15 13 13 10 10 11 11 11 7 6 8 9 8 6 4 7 19 18 5 4 6 3 4 15 16 17 10 11 7 3 3 4 4 3 4 3 3 11 10 7 2 10 5 12 11 10 7 7 13 16
18 16 14 14 14 11 11 9 11 10 12 9 6 7 8 9 7 8 3 0 10 16 4 6 5 2 2 9 14 14 14 6 3 3 2 5 3 4 2 3 5 11 12 8 6 17 8 18 16 14 10 8 9 11
16 14 13 12 9 8 7 9 10 10 9 7 7 8 8 6 7 9 7 10 8 15 5 3 4 3 1 3 5 11 11 9 3 1 3 3 5 1 4 9 9 9 11 11 14 21 14 21 19 16 13 11 8 10
14 12 10 8 8 7 9 9 10 10 7 4 6 6 5 4 4 2 2 3 19 4 3 2 2 1 5 1 4 5 7 3 1 1 1 3 2 4 7 10 15 15 13 13 21 19 11 24 25 20 16 12 10 12
12 10 8 8 8 8 8 9 8 6 4 5 5 3 3 3 5 12 5 8 6 5 5 4 3 2 2 1 2 4 5 1 5 2 2 3 3 16 14 11 16 15 15 17 22 13 18 20 26 25 21 16 12 13
7 6 7 7 8 10 9 10 7 5 4 4 4 3 5 5 7 4 4 5 5 4 6 7 10 4 2 1 2 1 3 3 4 3 5 3 3 9 24 18 17 17 16 19 20 17 17 19 25 27 24 21 18 16
6 7 8 8 9 11 11 9 7 6 6 5 4 3 6 5 3 3 4 2 5 4 5 4 4 8 3 2 3 2 3 3 3 3 4 4 4 13 16 27 24 20 17 20 25 20 19 19 17 22 27 25 21 21
11 9 9 10 8 10 10 9 8 7 7 5 3 4 3 3 2 5 6 3 3 3 4 4 3 5 4 3 5 1 2 3 1 3 3 4 7 13 17 17 29 20 19 18 23 23 22 21 19 22 29 29 26 25
11 9 8 10 10 10 9 8 6 6 4 4 4 1 4 4 4 4 2 0 1 2 2 5 4 3 3 2 1 5 3 2 2 3 5 3 8 7 8 15 22 30 25 24 25 24 22 23 19 19 29 31 30 28
8 9 8 9 9 9 8 7 6 8 5 4 4 3 6 5 4 4 4 6 3 5 1 4 3 3 2 3 2 4 6 5 6 4 4 12 11 12 16 17 20 23 30 29 27 25 22 22 19 19 28 32 30 29
8 7 8 10 13 8 8 5 5 8 3 3 3 3 4 3 3 3 5 7 7 6 8 3 2 2 3 2 4 6 4 6 3 3 5 6 9 11 11 13 14 18 23 28 29 26 25 21 22 18 24 29 29 31
9 6 10 11 12 8 9 6 5 5 3 3 5 9 8 5 6 6 8 9 6 6 3 2 4 1 1 2 3 4 3 3 8 7 6 6 9 8 6 10 16 18 20 23 25 24 23 21 23 24 24 27 29 28
9 7 8 11 10 11 9 6 4 3 5 7 5 5 9 8 7 7 3 6 7 5 5 2 3 3 3 3 3 3 6 11 11 10 7 8 10 10 7 6 12 16 20 23 23 25 24 23 23 24 25 27 28 30
11 11 5 9 13 7 5 5 3 3 8 5 8 11 9 9 12 13 11 8 8 4 5 4 3 4 4 7 10 16 13 15 8 6 7 8 9 11 9 7 15 18 20 21 22 25 25 24 24 25 27 29 31 30
9 9 8 6 13 3 2 2 4 4 4 3 5 5 5 5 3 4 11 11 11 3 1 2 4 10 10 15 15 19 17 8 6 10 10 9 9 8 10 14 20 21 20 19 20 22 23 24 25 27 28 31 32 31
8 9 9 7 8 2 2 2 4 4 4 4 5 4 4 6 6 8 6 12 9 5 5 11 15 17 14 14 14 14 9 10 13 9 8 9 7 5 9 16 16 18 18 17 18 20 21 23 25 25 28 30 30 25
6 9 8 11 3 3 4 5 4 4 4 5 4 5 4 3 7 10 10 8 6 7 9 12 12 14 16 16 14 12 11 12 11 9 7 7 6 9 13 15 16 17 17 16 16 17 20 23 25 26 27 28 27 26
8 8 5 5 4 5 3 4 3 3 3 2 2 2 3 3 2 11 5 5 4 5 8 11 14 15 16 13 12 8 6 8 9 8 8 9 8 9 12 15 16 14 14 15 15 17 20 22 24 26 30 33 31 27
7 5 3 5 5 3 3 3 4 3 3 3 2 2 1 2 8 3 2 2 2 4 5 7 10 11 11 12 12 12 11 8 7 6 5 8 8 9 11 12 13 13 13 14 16 18 19 19 23 26 28 29 30 30
3 4 3 3 6 3 3 3 3 2 3 3 2 2 2 4 2 3 1 2 5 6 9 10 10 9 10 12 13 12 10 8 8 8 8 10 12 11 13 15 15 16 17 16 16 17 17 20 23 24 25 30 34 34
2 3 4 3 4 3 2 2 3 3 2 2 2 2 1 1 1 2 2 4 8 9 11 12 14 14 10 7 8 4 3 6 7 9 10 10 11 11 9 9 13 14 16 17 18 18 19 18 23 30 33 31 31 33
1 2 4 5 3 3 4 5 3 1 1 1 2 2 1 1 3 2 5 5 11 12 9 10 12 14 11 6 4 2 2 2 3 5 5 7 11 12 13 17 16 13 11 11 10 14 20 26 31 30 29 31 30 32
3 2 2 0 3 3 2 1 1 1 1 2 2 2 2 3 3 6 7 13 12 7 4 7 10 11 11 4 2 1 2 2 2 3 3 4 5 7 7 7 8 12 16 12 11 11 13 14 13 21 25 29 28 27
3 3 2 3 2 2 1 1 0 1 2 2 2 1 2 3 6 10 11 10 9 5 6 5 6 7 9 7 4 5 6 8 8 7 5 6 6 4 5 1 4 5 5 5 7 10 11 13 14 15 15 27 31 32
2 3 2 1 2 3 2 3 2 3 2 2 2 3 5 4 7 12 9 9 9 7 7 7 6 5 7 7 7 7 6 9 9 10 10 10 9 10 12 10 9 6 4 1 1 4 9 12 15 17 20 28 33 29
3 2 2 2 1 2 5 3 3 1 1 4 6 6 2 4 6 15 13 12 12 13 13 15 16 17 18 18 16 14 16 15 12 11 10 7 6 5 7 8 8 6 5 4 3 2 1 4 7 10 14 17 23 26
3 2 1 2 3 10 9 1 2 1 4 4 5 7 2 2 3 7 13 12 10 12 13 12 13 14 14 13 12 13 11 9 8 9 9 8 6 7 7 6 8 6 5 5 5 4 2 2 5 9 11 15 23 21
1 4 7 4 4 2 5 3 3 3 2 4 6 4 0 3 4 3 6 9 10 10 12 12 12 11 11 14 15 15 15 14 9 9 13 15 15 11 7 5 6 6 7 7 7 6 5 3 2 2 3 12 18 19

GFSWCAN_850_spd_120.txt.gz
Wind_Speed
18 19 22 22 18 16 15 16 13 12 12 12 12 11 10 8 6 5 7 7 11 7 15 11 8 10 6 5 5 6 8 5 8 6 4 4 5 5 5 4 4 7 5 4 5 3 8 5 6 6 5 3 1 1
17 19 20 20 19 19 18 19 14 11 12 13 12 12 10 8 7 6 8 9 9 15 13 12 13 20 19 11 7 4 4 11 8 5 3 3 4 4 6 4 5 3 3 2 3 2 2 1 10 3 6 3 2 7
15 16 17 16 17 18 17 17 14 12 12 12 12 12 9 6 6 8 10 10 7 10 21 18 15 14 19 21 14 5 4 1 2 2 4 2 3 4 5 4 3 5 4 4 3 4 3 3 5 4 2 4 11 17
15 16 16 15 15 15 15 14 13 12 10 12 11 9 7 5 5 9 13 10 9 5 6 3 4 7 8 14 20 20 7 1 2 5 7 4 5 4 0 3 6 5 8 3 5 3 1 2 3 6 9 15 20 19
15 15 16 15 14 14 14 13 12 11 10 12 11 6 5 5 6 7 13 15 11 7 6 9 16 9 13 14 15 18 19 11 3 5 5 5 3 4 2 2 5 9 4 5 5 3 1 8 8 8 11 16 17 19
15 15 16 15 13 12 12 12 10 10 10 11 10 5 5 6 7 5 4 5 14 17 4 4 6 3 3 14 16 17 17 12 12 3 3 2 3 4 5 5 5 9 6 3 2 5 5 10 10 8 10 14 15 19
15 15 14 13 11 11 10 10 9 10 10 10 7 5 5 7 6 6 2 1 5 14 4 5 4 3 3 10 13 12 14 10 10 4 5 4 5 5 5 6 4 9 9 8 5 12 10 12 11 9 10 13 16 18
15 14 14 13 10 9 8 9 9 10 10 8 5 5 6 6 7 8 9 9 4 11 4 4 3 5 6 10 9 11 11 11 10 13 5 8 4 4 4 7 12 8 11 10 10 15 11 13 13 11 12 12 14 16
13 12 11 11 8 9 9 10 9 9 9 5 4 4 5 4 3 2 4 6 13 6 5 3 3 3 2 7 6 10 12 6 7 10 8 4 5 5 6 7 9 14 13 12 13 16 11 17 17 14 13 12 12 16
12 11 10 9 9 10 10 9 9 9 5 5 4 2 3 3 3 13 2 4 7 6 6 5 5 3 2 9 12 9 5 7 6 9 7 6 10 14 14 12 10 12 17 12 19 17 15 17 19 17 14 11 11 14
8 9 9 10 10 10 11 8 9 7 7 6 5 3 3 7 6 3 5 6 7 5 7 8 11 6 1 4 7 6 5 3 3 6 6 7 8 15 16 18 19 14 16 16 20 20 20 20 21 20 17 13 12 13
8 7 8 9 10 10 11 10 10 9 7 6 5 6 7 6 6 5 5 5 5 4 6 7 6 9 4 3 4 6 6 6 5 6 6 11 8 14 17 15 17 20 18 18 19 17 19 18 18 21 20 18 16 15
9 9 9 10 11 10 12 12 11 9 8 4 4 4 4 4 4 5 7 4 4 5 6 7 4 6 5 4 3 4 5 6 5 4 5 5 9 14 16 17 15 22 20 20 19 18 20 21 19 20 21 21 21 19
10 11 10 10 10 11 11 11 9 7 6 3 4 4 5 4 5 4 4 1 2 2 2 6 5 6 4 5 2 1 2 3 4 6 8 6 12 15 10 9 10 18 21 20 20 22 22 22 21 19 21 23 24 24
9 10 10 11 11 11 12 10 9 10 5 4 4 3 6 7 2 2 3 5 4 3 3 5 4 3 3 3 4 4 2 5 5 5 6 12 12 7 5 8 10 14 20 18 20 22 22 22 22 20 21 23 22 24
7 9 8 12 13 13 10 10 8 8 3 4 5 5 6 5 7 6 7 8 7 7 7 3 2 4 5 2 6 8 6 5 3 3 2 1 3 4 8 8 10 12 18 22 21 21 22 24 25 23 22 22 24 26
8 6 10 12 14 9 11 8 6 5 4 3 6 10 9 5 5 4 5 6 5 4 4 2 3 5 3 4 6 4 6 6 6 4 2 3 5 5 6 7 10 12 14 19 22 22 23 22 21 21 22 22 23 24
8 7 11 15 14 11 11 7 3 3 5 9 6 6 8 7 7 7 5 4 5 4 3 3 3 5 4 4 4 4 9 2 3 7 10 8 7 9 9 8 6 11 14 17 20 21 23 24 24 22 21 23 23 23
11 7 10 13 14 8 5 5 4 3 7 6 8 9 9 10 10 10 7 7 5 4 2 2 5 5 6 7 10 14 10 9 12 15 10 9 8 8 8 7 4 8 13 17 20 21 21 23 20 21 22 24 24 24
9 10 6 10 13 4 4 4 6 4 4 2 5 7 8 7 4 6 10 10 6 3 3 3 4 10 9 9 5 8 8 10 9 6 6 5 6 6 6 4 4 9 13 15 16 18 18 18 17 19 21 23 24 25
8 9 7 6 11 2 2 2 4 4 4 5 3 6 6 7 7 5 5 8 6 4 4 11 14 12 13 12 10 10 11 9 10 10 8 7 6 5 5 4 8 13 15 16 16 16 18 19 20 19 21 23 23 23
5 10 10 8 2 3 3 4 4 5 4 4 4 5 5 6 5 3 5 4 4 17 17 13 13 9 9 10 10 10 10 10 11 10 9 7 5 4 5 7 10 13 13 13 13 13 15 16 17 19 20 23 24 23
10 7 5 4 3 3 4 3 3 4 4 3 3 3 3 4 10 11 5 8 7 5 6 7 9 12 13 12 10 8 6 5 7 8 8 8 8 6 6 8 10 11 11 11 10 9 13 16 18 18 20 22 22 21
6 6 4 6 6 3 3 4 5 4 3 4 3 3 4 4 9 6 4 4 3 3 1 2 5 8 8 8 6 4 4 4 5 6 6 6 7 6 8 8 9 9 8 7 11 12 13 14 17 19 19 21 23 25
2 3 3 4 5 4 4 4 3 2 3 3 3 3 3 4 3 3 1 3 6 3 4 4 6 6 6 6 6 5 7 6 6 6 6 7 5 5 7 7 8 9 9 11 12 14 14 15 17 18 20 23 27 28
5 6 4 4 6 4 1 2 4 5 3 3 2 0 2 2 2 3 3 5 6 7 7 7 10 11 7 5 5 4 3 3 4 6 5 6 6 6 8 9 11 13 14 13 14 14 16 16 17 21 23 25 26 27
2 3 5 4 0 1 3 6 8 5 2 1 2 1 2 2 3 2 5 5 8 9 8 7 9 9 9 6 4 3 3 2 1 3 4 4 6 7 7 8 8 8 12 14 13 14 18 20 20 21 24 28 28 28
3 3 1 6 5 8 3 3 2 0 2 2 2 2 2 3 3 4 4 7 9 7 5 5 7 8 8 6 3 3 3 3 2 1 0 1 2 4 7 7 8 12 15 14 11 9 9 12 15 20 25 28 27 29
2 2 2 3 1 1 1 3 4 4 4 4 3 2 3 3 4 7 8 8 9 7 6 5 5 5 4 5 5 6 6 5 6 7 7 7 5 5 4 2 1 3 4 5 9 9 11 13 16 16 19 21 24 25
3 5 3 1 2 4 4 4 4 3 3 3 3 7 6 5 7 7 6 7 7 7 6 6 6 5 6 7 10 12 11 11 11 9 8 8 8 7 7 7 6 4 2 1 3 6 9 11 12 15 16 16 19 26
1 2 2 1 3 1 6 4 1 1 1 4 8 5 4 3 5 8 8 8 9 9 10 11 12 12 12 11 10 10 10 12 12 10 6 4 2 3 4 5 5 4 3 2 1 1 3 4 5 7 8 11 14 21
3 2 2 1 3 4 4 2 1 1 3 5 5 2 2 3 4 6 7 7 7 8 9 9 10 11 10 10 10 10 10 9 10 12 14 10 4 1 0 2 4 4 5 5 4 3 2 1 2 3 5 6 8 10
3 5 5 5 3 2 1 2 2 3 6 6 4 2 1 5 6 4 5 5 6 7 7 8 9 11 13 12 12 13 12 11 12 12 12 13 15 11 8 6 5 5 4 4 4 4 4 3 3 1 3 5 6 6

GFSWCAN_850_spd_123.txt.gz
Wind_Speed
16 17 18 20 21 21 19 16 13 12 11 10 11 11 12 10 7 5 4 9 7 8 18 12 12 16 14 12 8 6 9 12 10 11 11 4 6 6 6 10 8 7 9 9 6 4 8 6 2 7 5 9 15 18
16 16 17 18 19 19 19 17 17 15 13 11 12 11 11 9 8 8 8 8 9 13 11 12 16 21 20 16 10 9 9 9 11 8 7 3 6 5 5 8 4 7 4 3 5 3 3 4 8 4 7 9 5 9
15 15 15 15 16 16 16 16 16 14 13 12 12 12 9 8 8 10 11 10 8 11 22 23 21 20 19 24 16 8 10 9 7 6 4 5 6 6 8 7 10 10 6 5 4 7 4 2 2 3 2 4 4 8
14 15 15 15 15 15 15 15 14 13 13 12 10 11 8 7 7 8 12 12 8 7 7 4 4 13 13 17 22 22 16 11 9 8 9 4 6 8 3 4 5 5 6 5 8 7 4 5 5 8 7 9 10 13
14 15 15 15 15 14 14 14 14 13 12 10 10 10 6 6 7 8 12 14 14 5 6 12 17 15 16 15 18 19 18 15 11 10 6 9 7 5 6 4 5 14 5 4 2 3 10 9 11 11 10 10 12 13
15 15 15 15 15 13 12 13 13 11 12 10 10 8 5 6 7 6 4 6 13 17 4 5 4 8 9 16 19 19 17 12 12 10 8 7 5 4 5 7 10 7 3 2 2 2 10 11 10 14 15 13 11 13
16 16 16 15 14 12 11 12 11 10 9 9 9 7 6 7 8 6 3 3 5 12 4 6 5 10 10 13 19 18 17 18 14 10 5 14 9 8 9 4 4 7 7 7 4 8 9 12 10 10 14 13 14 15
15 14 14 14 13 12 10 10 8 9 9 8 6 5 7 8 8 9 11 10 3 8 6 4 4 6 12 12 16 18 15 17 12 12 14 15 7 8 6 1 2 10 7 10 9 10 12 11 12 10 13 15 18 20
13 13 13 12 11 9 9 9 9 9 8 7 5 4 6 6 4 4 7 7 8 8 6 5 5 1 7 15 11 15 15 8 14 10 18 7 10 7 8 9 6 6 10 12 12 11 11 15 14 12 12 14 19 20
12 13 13 12 10 9 10 9 9 9 8 6 5 3 4 4 7 7 4 6 7 7 8 7 12 3 5 12 10 12 12 5 2 12 16 9 13 14 13 7 6 6 8 17 17 14 14 17 17 14 13 13 13 17
11 9 10 10 10 11 11 10 9 9 7 6 6 5 3 4 6 7 5 8 11 6 9 13 18 2 5 3 5 7 3 1 5 7 11 8 13 17 21 15 15 14 13 17 15 15 17 17 19 17 14 12 12 15
10 9 8 8 10 10 11 11 9 10 6 6 5 6 5 6 7 5 5 5 6 5 8 10 14 15 6 4 3 1 3 3 5 6 7 15 9 14 20 23 19 19 17 18 18 17 18 18 19 19 17 15 14 14
10 10 9 9 9 11 10 13 12 13 9 4 4 3 5 7 5 6 7 5 4 6 5 7 6 6 6 4 4 5 7 6 1 5 7 6 9 14 22 24 23 20 18 21 19 19 19 19 17 19 21 18 17 16
10 10 11 9 10 10 12 12 12 11 6 4 5 4 5 4 5 6 3 3 3 3 1 6 8 8 8 7 5 3 5 6 6 7 8 5 13 11 13 15 16 19 20 23 23 20 19 21 20 19 22 21 21 20
9 10 11 11 11 11 11 11 11 11 4 4 4 3 6 9 8 6 5 4 4 1 2 5 4 3 5 3 4 4 4 4 5 7 2 2 10 10 9 8 9 11 16 21 23 23 22 23 23 21 22 23 23 23
6 8 10 11 12 13 12 11 11 10 3 4 5 6 8 7 9 9 8 5 3 3 2 2 3 4 6 3 5 7 5 4 2 3 8 6 6 5 5 6 8 9 13 19 25 23 23 26 25 23 22 24 25 26
7 4 7 11 13 15 12 10 8 5 5 5 8 12 14 7 7 4 2 3 4 6 4 2 4 5 0 4 8 4 10 8 2 4 5 5 3 2 0 2 5 9 13 19 23 22 23 26 25 24 24 24 25 26
5 6 8 13 15 13 14 10 4 5 8 12 10 12 11 10 9 7 3 5 4 4 10 6 4 3 3 3 2 4 10 3 4 5 5 5 5 4 4 5 5 8 12 16 23 23 22 24 26 26 25 24 25 24
7 7 10 14 15 8 6 6 5 4 7 8 10 13 11 9 9 9 7 6 5 7 2 2 4 5 7 7 6 14 4 3 7 9 10 5 6 4 5 5 5 6 11 15 19 24 25 25 25 25 25 25 26 25
7 5 13 14 14 4 4 4 6 6 5 5 9 11 12 10 7 10 10 11 8 4 4 4 5 5 4 7 5 15 6 7 8 8 13 15 9 4 3 3 4 6 9 13 17 19 21 23 24 25 25 25 25 26
8 7 8 10 12 5 4 3 6 6 6 5 5 6 6 8 14 9 7 6 9 9 10 12 8 8 8 7 7 8 7 8 11 12 12 10 4 1 4 5 5 7 10 14 18 20 21 23 23 23 23 24 25 24
7 14 8 6 5 5 5 6 5 5 4 6 8 6 6 7 7 5 2 6 9 12 12 10 10 3 2 7 6 9 9 9 8 9 10 9 8 8 6 6 8 9 13 14 17 19 20 19 20 20 21 22 24 23
9 10 7 5 4 4 5 4 5 3 3 3 4 3 3 4 6 7 4 7 7 7 7 9 5 7 10 10 10 10 9 6 5 6 8 9 10 10 9 8 9 11 14 13 13 14 15 16 17 19 20 21 23 24
6 4 4 5 8 3 3 4 5 5 5 7 4 3 4 5 9 4 3 5 3 2 3 3 4 7 10 11 14 11 11 6 7 7 6 7 8 7 8 7 9 9 9 13 12 12 11 12 13 16 17 20 24 25
3 4 3 4 4 4 4 4 5 5 4 5 3 2 4 6 4 4 2 3 4 3 1 1 3 3 6 9 11 6 3 6 11 11 4 4 2 8 6 7 8 10 10 8 9 8 9 10 16 18 19 21 23 25
1 4 4 4 4 5 3 2 3 4 4 3 3 1 3 3 3 2 3 5 5 4 4 2 4 5 4 2 3 4 4 4 5 8 5 3 4 6 6 8 11 11 10 9 9 11 18 21 16 15 18 20 22 24
3 5 7 6 4 3 4 5 9 5 3 1 2 2 0 1 3 3 4 5 6 6 5 3 4 7 5 2 2 3 3 3 2 2 3 3 6 6 5 3 5 3 9 14 16 18 16 18 10 13 11 13 19 23
3 3 1 4 3 5 4 3 2 1 1 2 1 1 2 3 3 4 4 5 5 5 5 3 8 5 4 2 3 3 2 1 2 2 1 2 4 3 3 4 8 9 6 11 13 15 14 14 15 14 17 17 18 18
4 5 8 8 10 7 3 3 3 3 6 5 2 3 4 4 5 5 5 4 5 3 2 2 3 3 2 4 4 5 8 10 9 10 9 7 4 4 4 3 2 2 0 3 10 11 8 8 10 13 15 18 18 17
1 4 3 1 2 4 6 7 4 6 7 8 8 9 8 7 8 7 7 7 6 6 4 3 4 4 6 6 7 9 11 10 9 9 8 7 5 5 5 5 5 4 3 3 2 5 7 9 10 12 14 11 13 16
3 5 2 4 2 1 6 5 4 5 6 8 7 6 7 6 9 9 9 8 8 11 10 10 10 9 10 8 7 8 9 10 11 10 7 5 5 4 4 5 5 5 4 3 3 3 3 4 6 6 8 9 10 14
4 2 2 2 2 1 3 3 4 4 6 5 2 3 3 2 7 6 5 2 7 9 9 8 8 8 8 7 7 7 8 8 9 11 11 8 7 4 4 4 4 5 5 5 4 4 4 4 4 5 6 6 8 8
5 3 3 3 3 2 1 2 3 3 4 1 4 5 7 8 7 5 5 5 7 7 8 10 10 10 10 10 9 8 8 9 12 15 14 12 10 7 6 4 5 5 4 4 5 4 3 4 4 5 5 6 6 7

GFSWCAN_850_spd_129.txt.gz
Wind_Speed
16 15 14 13 14 15 17 18 18 17 15 16 14 12 11 11 10 11 4 5 10 10 29 30 23 19 7 14 3 15 12 7 1 2 1 2 3 2 3 2 4 4 5 3 2 2 2 5 3 2 6 5 8 11
16 14 12 13 14 14 15 15 15 15 15 15 15 13 11 11 9 9 7 5 11 17 22 25 26 24 19 27 15 6 7 11 6 5 2 2 3 3 5 2 5 2 6 4 5 4 6 12 9 17 7 9 6 11
14 11 11 12 13 13 13 14 14 13 13 13 12 11 10 9 8 9 10 10 11 14 28 17 16 11 23 28 26 10 9 3 8 11 6 3 2 2 3 4 11 6 11 2 3 5 7 14 5 12 21 24 17 7
14 12 12 12 13 13 13 14 14 13 13 12 11 10 10 9 8 8 8 6 8 6 5 10 12 11 5 15 28 27 19 25 23 17 6 3 3 1 0 3 2 3 3 2 5 1 3 7 22 26 23 18 23 13
13 13 13 13 13 13 13 13 13 12 12 11 10 9 8 8 7 8 9 9 11 9 5 17 32 10 10 16 23 29 26 21 19 5 3 3 3 4 4 5 4 7 5 4 5 10 5 0 11 11 13 7 13 27
13 13 13 13 13 13 12 12 13 10 10 10 9 7 7 8 5 4 3 1 4 10 4 4 12 17 9 21 21 26 25 18 17 5 3 2 8 4 1 3 5 22 11 10 7 9 9 10 13 16 19 15 19 21
14 13 13 14 15 13 11 12 12 9 8 7 7 7 7 7 6 5 3 1 4 7 3 6 6 7 13 14 22 21 25 15 17 7 5 5 0 1 2 2 11 12 18 10 14 18 12 12 17 14 23 22 22 27
15 17 16 18 13 10 10 11 10 5 4 6 6 6 7 8 9 12 9 13 10 6 4 3 5 4 3 9 9 18 14 15 10 9 5 3 2 1 4 4 11 9 10 11 17 16 14 14 18 18 20 30 25 20
13 12 14 14 10 9 8 7 5 5 5 5 5 4 5 5 5 3 3 4 10 7 4 4 4 2 8 3 5 13 14 5 7 7 6 6 3 4 7 5 17 15 3 9 10 10 18 21 17 21 26 21 27 25
13 12 10 8 9 8 8 6 8 5 5 5 5 3 3 3 4 2 4 6 6 7 7 6 7 3 2 1 2 2 4 5 4 7 15 4 9 23 26 26 19 18 9 3 15 9 17 21 18 15 22 22 24 27
11 10 8 6 6 7 7 9 7 6 6 5 3 3 4 0 3 4 5 7 8 5 9 9 18 8 4 2 2 9 3 3 3 3 8 5 8 16 30 31 24 16 10 6 5 8 16 15 20 19 17 20 24 24
11 8 7 7 6 5 9 10 10 10 7 5 3 5 4 5 6 4 4 5 6 4 9 8 13 17 5 5 4 1 2 2 3 6 4 5 5 22 28 34 31 26 17 10 10 10 11 11 28 25 20 20 23 29
12 8 8 4 5 7 10 11 10 13 5 2 3 3 4 5 4 5 5 4 3 5 8 8 5 8 6 4 4 2 5 4 3 2 4 4 8 24 36 38 30 28 23 17 17 14 13 12 24 24 21 20 21 31
6 6 8 9 7 9 9 10 11 10 4 2 2 3 4 5 6 5 5 4 6 9 10 14 9 6 2 3 2 4 4 2 2 5 6 3 18 22 23 29 33 30 23 24 21 19 18 14 21 22 24 22 22 32
4 6 7 7 8 8 10 10 12 12 4 3 3 4 6 13 18 17 7 7 17 13 1 11 3 3 3 3 2 1 3 3 4 2 3 14 15 4 10 13 16 20 20 20 21 24 21 17 17 22 27 26 25 28
5 5 7 9 9 9 11 12 11 11 3 3 6 5 14 12 12 10 9 6 11 9 3 6 2 1 3 3 5 5 4 5 4 4 11 4 7 6 8 7 9 11 16 20 21 24 27 23 20 23 33 32 31 29
2 3 4 10 10 12 12 11 7 4 5 5 8 16 22 20 15 11 6 6 7 3 2 0 2 3 3 3 3 4 3 2 8 11 7 7 12 11 6 18 1 1 4 5 4 4 22 26 22 23 35 34 36 33
3 1 2 10 14 14 13 6 5 5 7 12 9 15 16 17 10 6 12 10 3 3 3 2 3 2 2 3 4 5 10 14 7 2 2 2 2 7 12 10 6 8 11 13 13 11 10 20 23 22 33 33 35 36
5 2 3 12 17 8 7 6 5 5 12 15 18 22 20 11 11 13 13 13 15 8 2 3 3 3 2 3 1 13 10 7 8 10 10 7 8 9 8 9 10 11 11 12 17 19 21 21 25 26 33 35 34 37
7 5 8 13 17 4 3 5 9 7 6 7 11 12 15 11 11 9 9 13 16 6 4 3 3 4 1 0 4 5 10 9 6 10 10 6 5 9 13 15 14 14 18 15 14 19 18 20 26 25 33 37 34 38
3 5 9 14 15 4 4 5 6 7 8 7 9 7 6 10 13 14 9 10 8 5 4 11 12 12 8 6 6 9 11 10 9 12 19 15 9 13 20 22 20 17 13 16 14 16 19 19 27 28 29 36 36 34
4 8 10 10 4 5 7 9 7 7 5 9 15 9 4 5 9 9 6 8 5 13 16 16 15 14 13 11 9 6 9 10 10 13 13 16 20 20 7 10 13 16 13 18 15 17 18 15 11 28 31 26 36 36
8 7 3 4 4 4 9 6 6 4 3 3 5 2 3 4 4 6 4 8 11 14 14 14 12 11 10 7 9 12 13 11 13 13 10 11 12 15 15 14 14 15 20 19 18 17 14 25 24 16 21 26 22 14
6 6 4 4 8 5 6 4 5 5 4 2 2 3 4 2 5 3 2 1 3 2 1 5 7 7 9 12 13 14 14 14 17 16 12 6 7 17 19 10 5 7 14 10 6 9 7 9 30 18 16 16 17 29
3 4 4 5 7 5 4 4 6 4 2 1 3 2 2 4 2 2 1 4 5 4 2 1 2 6 7 6 7 10 12 15 9 3 10 9 10 10 13 7 12 14 12 16 10 11 8 8 16 6 4 2 13 12
3 6 6 3 3 4 3 3 2 3 4 3 4 2 3 2 0 2 1 2 5 7 4 3 4 5 6 8 8 9 9 10 6 9 9 5 11 4 6 6 6 12 5 6 9 1 5 2 5 7 6 8 12 15
3 4 7 7 5 5 5 8 10 5 2 2 1 2 1 2 2 1 2 1 3 2 1 2 4 9 13 13 10 8 7 6 13 16 14 11 12 11 7 6 1 6 10 3 12 9 2 6 5 5 8 10 12 13
6 4 6 4 6 8 5 3 3 2 2 4 3 0 1 2 1 2 1 1 1 2 4 5 8 9 9 16 22 10 10 13 16 17 18 16 13 13 14 14 14 12 14 9 6 2 2 4 6 4 5 6 10 13
4 3 3 6 6 5 0 2 3 2 4 3 1 2 2 2 2 1 1 2 2 2 3 9 9 8 15 14 14 15 15 20 13 15 12 10 16 19 17 14 14 13 12 14 5 3 4 4 4 3 3 1 4 6
5 10 3 4 2 2 5 7 6 6 1 3 6 14 11 9 7 10 9 11 10 5 11 13 10 17 15 7 8 14 16 13 15 18 23 17 19 16 12 9 9 9 7 8 9 10 8 7 9 8 6 6 5 4
9 12 5 7 4 5 5 4 3 5 8 11 11 11 11 12 13 11 11 9 14 13 12 12 10 11 10 11 16 15 14 14 12 11 13 15 16 16 13 10 7 9 7 5 8 7 7 6 4 6 5 5 5 7
8 3 4 1 3 4 5 5 4 5 6 6 5 3 4 9 9 6 9 7 9 11 10 15 14 17 15 12 10 10 11 19 20 15 13 11 10 12 13 14 19 12 14 18 9 12 11 7 7 5 6 2 2 5
2 5 5 2 2 3 3 3 2 1 1 2 2 2 1 9 5 2 7 3 6 10 10 10 8 6 5 6 6 5 8 15 19 18 15 9 6 10 10 13 13 11 13 14 15 12 13 16 13 9 8 9 11 12

GFSWCAN_850_spd_132.txt.gz
Wind_Speed
17 16 15 14 13 13 14 15 16 16 17 16 13 12 11 10 10 11 5 10 8 8 29 26 16 14 12 7 3 9 10 5 6 4 3 2 2 3 4 3 7 6 5 3 3 3 4 10 4 4 5 6 9 8
15 15 15 11 12 12 12 13 13 14 14 14 13 11 11 10 9 8 10 9 13 13 18 21 26 27 30 22 9 4 3 4 4 2 4 4 2 3 4 3 3 2 5 5 6 6 4 6 2 8 11 14 10 11
13 14 11 11 11 12 12 13 13 13 12 12 11 10 10 9 7 8 14 9 11 15 27 16 10 4 6 30 24 6 9 8 3 13 4 3 4 2 3 1 3 1 3 4 4 3 6 15 17 16 12 11 9 5
12 12 12 12 13 13 12 12 12 13 12 11 10 8 10 9 8 9 12 9 9 7 5 10 10 19 12 11 33 27 29 11 13 7 6 2 4 1 3 4 3 3 2 6 2 11 18 11 17 15 12 11 4 5
12 13 12 13 13 14 12 11 11 12 11 9 9 8 10 8 8 10 13 10 12 9 5 17 34 1 10 17 19 29 34 25 10 1 3 3 4 3 3 3 1 6 5 4 5 18 10 14 18 10 9 7 9 17
12 13 12 13 13 14 14 11 11 12 10 7 8 8 8 6 7 6 4 3 6 8 5 4 11 11 7 15 21 26 30 22 6 2 6 6 3 2 1 2 4 6 5 7 4 14 11 14 15 14 12 14 17 13
12 14 14 14 14 16 14 9 10 11 8 6 7 7 7 7 8 8 4 1 4 8 3 6 7 8 8 6 14 19 21 14 6 5 9 12 18 5 1 3 3 8 8 4 19 25 20 24 19 21 20 21 18 14
13 14 14 15 15 15 9 9 9 9 5 5 5 4 6 7 11 15 11 13 9 5 4 3 4 6 10 2 7 12 14 20 14 9 12 6 6 1 3 8 10 5 3 11 22 16 19 22 20 24 24 23 22 20
13 14 11 11 13 11 8 8 6 4 4 4 4 4 6 5 5 2 2 9 13 6 3 3 3 3 6 7 3 7 11 3 9 6 15 9 3 4 6 7 6 9 3 5 22 16 26 35 28 27 30 29 28 27
11 11 11 10 7 6 6 7 5 6 4 4 5 3 3 3 3 0 3 6 7 5 6 5 6 4 4 4 5 6 4 2 3 5 10 4 5 18 22 17 15 11 10 6 13 15 30 33 34 36 36 33 34 27
13 12 9 5 4 5 6 6 8 6 6 5 3 3 5 3 5 2 4 6 6 4 8 9 16 6 3 2 2 3 2 3 1 4 5 4 6 13 26 27 26 20 16 10 5 12 29 31 38 36 36 37 30 26
12 13 7 5 5 5 5 10 9 9 7 3 3 4 4 3 4 3 3 4 5 4 7 4 9 18 5 4 4 3 2 2 3 8 2 3 4 19 27 32 32 33 22 14 7 5 23 29 27 31 35 36 30 27
10 11 7 6 5 5 7 10 11 10 7 3 3 2 3 4 3 4 4 3 3 3 8 10 3 10 4 3 5 2 3 4 4 2 3 4 4 12 15 25 29 33 29 23 15 12 9 9 16 30 28 28 31 33
4 4 4 7 7 6 9 10 9 10 4 2 2 3 3 3 4 3 2 3 7 8 14 7 1 5 2 3 2 3 4 2 3 3 4 3 9 7 15 19 26 35 34 31 27 22 22 15 9 25 32 31 32 33
2 3 5 8 6 9 9 10 9 9 3 2 3 4 5 10 14 12 6 6 9 8 7 5 1 6 2 1 3 1 1 4 4 4 3 9 4 5 7 3 14 25 27 24 25 24 21 21 14 19 35 31 30 31
5 4 5 7 8 8 10 10 11 9 3 3 6 5 12 7 8 5 5 1 3 5 3 6 3 1 2 3 3 5 3 4 3 3 5 4 2 2 9 12 11 6 11 21 22 22 23 25 22 16 36 34 32 31
2 2 3 8 8 9 11 12 8 5 5 5 7 13 20 17 13 14 8 6 10 4 3 2 1 3 2 1 3 2 2 4 11 5 2 1 4 2 5 5 6 6 5 1 9 12 22 29 24 23 33 38 36 36
2 2 1 10 11 12 13 5 4 5 7 11 8 15 11 15 17 14 14 10 1 1 2 0 2 1 3 2 2 2 3 11 7 5 4 4 3 5 5 7 8 11 11 13 10 9 6 15 22 25 24 33 41 40
3 1 2 14 17 8 7 5 5 4 11 13 18 24 19 17 19 19 16 11 7 4 3 3 1 3 3 4 3 9 9 8 10 11 9 5 4 4 6 8 10 13 15 14 11 11 13 13 11 21 28 32 42 44
6 6 4 15 14 3 3 4 7 6 6 5 10 15 15 14 12 9 7 11 10 5 2 3 4 5 4 7 7 7 10 12 11 7 8 8 9 10 10 11 12 14 18 19 17 14 15 18 19 17 20 35 41 46
5 5 6 14 14 4 4 4 6 7 8 6 10 10 6 11 12 13 14 10 8 5 4 12 16 17 12 11 10 10 12 13 13 12 12 13 12 12 12 13 21 23 19 16 16 15 17 17 18 19 21 29 35 41
6 8 11 11 4 4 7 9 7 8 6 8 10 10 6 4 5 7 8 8 6 14 18 21 21 19 16 18 13 12 10 9 10 10 9 8 10 10 9 11 10 10 14 10 10 13 12 16 18 18 11 19 27 23
7 8 5 5 4 4 7 6 6 5 3 3 3 2 2 3 4 7 4 6 9 16 17 17 17 14 17 13 10 9 11 12 13 11 9 5 5 3 8 13 12 13 19 10 9 13 10 12 15 17 15 14 10 7
5 4 2 3 6 5 5 5 6 4 4 3 2 2 1 4 3 3 2 2 3 3 4 6 8 6 7 10 13 12 11 8 17 6 3 1 3 8 11 9 6 9 12 14 13 15 7 10 13 14 12 22 23 24
3 4 4 6 6 4 4 3 3 3 3 3 3 3 3 4 2 2 1 3 4 4 2 4 4 3 5 6 7 6 4 6 0 2 5 4 0 2 1 4 5 3 0 4 11 7 7 4 1 6 9 13 18 13
4 6 6 4 4 4 3 3 3 4 4 3 2 1 2 2 3 2 1 2 1 5 6 11 11 8 6 5 6 12 13 15 8 8 7 3 5 5 2 4 5 8 3 6 8 5 4 3 2 2 4 6 8 7
3 4 8 7 5 5 5 6 8 4 4 2 2 2 1 3 2 1 2 2 4 7 9 9 11 11 8 10 13 16 11 7 7 11 15 16 13 13 14 13 11 11 8 6 6 3 4 8 7 5 4 4 4 5
6 5 4 3 6 7 3 3 2 2 1 2 4 1 3 1 0 2 1 2 3 7 8 6 11 17 20 21 24 19 14 10 11 11 13 14 14 16 17 15 15 18 16 8 6 3 3 5 6 4 4 2 1 1
5 5 5 6 6 5 3 0 2 4 5 4 2 1 1 3 2 3 3 4 3 6 6 10 15 14 16 18 18 16 17 15 11 13 16 15 14 10 9 10 11 11 12 12 9 9 10 10 9 9 9 6 4 5
4 5 2 3 2 1 3 4 6 6 8 8 6 12 12 8 12 10 7 8 9 13 13 17 17 12 12 16 16 17 16 20 24 23 20 17 13 7 3 2 2 4 7 8 10 11 10 9 9 13 14 12 11 12
2 4 3 5 4 6 10 8 9 7 2 10 15 14 15 14 16 14 11 14 13 8 10 11 15 18 18 20 19 20 19 14 11 11 11 10 12 15 17 17 12 8 4 6 7 6 4 7 8 8 6 8 10 10
9 8 6 3 2 3 4 3 2 5 6 9 8 5 7 10 6 10 9 7 15 19 19 17 12 13 12 11 13 18 18 17 16 13 8 6 9 11 9 11 13 14 14 14 11 7 7 3 4 4 4 1 9 10
8 9 1 3 3 2 3 3 3 3 5 3 3 4 7 5 4 6 7 10 11 14 12 10 9 9 6 6 8 12 14 14 12 10 11 11 11 9 9 8 8 10 8 7 9 8 8 8 7 4 2 1 3 4